[[{"header":{"parameterUnit":"m.s-1","parameterCategory":1,"la1":30.6,"la2":29.2853,"lo1":-89.7004,"lo2":-87.6739,"dy":0.0162,"dx":0.0183,"nx":112,"ny":82,"refTime":"2024-04-15T06:00:00:Z","depth":0,"parameterNumber":2,"parameterNumberName":"U-component_of_WINDS"},"data":[0.0,0.0,0.0,0.0,0.0,0.0,0.0,0.0,0.0,0.0,0.0,0.0,0.0,0.0,0.0,0.0,0.0,0.0,0.0,0.0,0.0,0.0,0.0,0.0,0.0,0.0,0.0,0.0,0.0,0.0,0.0,0.0,0.0,0.0,0.0,0.0,0.0,0.0,0.0,0.0,0.0,0.0,0.0,0.0,0.0,0.0,0.0,0.0,0.0,0.0,0.0,0.0,0.0,0.0,0.0,0.0,0.0,0.0,0.0,0.0,0.0,0.0,0.0,0.0,0.0,0.0,0.0,0.0,0.0,0.0,0.0,0.0,0.0,0.0,0.0,0.0,0.0,0.0,0.0,0.0,0.0,0.0,0.0,0.0,0.0,0.0,0.0,0.0,0.0,0.0,-3.8707,-3.8707,-3.8707,-3.8707,-3.8707,-3.8673,-3.8658,-3.8658,0.0,0.0,0.0,0.0,0.0,0.0,0.0,0.0,0.0,0.0,0.0,0.0,0.0,0.0,0.0,0.0,0.0,0.0,0.0,0.0,0.0,0.0,0.0,0.0,0.0,0.0,0.0,0.0,0.0,0.0,0.0,0.0,0.0,0.0,0.0,0.0,0.0,0.0,0.0,0.0,0.0,0.0,0.0,0.0,0.0,0.0,0.0,0.0,0.0,0.0,0.0,0.0,0.0,0.0,0.0,0.0,0.0,0.0,0.0,0.0,0.0,0.0,0.0,0.0,0.0,0.0,0.0,0.0,0.0,0.0,0.0,0.0,0.0,0.0,0.0,0.0,0.0,0.0,0.0,0.0,0.0,0.0,0.0,0.0,0.0,0.0,0.0,0.0,0.0,0.0,0.0,0.0,0.0,0.0,0.0,0.0,0.0,0.0,0.0,0.0,0.0,0.0,0.0,0.0,-3.8707,-3.8707,-3.8707,-3.8707,-3.8707,-3.8609,-3.8525,-3.8525,0.0,0.0,0.0,0.0,0.0,0.0,0.0,0.0,0.0,0.0,0.0,0.0,0.0,0.0,0.0,0.0,0.0,0.0,0.0,0.0,0.0,0.0,0.0,0.0,0.0,0.0,0.0,0.0,0.0,0.0,0.0,0.0,0.0,0.0,0.0,0.0,0.0,0.0,0.0,0.0,0.0,0.0,0.0,0.0,0.0,0.0,0.0,0.0,0.0,0.0,0.0,0.0,0.0,0.0,0.0,0.0,0.0,0.0,0.0,0.0,0.0,0.0,0.0,0.0,0.0,0.0,0.0,0.0,0.0,0.0,0.0,0.0,0.0,0.0,0.0,0.0,0.0,0.0,0.0,0.0,0.0,0.0,0.0,0.0,0.0,0.0,0.0,0.0,0.0,0.0,0.0,0.0,0.0,0.0,0.0,0.0,0.0,0.0,0.0,0.0,0.0,0.0,0.0,-3.8609,-3.8624,-3.8692,-3.8707,-3.8707,-3.8707,-3.864,-3.8575,-3.8491,-3.843,0.0,0.0,0.0,0.0,0.0,0.0,0.0,0.0,0.0,0.0,0.0,0.0,0.0,0.0,0.0,0.0,0.0,0.0,0.0,0.0,0.0,0.0,0.0,0.0,0.0,0.0,0.0,0.0,0.0,0.0,0.0,0.0,0.0,0.0,0.0,0.0,0.0,0.0,0.0,0.0,0.0,0.0,0.0,0.0,0.0,0.0,0.0,0.0,0.0,0.0,0.0,0.0,0.0,0.0,0.0,0.0,0.0,0.0,0.0,0.0,0.0,0.0,0.0,0.0,0.0,0.0,0.0,0.0,0.0,0.0,0.0,0.0,0.0,0.0,0.0,0.0,0.0,0.0,0.0,0.0,0.0,0.0,0.0,0.0,0.0,0.0,0.0,0.0,0.0,0.0,0.0,0.0,0.0,0.0,0.0,0.0,0.0,0.0,0.0,0.0,0.0,0.0,-3.859,-3.8593,-3.8692,-3.8707,-3.8692,-3.8658,-3.8658,-3.8559,-3.8348,-3.8267,0.0,0.0,0.0,0.0,0.0,0.0,0.0,0.0,0.0,0.0,0.0,0.0,0.0,0.0,0.0,0.0,0.0,0.0,0.0,0.0,0.0,0.0,0.0,0.0,0.0,0.0,0.0,0.0,0.0,0.0,0.0,0.0,0.0,0.0,0.0,0.0,0.0,0.0,0.0,0.0,0.0,0.0,0.0,0.0,0.0,0.0,0.0,0.0,0.0,0.0,0.0,0.0,0.0,0.0,0.0,0.0,0.0,0.0,0.0,0.0,0.0,0.0,0.0,0.0,0.0,0.0,0.0,0.0,0.0,0.0,0.0,0.0,0.0,0.0,0.0,0.0,0.0,0.0,0.0,0.0,0.0,0.0,0.0,0.0,0.0,0.0,0.0,0.0,0.0,0.0,0.0,0.0,0.0,0.0,0.0,0.0,0.0,0.0,0.0,0.0,0.0,0.0,-3.8609,-3.8692,-3.8707,-3.8707,-3.8658,-3.8525,-3.851,-3.8314,-3.7878,-3.7792,0.0,0.0,0.0,0.0,0.0,0.0,0.0,0.0,0.0,0.0,0.0,0.0,0.0,0.0,0.0,0.0,0.0,0.0,0.0,0.0,0.0,0.0,0.0,0.0,0.0,0.0,0.0,0.0,0.0,0.0,0.0,0.0,0.0,0.0,0.0,0.0,0.0,0.0,0.0,0.0,0.0,0.0,0.0,0.0,0.0,0.0,0.0,0.0,0.0,0.0,0.0,0.0,0.0,0.0,0.0,0.0,0.0,0.0,0.0,0.0,0.0,0.0,0.0,0.0,0.0,0.0,0.0,0.0,0.0,0.0,0.0,0.0,0.0,0.0,0.0,0.0,0.0,0.0,0.0,0.0,0.0,0.0,0.0,0.0,0.0,0.0,0.0,0.0,0.0,0.0,0.0,0.0,0.0,0.0,0.0,0.0,0.0,0.0,0.0,0.0,0.0,0.0,-3.8541,-3.8575,-3.8575,-3.8575,-3.8559,-3.8491,-3.851,-3.8298,-3.7843,0.0,0.0,0.0,0.0,0.0,0.0,0.0,0.0,0.0,0.0,0.0,0.0,0.0,0.0,0.0,0.0,0.0,0.0,0.0,0.0,0.0,0.0,0.0,0.0,0.0,0.0,0.0,0.0,0.0,0.0,0.0,0.0,0.0,0.0,0.0,0.0,0.0,0.0,0.0,0.0,0.0,0.0,0.0,0.0,0.0,0.0,0.0,0.0,0.0,0.0,0.0,0.0,0.0,0.0,0.0,0.0,0.0,0.0,0.0,0.0,0.0,0.0,0.0,0.0,0.0,0.0,0.0,0.0,0.0,0.0,0.0,0.0,0.0,0.0,0.0,0.0,0.0,0.0,0.0,0.0,0.0,0.0,0.0,0.0,0.0,0.0,0.0,0.0,0.0,0.0,0.0,0.0,0.0,0.0,0.0,0.0,0.0,0.0,0.0,0.0,0.0,0.0,-3.8478,-3.851,-3.8559,-3.8559,-3.8525,-3.851,-3.851,-3.851,-3.8232,-3.7596,0.0,0.0,0.0,0.0,0.0,0.0,0.0,0.0,0.0,0.0,0.0,0.0,0.0,0.0,0.0,0.0,0.0,0.0,0.0,0.0,0.0,0.0,0.0,0.0,0.0,0.0,0.0,0.0,0.0,0.0,0.0,0.0,0.0,0.0,0.0,0.0,0.0,0.0,0.0,0.0,0.0,0.0,0.0,0.0,0.0,0.0,0.0,0.0,0.0,0.0,0.0,0.0,0.0,0.0,0.0,0.0,0.0,0.0,0.0,0.0,0.0,0.0,0.0,0.0,0.0,0.0,0.0,0.0,0.0,0.0,0.0,0.0,0.0,0.0,0.0,0.0,0.0,0.0,0.0,0.0,0.0,0.0,0.0,0.0,0.0,0.0,0.0,0.0,0.0,0.0,0.0,0.0,0.0,0.0,0.0,0.0,0.0,0.0,0.0,0.0,0.0,0.0,-3.8415,-3.8596,-3.8707,-3.8707,-3.8575,-3.851,-3.851,-3.851,-3.8082,0.0,0.0,0.0,0.0,0.0,0.0,0.0,0.0,0.0,0.0,0.0,0.0,0.0,0.0,0.0,0.0,0.0,0.0,0.0,0.0,0.0,0.0,0.0,0.0,0.0,0.0,0.0,0.0,0.0,0.0,0.0,0.0,0.0,0.0,0.0,0.0,0.0,0.0,0.0,0.0,0.0,0.0,0.0,0.0,0.0,0.0,0.0,0.0,0.0,0.0,0.0,0.0,0.0,0.0,0.0,0.0,0.0,0.0,0.0,0.0,0.0,0.0,0.0,0.0,0.0,0.0,0.0,0.0,0.0,0.0,0.0,0.0,0.0,0.0,0.0,0.0,0.0,0.0,0.0,0.0,0.0,0.0,0.0,0.0,0.0,0.0,0.0,0.0,0.0,0.0,0.0,0.0,0.0,0.0,0.0,0.0,0.0,0.0,0.0,0.0,0.0,0.0,0.0,-3.8478,-3.8609,-3.8658,-3.8575,-3.8525,-3.8478,-3.843,-3.843,-3.8015,-3.7058,0.0,0.0,0.0,0.0,0.0,0.0,0.0,0.0,0.0,0.0,0.0,0.0,0.0,0.0,0.0,0.0,0.0,0.0,0.0,0.0,0.0,0.0,0.0,0.0,0.0,0.0,0.0,0.0,0.0,0.0,0.0,0.0,0.0,0.0,0.0,0.0,0.0,0.0,0.0,0.0,0.0,0.0,0.0,0.0,0.0,0.0,0.0,0.0,0.0,0.0,0.0,0.0,0.0,0.0,0.0,0.0,0.0,0.0,0.0,0.0,0.0,0.0,0.0,0.0,0.0,0.0,0.0,0.0,0.0,0.0,0.0,0.0,0.0,0.0,0.0,0.0,0.0,0.0,0.0,0.0,0.0,0.0,0.0,0.0,0.0,0.0,0.0,0.0,0.0,0.0,0.0,0.0,0.0,0.0,0.0,0.0,0.0,0.0,0.0,0.0,0.0,0.0,-3.851,-3.8624,-3.8658,-3.8593,-3.8525,-3.851,-3.853,-3.8449,-3.81,-3.736,0.0,0.0,0.0,0.0,0.0,0.0,0.0,0.0,0.0,0.0,0.0,0.0,0.0,0.0,0.0,0.0,0.0,0.0,0.0,0.0,0.0,0.0,0.0,0.0,0.0,0.0,0.0,0.0,0.0,0.0,0.0,0.0,0.0,0.0,0.0,0.0,0.0,0.0,0.0,0.0,0.0,0.0,0.0,0.0,0.0,0.0,0.0,0.0,0.0,0.0,0.0,0.0,0.0,0.0,0.0,0.0,0.0,0.0,0.0,0.0,0.0,0.0,0.0,0.0,0.0,0.0,0.0,0.0,0.0,0.0,0.0,0.0,0.0,0.0,0.0,0.0,0.0,0.0,0.0,0.0,0.0,0.0,0.0,0.0,0.0,0.0,0.0,0.0,0.0,0.0,0.0,0.0,0.0,0.0,0.0,0.0,0.0,0.0,0.0,0.0,0.0,0.0,-3.8476,-3.8624,-3.8707,-3.8707,-3.859,-3.8559,-3.8673,-3.8512,-3.8234,-3.7826,0.0,0.0,0.0,0.0,0.0,0.0,0.0,0.0,0.0,0.0,0.0,0.0,0.0,0.0,0.0,0.0,0.0,0.0,0.0,0.0,0.0,0.0,0.0,0.0,0.0,0.0,0.0,0.0,0.0,0.0,0.0,0.0,0.0,0.0,0.0,0.0,0.0,0.0,0.0,0.0,0.0,0.0,0.0,0.0,0.0,0.0,0.0,0.0,0.0,0.0,0.0,0.0,0.0,0.0,0.0,0.0,0.0,0.0,0.0,0.0,-4.1078,0.0,0.0,0.0,0.0,0.0,0.0,0.0,0.0,0.0,0.0,0.0,0.0,0.0,0.0,0.0,0.0,0.0,0.0,0.0,0.0,0.0,0.0,0.0,0.0,0.0,0.0,0.0,0.0,0.0,0.0,0.0,0.0,0.0,0.0,0.0,0.0,0.0,0.0,0.0,0.0,0.0,-3.851,-3.8624,-3.8707,-3.8707,-3.8673,-3.8624,-3.8559,-3.851,-3.8267,-3.7756,-3.7377,0.0,0.0,0.0,0.0,0.0,0.0,0.0,0.0,0.0,0.0,0.0,0.0,0.0,0.0,0.0,0.0,0.0,0.0,0.0,0.0,0.0,0.0,0.0,0.0,0.0,0.0,0.0,0.0,0.0,0.0,0.0,0.0,0.0,0.0,0.0,0.0,0.0,0.0,0.0,0.0,0.0,0.0,0.0,0.0,0.0,0.0,0.0,0.0,0.0,0.0,0.0,0.0,0.0,0.0,0.0,0.0,0.0,0.0,0.0,0.0,-4.1065,0.0,0.0,0.0,0.0,0.0,0.0,0.0,0.0,0.0,0.0,0.0,0.0,0.0,0.0,0.0,0.0,0.0,0.0,0.0,0.0,0.0,0.0,0.0,0.0,0.0,0.0,0.0,0.0,0.0,0.0,0.0,0.0,0.0,0.0,0.0,0.0,0.0,0.0,0.0,0.0,-3.851,-3.8624,-3.8707,-3.8707,-3.8707,-3.8673,-3.8609,-3.8525,-3.83,-3.788,-3.7395,0.0,0.0,0.0,0.0,0.0,0.0,0.0,0.0,0.0,0.0,0.0,0.0,0.0,0.0,0.0,0.0,0.0,0.0,0.0,0.0,0.0,0.0,0.0,0.0,0.0,0.0,0.0,0.0,0.0,0.0,0.0,0.0,0.0,0.0,0.0,0.0,0.0,0.0,0.0,0.0,0.0,0.0,0.0,0.0,0.0,0.0,0.0,0.0,0.0,0.0,0.0,0.0,0.0,-4.1167,-4.1191,-4.1191,-4.1191,-4.1191,-4.1172,-4.111,-4.1074,-4.1011,-4.0883,0.0,0.0,0.0,0.0,0.0,0.0,0.0,0.0,0.0,0.0,0.0,0.0,0.0,0.0,0.0,0.0,0.0,0.0,0.0,0.0,0.0,0.0,0.0,0.0,-3.9124,-3.9036,-3.875,0.0,0.0,0.0,0.0,0.0,0.0,0.0,0.0,0.0,0.0,0.0,-3.851,-3.8624,-3.8707,-3.8707,-3.8707,-3.8707,-3.8707,-3.8609,-3.8382,-3.8018,-3.7396,-3.6902,0.0,0.0,0.0,0.0,0.0,0.0,0.0,0.0,0.0,0.0,0.0,0.0,0.0,0.0,0.0,0.0,0.0,0.0,0.0,0.0,0.0,0.0,0.0,0.0,0.0,0.0,0.0,0.0,0.0,0.0,0.0,0.0,-3.9775,-3.984,0.0,0.0,0.0,0.0,0.0,0.0,0.0,0.0,0.0,0.0,0.0,0.0,0.0,-4.0893,-4.0906,-4.097,-4.103,-4.1109,-4.1114,-4.1144,-4.1191,-4.1191,-4.1172,-4.1112,-4.1092,0.0,-4.1081,-4.0998,0.0,0.0,0.0,0.0,0.0,0.0,0.0,0.0,0.0,0.0,0.0,0.0,0.0,0.0,0.0,0.0,0.0,0.0,0.0,0.0,0.0,0.0,-3.9739,-3.9495,-3.9272,-3.9036,0.0,-3.8707,-3.8707,-3.8707,-3.8707,0.0,0.0,0.0,0.0,0.0,0.0,0.0,-3.851,-3.8624,-3.8707,-3.8707,-3.8707,-3.8707,-3.8707,-3.8673,-3.8483,-3.8035,-3.7542,-3.7002,-3.6437,-3.5475,0.0,0.0,0.0,0.0,0.0,0.0,0.0,0.0,0.0,0.0,0.0,0.0,0.0,0.0,0.0,0.0,0.0,0.0,0.0,0.0,0.0,0.0,0.0,0.0,0.0,0.0,0.0,0.0,0.0,-3.9578,-3.9808,-3.9808,-4.0138,-4.0378,0.0,0.0,0.0,0.0,0.0,0.0,0.0,0.0,0.0,-4.1448,-4.1503,-4.1745,-4.2243,-4.2311,-4.2358,-4.2396,-4.2468,-4.2519,-4.2549,-4.2597,-4.2598,-4.2558,-4.2555,-4.228,-4.1789,-4.1235,-4.0964,-4.089,0.0,0.0,0.0,0.0,-4.0496,-4.0496,-4.0496,-4.0496,-4.0489,-4.0492,0.0,0.0,0.0,0.0,0.0,0.0,0.0,0.0,0.0,0.0,-3.9644,-3.952,-3.9298,-3.9036,-3.875,-3.8707,-3.8707,0.0,-3.8707,-3.8707,-3.8707,0.0,0.0,0.0,0.0,-3.8658,-3.8525,-3.8624,-3.8707,-3.8707,-3.8707,-3.8707,-3.8707,-3.8499,-3.7987,-3.7163,-3.6628,-3.5943,-3.5025,-3.4432,-3.4091,0.0,0.0,0.0,0.0,0.0,0.0,0.0,0.0,0.0,0.0,0.0,0.0,0.0,0.0,0.0,0.0,0.0,0.0,0.0,0.0,0.0,0.0,0.0,0.0,0.0,0.0,0.0,0.0,-3.9396,-3.9641,-3.9728,-4.0082,-4.0372,0.0,0.0,0.0,0.0,0.0,0.0,-4.1429,-4.1429,-4.1699,-4.2318,-4.2338,-4.2647,-4.3285,-4.3354,-4.3372,-4.3403,-4.352,-4.3574,-4.3604,-4.3669,-4.3691,-4.3691,-4.3709,-4.3335,-4.2668,-4.1737,-4.1212,-4.0981,-4.0835,-4.0754,-4.0687,-4.06,-4.0534,-4.0496,-4.0496,-4.0496,-4.0496,-4.0496,-4.0508,-4.05,-4.05,0.0,0.0,0.0,0.0,-3.9808,-3.9953,-3.9761,-3.9507,-3.9495,-3.9245,-3.8935,-3.8735,-3.8707,-3.8707,0.0,-3.8707,-3.8707,-3.8707,0.0,0.0,0.0,0.0,-3.8658,-3.8559,-3.8643,-3.8707,-3.8707,-3.8524,-3.8395,-3.8395,-3.7924,-3.7234,-3.6286,-3.5739,-3.5065,-3.4198,-3.3676,-3.343,-3.3467,0.0,0.0,0.0,0.0,0.0,0.0,0.0,0.0,0.0,0.0,0.0,0.0,0.0,0.0,0.0,0.0,0.0,0.0,0.0,0.0,0.0,0.0,0.0,0.0,0.0,0.0,0.0,0.0,0.0,-3.9483,-3.9705,0.0,0.0,0.0,0.0,-4.1791,-4.1896,-4.2298,-4.3124,-4.3169,-4.3189,-4.3227,-4.3227,-4.3266,-4.3305,-4.3311,-4.3336,-4.3398,-4.3471,-4.3543,-4.3604,-4.3669,-4.3691,-4.3691,-4.3691,-4.3671,-4.3566,-4.2693,-4.1803,-4.099,-4.0984,-4.0867,-4.0694,-4.0687,-4.0602,-4.0496,-4.0496,-4.0496,-4.0496,-4.0496,-4.0503,-4.051,-4.051,-4.0449,0.0,0.0,-4.0316,-4.0261,-4.027,-3.9897,-3.9495,-3.9514,-3.9101,-3.8723,-3.8707,-3.8707,-3.8707,0.0,-3.8707,-3.8707,-3.8707,0.0,-3.8707,-3.8692,-3.8692,-3.8707,-3.8692,-3.8692,-3.8707,-3.8707,-3.801,-3.7566,-3.7566,-3.6853,-3.6197,-3.5752,-3.5289,-3.4978,-3.4854,-3.3434,-3.2801,-3.3128,-3.1953,0.0,0.0,0.0,0.0,0.0,0.0,0.0,0.0,0.0,0.0,0.0,0.0,0.0,0.0,0.0,0.0,0.0,0.0,0.0,0.0,0.0,0.0,0.0,0.0,0.0,0.0,0.0,0.0,-4.0203,-4.0601,0.0,-4.1743,-4.2057,-4.2364,-4.271,-4.2765,-4.2936,-4.3279,-4.3305,-4.3556,-4.411,-4.413,-4.4388,-4.4891,-4.491,-4.5208,-4.577,-4.5841,-4.592,-4.5975,-4.6103,-4.5853,-4.5371,-4.5371,-4.5056,-4.4504,-4.4203,-4.3546,-4.2724,-4.2688,-4.2241,-4.1609,-4.1549,-4.1098,-4.0496,-4.0496,-4.0496,-4.0496,-4.0496,-4.05,-4.0492,-4.0492,-4.0476,-4.046,-4.046,-4.0452,-4.0427,-4.0388,-3.9981,-3.9555,-3.9508,-3.9087,-3.8707,-3.8707,-3.8707,-3.8707,-3.8707,-3.8707,-3.8542,-3.801,-3.7933,-3.7734,-3.7221,-3.7165,-3.7331,-3.7845,-3.7933,-3.7933,-3.7933,-3.7676,-3.729,-3.6776,-3.6221,-3.562,-3.4969,-3.4567,-3.4086,-3.352,-3.3,-3.2617,-3.2403,-3.1962,-3.1601,0.0,0.0,0.0,0.0,0.0,0.0,0.0,0.0,0.0,0.0,0.0,0.0,0.0,0.0,0.0,0.0,0.0,0.0,0.0,0.0,0.0,0.0,0.0,0.0,0.0,-3.9688,-4.0132,-4.0997,-4.1473,-4.1978,-4.2649,-4.2942,-4.3246,-4.3582,-4.3631,-4.39,-4.4541,-4.4574,-4.4987,-4.5858,-4.5877,-4.6148,-4.667,-4.667,-4.696,-4.754,-4.7603,-4.766,-4.7735,-4.7855,-4.7642,-4.7187,-4.7186,-4.6852,-4.6301,-4.6295,-4.5781,-4.4912,-4.4005,-4.3211,-4.2605,-4.2516,-4.2022,-4.14,-4.1378,-4.1181,-4.0931,-4.0931,-4.0746,-4.0496,-4.0496,-4.0496,-4.0496,-4.0496,-4.05,-4.0476,-4.0432,-3.9982,-3.9559,-3.952,-3.9087,-3.8707,-3.8707,-3.8707,-3.8707,-3.8707,-3.8707,-3.8524,-3.7991,-3.7915,-3.7716,-3.7184,-3.711,-3.7294,-3.7826,-3.7915,-3.7804,-3.7529,-3.7254,-3.6762,-3.5936,-3.5263,-3.4709,-3.4299,-3.3838,-3.343,-3.3099,-3.2765,-3.2468,-3.2248,-3.1932,-3.1601,-3.1274,0.0,0.0,0.0,0.0,0.0,0.0,0.0,0.0,0.0,0.0,0.0,0.0,0.0,0.0,0.0,0.0,0.0,0.0,0.0,0.0,0.0,0.0,0.0,-4.0416,-4.042,-4.0812,-4.1801,-4.2158,-4.2443,-4.2733,-4.2994,-4.3536,-4.4394,-4.4519,-4.5318,-4.7055,-4.7132,-4.7521,-4.8372,-4.8392,-4.8392,-4.8392,-4.8392,-4.8411,-4.843,-4.8509,-4.8569,-4.8651,-4.8713,-4.8793,-4.8887,-4.8905,-4.8903,-4.8898,-4.8833,-4.8337,-4.7372,-4.4816,-4.3758,-4.3617,-4.349,-4.3344,-4.3195,-4.3131,-4.2547,-4.1846,-4.1846,-4.1277,-4.0573,-4.0573,-4.0554,-4.0535,-4.0535,-4.0523,-4.0493,-4.0424,-3.9962,-3.9512,-3.9508,-3.9101,-3.8723,-3.8707,-3.8707,-3.8707,-3.8707,-3.8707,-3.8689,-3.867,-3.867,-3.8652,-3.8634,-3.8634,0.0,-3.867,-3.867,-3.8358,-3.7547,-3.6776,-3.5936,-3.5041,-3.3949,-3.3451,-3.3793,-3.3181,-3.3121,-3.3762,-3.2795,-3.2386,-3.2685,-3.1787,-3.1274,-3.119,0.0,0.0,0.0,0.0,0.0,0.0,0.0,0.0,0.0,0.0,0.0,0.0,0.0,0.0,0.0,0.0,0.0,0.0,0.0,0.0,0.0,-4.0248,-4.0416,-4.0416,-4.0903,-4.1582,-4.2451,-4.279,-4.3195,-4.3863,-4.4356,-4.4987,-4.5851,-4.6133,-4.6744,-4.7905,-4.7979,-4.8091,-4.8392,-4.8392,-4.8392,-4.8392,-4.8392,-4.872,-4.9339,-4.9357,-4.9414,-4.9473,-4.9535,-4.9276,-4.8754,-4.8867,-4.8903,-4.8898,-4.8833,-4.867,-4.8349,-4.7042,-4.5689,-4.4468,-4.4425,-4.3909,-4.3195,-4.3131,-4.2931,-4.2739,-4.2739,-4.2585,-4.2393,-4.2393,-4.1931,-4.145,-4.145,-4.0981,-4.0503,-4.0474,-4.0177,-3.9797,-3.9548,-3.9253,-3.8935,-3.8735,-3.8707,-3.8707,-3.8707,-3.8707,-3.8505,-3.7933,-3.7841,-3.7639,-3.7055,-3.6964,0.0,-3.7749,-3.7841,-3.7529,-3.6721,-3.6431,-3.5716,-3.4247,-3.3835,-3.3694,-3.3788,-3.3638,-3.3606,-3.3775,-3.3522,-3.3105,-3.2568,-3.1804,-3.1366,0.0,0.0,0.0,0.0,0.0,0.0,0.0,0.0,0.0,0.0,0.0,0.0,0.0,0.0,0.0,0.0,0.0,0.0,0.0,0.0,0.0,0.0,-4.0958,-4.1404,-4.1404,-4.1813,-4.2389,-4.3206,-4.3839,-4.4397,-4.4853,-4.5744,-4.6505,-4.7006,-4.7317,-4.7869,-4.8794,-4.8868,-4.9065,-4.9436,-4.9455,-4.9455,-4.9455,-4.9455,-4.9707,-5.0202,-5.0202,-5.0245,-5.0342,-5.0417,-5.0206,-4.9794,-4.9902,-4.9957,-4.9933,-4.9907,-4.9666,0.0,0.0,0.0,0.0,0.0,-4.4845,-4.4277,-4.4171,-4.3912,-4.3605,-4.3605,-4.3374,-4.3104,-4.3104,-4.2758,-4.2335,-4.2335,-4.1989,-4.1577,-4.1555,-4.1045,-4.0494,-4.0261,-3.9633,-3.9059,-3.891,-3.878,-3.8707,-3.8707,-3.8707,0.0,-3.8065,-3.7991,-3.7845,-3.7386,-3.7312,-3.7459,-3.7936,-3.7991,-3.7584,-3.6413,-3.6303,-3.5624,-3.3935,-3.3666,0.0,0.0,0.0,-3.3508,-3.335,-3.335,0.0,0.0,0.0,-3.1329,-3.119,-3.119,0.0,0.0,-3.119,-3.119,0.0,0.0,0.0,0.0,0.0,0.0,0.0,0.0,0.0,0.0,0.0,0.0,0.0,0.0,0.0,0.0,-4.1869,-4.2835,-4.2927,-4.302,-4.3373,-4.4191,-4.5122,-4.5748,-4.5866,-4.7111,-4.79,-4.7943,-4.8247,-4.8825,-4.9702,0.0,0.0,0.0,0.0,-5.0898,-5.0898,-5.0898,-5.0898,-5.0898,-5.0898,-5.0954,-5.1087,-5.1156,-5.1239,-5.1293,-5.1366,-5.1402,-5.1398,-5.1393,-5.0935,-5.0143,-4.9189,-4.831,-4.7481,-4.6457,-4.5966,-4.5787,-4.5668,0.0,0.0,-4.4451,-4.3951,-4.3374,-4.3374,-4.3316,-4.3239,-4.3239,-4.3162,-4.3096,-4.3024,-4.2259,-4.1433,-4.1265,-4.0263,-3.9317,-3.917,-3.8917,-3.875,-3.8735,-3.8723,-3.8707,-3.8707,-3.8707,-3.8707,-3.8707,-3.8707,-3.8707,-3.8707,-3.8707,-3.812,-3.6597,0.0,0.0,-3.4064,-3.3577,-3.348,-3.3793,-3.3522,-3.3169,-3.2781,-3.2734,-3.23,-3.143,-3.1353,-3.1293,-3.121,-3.121,-3.121,-3.119,-3.119,-3.119,0.0,0.0,0.0,0.0,0.0,0.0,0.0,0.0,0.0,0.0,0.0,0.0,0.0,0.0,0.0,-4.2222,-4.2593,-4.302,-4.367,-4.4376,-4.5119,-4.5918,-4.6206,-4.6698,-4.7611,-4.8094,-4.8514,-4.8811,-4.9115,-4.9665,-5.061,-5.0657,-5.0731,-5.0898,-5.0898,-5.0898,-5.0898,-5.0898,-5.0898,-5.0898,0.0,0.0,-5.094,-5.1123,-5.1211,-5.1232,-5.1343,-5.1402,-5.1398,-5.1393,-5.1306,-5.0984,-4.9403,-4.831,-4.7561,-4.7219,-4.6586,-4.5869,-4.5794,-4.5576,-4.5344,-4.5344,-4.5248,-4.5114,-4.5114,-4.4624,0.0,-4.4066,-4.3605,-4.3104,-4.3077,-4.2883,-4.244,-4.1503,-4.1064,-4.0613,-3.9638,-3.921,-3.9013,-3.9031,-3.8851,-3.8707,-3.8707,-3.8707,-3.8707,-3.8707,-3.8707,-3.8707,-3.8707,-3.8707,-3.8322,-3.7364,-3.6703,-3.5881,-3.4857,-3.4119,-3.3721,-3.3807,-3.3734,-3.3536,-3.3202,-3.2905,-3.2535,-3.2038,-3.1711,-3.1466,-3.1293,-3.1293,-3.1235,-3.119,-3.119,-3.119,0.0,0.0,0.0,0.0,0.0,0.0,0.0,0.0,0.0,0.0,0.0,-4.0996,-4.0996,0.0,-4.2333,-4.2723,-4.3132,-4.3689,-4.4525,-4.5026,-4.5454,-4.5844,-4.6605,-4.7336,-4.7881,-4.8711,-4.9277,-4.95,-4.9942,-5.0419,-5.0866,-5.0893,-5.0901,-5.0898,-5.0898,-5.1111,-5.1544,-5.1111,-5.1111,-5.1544,-5.1111,-5.0898,-5.0914,-5.1113,-5.1203,-5.1211,-5.134,-5.1405,-5.1402,-5.1394,-5.1403,-5.1316,-5.0438,-4.9325,-4.8148,-4.7606,-4.6768,-4.5883,-4.5815,-4.5704,-4.5594,-4.5594,-4.5594,-4.5594,-4.5594,-4.5306,-4.496,-4.496,-4.4662,-4.4355,-4.4355,-4.4002,-4.3499,-4.2948,-4.2038,-4.1132,-4.0525,-3.9854,-3.9346,-3.9307,-3.9087,-3.8898,-3.8892,-3.8795,-3.8707,-3.8707,-3.8707,-3.8707,-3.8707,-3.8707,-3.8395,-3.7584,-3.7144,-3.6376,-3.5114,-3.4266,-3.3807,-3.3807,-3.3807,-3.3652,-3.3321,-3.2986,-3.2619,-3.2214,-3.1803,-3.1504,-3.1295,-3.1295,-3.1274,-3.1207,-3.1562,-3.1752,0.0,0.0,0.0,0.0,0.0,0.0,0.0,0.0,-4.0049,-4.0256,-4.1119,-4.1832,-4.1832,-4.2482,-4.302,-4.302,-4.3726,-4.4506,-4.5194,-4.5565,-4.5769,-4.5769,-4.7051,-4.8032,-4.8247,-4.9343,-5.0025,-5.0004,-5.05,-5.083,-5.0898,-5.1053,-5.1149,-5.1149,-5.1323,-5.1738,-5.2461,-5.1583,-5.1505,-5.219,-5.1331,-5.0898,-5.0914,-5.1092,-5.1187,-5.1211,-5.1338,-5.1406,-5.1404,-5.1395,-5.1405,-5.1398,-5.1394,-5.0438,-4.8931,-4.8011,-4.7046,-4.6153,-4.5912,-4.5749,-4.5618,-4.5603,-4.5594,-4.5594,-4.5594,-4.5594,-4.5594,-4.5594,-4.5594,-4.5594,-4.5594,-4.5079,-4.4514,-4.4341,-4.3063,-4.1799,-4.1445,-4.0623,-3.9857,-3.9637,-3.9377,-3.9192,-3.9187,-3.896,-3.8762,-3.8723,-3.8707,-3.8707,-3.8707,-3.8707,-3.845,-3.7804,-3.7584,-3.6817,-3.5151,-3.4399,-3.3972,-3.3807,-3.3807,-3.3652,-3.3321,-3.3047,-3.2666,-3.2231,-3.1894,-3.16,-3.1351,-3.1487,-3.1494,-3.1427,-3.2175,-3.2446,-3.7558,-3.7757,-3.7949,-3.7949,-3.8879,-3.9779,0.0,0.0,-4.1382,-4.1397,-4.2077,-4.2667,-4.2667,-4.3318,-4.3875,-4.3875,-4.4581,-4.5194,-4.5287,-4.6531,-4.7423,-4.7423,-4.8221,-4.9193,-5.0257,-5.0472,-5.0478,-5.0347,-5.0418,-5.0587,-5.089,-5.1621,-5.2047,-5.2047,-5.2801,-5.3265,-5.3343,-5.2492,-5.2113,-5.219,-5.1331,-5.0898,-5.0906,-5.1056,-5.1142,-5.1211,-5.1342,-5.1405,-5.1404,-5.1395,-5.1408,-5.1407,-5.1398,-5.0809,-4.985,-4.8968,-4.8037,-4.7108,-4.6192,-4.5841,-4.5757,-4.5646,-4.5594,-4.5594,-4.5594,-4.5594,-4.5594,-4.5594,-4.5594,-4.5594,-4.5594,-4.5528,-4.5259,-4.4481,-4.4137,-4.3534,-4.1993,-4.138,-4.087,-4.0105,-3.9742,-3.9529,-3.9476,-3.9231,-3.8971,-3.8735,-3.8707,-3.8707,-3.8707,-3.8707,-3.867,-3.8579,-3.7933,-3.6817,-3.5151,-3.4931,-3.4564,-3.3844,-3.3807,-3.3652,-3.3321,-3.3258,-3.2939,-3.2301,-3.2249,-3.1984,-3.1479,-3.2147,-3.2355,-3.2192,-3.2933,-3.2933,-3.7792,-3.8035,-3.8345,-3.8816,-3.9477,-4.0114,-4.0575,-4.1406,-4.2106,-4.2281,-4.2946,-4.3503,-4.3503,-4.3763,-4.4172,0.0,-4.5064,-4.5621,-4.655,-4.7274,-4.7868,-4.8333,-4.8704,-4.9089,-4.9592,-4.9802,-4.987,-4.9815,-5.0187,-5.0672,-5.1318,-5.1904,-5.2442,-5.2937,-5.3304,-5.373,-5.4252,-5.2879,-5.2461,-5.2937,-5.1563,-5.0898,-5.0906,-5.1043,-5.1162,-5.1269,-5.1363,-5.1405,-5.1405,-5.1402,-5.1396,-5.1409,-5.1405,-5.1185,-5.075,-4.9872,-4.8633,-4.7342,-4.6917,-4.6349,-4.5793,-4.5727,-4.566,-4.5594,-4.5594,-4.5594,-4.5594,-4.5594,-4.5594,-4.5594,-4.5594,-4.5594,-4.5518,-4.5152,-4.4662,-4.4105,-4.3376,-4.2366,-4.1471,-4.1062,-4.0396,-3.988,-3.9797,-3.9576,-3.9282,-3.8975,-3.8803,-3.8707,-3.8707,-3.8707,-3.8707,-3.8707,-3.7988,-3.7217,-3.6505,-3.5555,-3.4857,-3.4509,-3.4064,-3.3734,-3.3611,-3.3408,-3.3169,-3.2892,-3.2928,-3.2808,-3.2551,-3.3005,-3.3179,-3.307,-3.3736,-3.3863,-3.834,-3.8645,-3.904,-3.9843,-4.0404,-4.0923,-4.1514,-4.2253,-4.2892,-4.3083,-4.3596,-4.4005,-4.4005,-4.4005,-4.4209,-4.4841,-4.5324,-4.603,-4.7218,-4.7757,-4.8259,-4.8834,-4.8909,-4.8909,-4.8909,-4.912,-4.9317,-4.9464,-4.9979,-5.0713,-5.173,-5.2275,-5.2956,-5.3826,-5.4078,-5.4484,-5.5122,-5.3652,-5.3111,-5.3478,-5.1989,-5.113,-5.0906,-5.1043,-5.1152,-5.1279,-5.1338,-5.1386,-5.1405,-5.1405,-5.1402,-5.1395,-5.1391,-5.1405,-5.132,-5.0692,-4.9323,-4.7743,-4.7489,-4.6737,-4.5872,-4.5835,-4.5745,-4.5671,-4.5671,-4.5629,-4.5594,-4.5594,-4.5594,-4.5594,-4.5594,-4.5594,-4.5594,-4.5594,-4.5133,-4.4586,-4.4355,-4.3355,-4.2346,-4.1833,-4.1107,-4.0472,-4.0187,-3.9922,-3.9645,-3.9389,-3.9045,-3.8773,-3.8723,-3.8707,-3.8707,-3.8707,-3.8175,-3.7749,-3.7529,-3.6395,-3.5591,-3.5371,-3.4596,-3.4247,-3.4486,-3.4039,-3.3829,-3.3954,-3.4007,-3.39,-3.3631,-3.4036,-3.4113,-3.3913,-3.4558,-3.4832,-3.9347,-3.9761,-4.0151,-4.0943,-4.1943,-4.2708,-4.2745,-4.3358,-4.3952,-4.3968,-4.3986,-4.4005,-4.4005,-4.4005,-4.4005,-4.4042,-4.5398,-4.6475,-4.6531,-4.7887,-4.8872,-4.8909,-4.8909,-4.8909,0.0,-4.8926,-4.9123,-4.9665,-4.9834,-5.0516,-5.1915,-5.2919,-5.3865,-5.4735,-5.5528,-5.5935,-5.5973,-5.5142,-5.431,-5.3478,-5.2589,-5.1718,-5.0906,-5.1043,-5.1152,-5.1211,-5.1277,-5.1337,-5.1406,-5.1405,-5.1405,-5.1404,-5.1395,-5.1409,-5.1408,-5.1379,-5.0262,-4.8634,-4.7723,-4.6839,-4.6061,-4.593,-4.5853,-4.58,-4.58,-4.5708,-4.5594,-4.5594,-4.5594,-4.5594,-4.5594,-4.5594,-4.5594,-4.5594,-4.5575,-4.5325,-4.447,-4.4259,-4.3739,-4.2115,-4.1769,-4.1484,-4.0636,-4.0261,-4.0071,-3.9973,-3.9462,-3.8999,-3.8735,-3.8707,-3.8707,-3.8707,-3.8689,-3.834,-3.7566,-3.7456,-3.7088,-3.6303,-3.5445,-3.5334,-3.6193,-3.5408,-3.5155,-3.5613,-3.5618,-3.5248,-3.4471,-3.5205,-3.5235,-3.4683,-3.5404,-3.5694,-3.9738,-4.0325,-4.1027,-4.2014,-4.2514,-4.2946,-4.3466,-4.3819,-4.4005,-4.4005,-4.4005,-4.4005,-4.4005,-4.4005,-4.4191,-4.4766,-4.5769,-4.668,-4.7218,-4.8221,-4.8909,-4.8909,-4.8909,0.0,0.0,0.0,0.0,-4.9155,-5.0036,-5.1089,-5.2279,-5.3491,-5.4591,-5.5559,-5.5857,-5.6012,-5.6012,-5.52,-5.4368,-5.3478,-5.2028,-5.1169,-5.0906,-5.1043,-5.1103,-5.1132,-5.1258,-5.1304,-5.1335,-5.1386,-5.1406,-5.1405,-5.1402,-5.1399,-5.1395,-5.1408,-5.0663,-4.9528,-4.8647,-4.7735,-4.6855,-4.6244,-4.5928,-4.5807,-4.5807,-4.5715,-4.5594,-4.5594,-4.5594,-4.5594,-4.5594,-4.5594,-4.5594,-4.5594,-4.5594,-4.5518,-4.5229,-4.4701,-4.4124,-4.3566,-4.2566,-4.1712,-4.1407,-4.0809,-4.0304,-4.0101,-3.951,-3.9013,-3.8735,-3.8707,-3.8707,-3.8707,-3.8707,-3.8597,-3.8322,-3.7823,-3.7382,-3.7107,-3.6321,-3.5991,-3.6285,-3.6028,-3.5948,-3.6098,-3.6363,-3.6358,-3.609,-3.6244,-3.62,-3.5949,-3.5856,-3.5728,-4.0797,-4.1379,-4.2001,-4.299,-4.3225,-4.3355,-4.3875,-4.4005,-4.4005,-4.4005,-4.4005,-4.4005,-4.4005,-4.4005,-4.4283,-4.5157,-4.5974,-4.6773,-4.759,-4.8389,-4.8909,-4.8909,-4.8909,-4.8909,0.0,0.0,0.0,-4.9012,-5.0229,-5.1399,-5.2397,-5.3799,-5.4998,-5.5893,-5.5986,-5.6012,-5.6012,-5.549,-5.4658,-5.3478,-5.1738,-5.0898,-5.0906,-5.099,-5.1056,-5.1092,-5.1191,-5.1263,-5.1299,-5.1358,-5.1386,-5.1405,-5.1405,-5.1404,-5.1401,-5.1395,-5.1059,-5.0432,-4.9563,-4.8487,-4.7382,-4.6819,-4.6305,-4.5902,-4.5854,-4.5759,-4.566,-4.5612,-4.5594,-4.5594,-4.5594,-4.5594,-4.5594,-4.5594,-4.5594,-4.5594,-4.5594,-4.5171,-4.4662,-4.4355,-4.3431,-4.2508,-4.1904,-4.1085,-4.0406,-4.0139,-3.9742,-3.9308,-3.8898,-3.8833,-3.881,-3.8723,-3.8707,-3.8707,-3.8707,-3.823,-3.7933,-3.7933,-3.718,-3.6853,-3.7147,-3.6872,-3.6853,-3.7147,-3.7408,-3.7471,-3.7323,-3.7092,-3.6865,-3.6623,-3.6152,-3.5839,-4.2389,-4.2835,-4.3039,-4.3819,-4.4005,-4.4005,-4.4005,-4.4005,-4.4005,-4.4005,-4.4005,-4.4005,0.0,0.0,-4.4265,-4.5101,-4.5955,-4.6773,-4.7534,-4.837,-4.8909,0.0,0.0,0.0,0.0,0.0,0.0,-4.9237,0.0,-5.1492,-5.2368,-5.3889,-5.5065,-5.5788,-5.5922,-5.6012,-5.6012,-5.5915,-5.5064,-5.3478,-5.1738,-5.0898,-5.0898,-5.0898,-5.0961,-5.1093,-5.1099,-5.1165,-5.1293,-5.1295,-5.1337,-5.1406,-5.1405,-5.1405,-5.1405,-5.1401,-5.1396,-5.1273,-5.0442,-4.9091,-4.7723,-4.7684,-4.6972,-4.6146,-4.6018,-4.5879,-4.5771,-4.5654,-4.5622,-4.5594,-4.5594,-4.5594,-4.5594,-4.5594,-4.5594,-4.5594,-4.5594,-4.5594,-4.5364,-4.4528,-4.4335,-4.3778,-4.2077,-4.1104,-4.0463,-4.0177,-4.011,-3.988,-3.9199,-3.9114,-3.9003,-3.875,-3.8723,-3.8707,-3.8707,-3.8707,-3.8707,-3.8707,-3.7988,-3.7915,-3.867,-3.797,-3.7918,-3.8689,-3.8707,-3.8515,-3.8118,-3.7739,-3.7266,-3.6709,-3.6367,-3.6079,-4.2686,-4.3243,-4.3745,-4.3949,-4.4005,-4.4005,-4.4005,-4.4005,-4.4005,-4.4005,-4.4005,-4.4005,-4.4005,-4.4005,-4.4079,-4.4302,-4.5547,0.0,-4.6773,-4.8017,0.0,-4.8909,0.0,-4.8909,-4.8909,-4.8909,0.0,0.0,-5.0869,-5.1775,-5.2435,-5.4134,-5.5333,-5.5931,-5.5967,-5.6012,-5.6012,-5.4755,-5.3923,-5.3478,-5.1738,-5.0898,-5.0898,-5.0898,-5.0921,-5.0966,-5.1056,-5.1147,-5.1236,-5.1282,-5.1337,-5.1406,-5.1406,-5.1406,-5.1406,-5.1404,-5.1403,-5.1363,-5.1142,-5.0351,-4.9362,-4.8701,-4.785,-4.7049,-4.703,-4.6457,-4.58,-4.5757,-4.5676,-4.5594,-4.5594,-4.5594,-4.5594,-4.5594,-4.5594,-4.5594,-4.5594,-4.5594,-4.5537,-4.5306,-4.4739,-4.3778,-4.2077,-4.1623,-4.1223,-4.0513,-4.0368,-4.0129,-3.9552,-3.9257,-3.9063,-3.9013,-3.8815,-3.8707,-3.8707,-3.8707,-3.8707,-3.8707,-3.8505,-3.8487,-3.8689,-3.8505,-3.8487,-3.8707,-3.8707,-3.8643,-3.8564,-3.8135,-3.7667,-3.7136,-3.6746,-3.6287,-4.3225,-4.3652,-4.4005,-4.4005,-4.4005,-4.4005,-4.4005,-4.3726,-4.3466,-4.3466,-4.3466,-4.3466,-4.3466,-4.3763,-4.4135,0.0,0.0,0.0,-4.6921,-4.7794,-4.85,0.0,-4.8909,0.0,-4.8909,-4.8909,-4.9243,0.0,-5.1104,-5.2003,-5.2636,-5.4337,-5.5408,-5.5639,-5.5884,-5.6012,-5.6012,-5.4716,-5.3884,-5.3478,-5.2124,-5.1273,-5.0898,-5.0898,-5.0898,-5.0906,-5.0976,-5.1074,-5.1167,-5.1236,-5.1293,-5.1362,-5.1386,-5.1406,-5.1406,-5.1406,-5.1405,-5.1404,-5.1402,-5.1084,-5.0526,-4.9645,-4.8767,-4.8011,-4.7983,-4.728,-4.6494,-4.6421,-4.6071,-4.5692,-4.5692,-4.5635,-4.5594,-4.5594,-4.5594,-4.5594,-4.5594,-4.5594,-4.5594,-4.5594,-4.4893,-4.3989,-4.3066,-4.2297,-4.1643,-4.1143,-4.0718,-4.0332,-4.0032,-3.9675,-3.9352,-3.9122,-3.8974,-3.8822,-3.8723,-3.8707,-3.8707,-3.8707,-3.8707,-3.8707,-3.8707,-3.8707,-3.8707,-3.8707,-3.8707,-3.8707,-3.8707,-3.8285,-3.7948,-3.7649,-3.7248,-3.6726,-4.3819,-4.4005,-4.4005,-4.4005,-4.4005,-4.3968,-4.3875,-4.3299,-4.276,-4.2649,-4.263,-4.263,-4.263,-4.3299,-4.4079,-4.4841,0.0,-4.5807,-4.733,-4.7627,-4.7999,-4.8797,-4.8909,-4.8909,-4.8909,-4.8909,-4.928,-5.0209,-5.1249,-5.2151,-5.2908,-5.4439,-5.5293,-5.5287,-5.574,-5.6012,-5.6012,-5.52,-5.4368,-5.3478,-5.2616,-5.1738,-5.0898,-5.0898,-5.0898,-5.0898,-5.0898,-5.0969,-5.1092,-5.1152,-5.1239,-5.132,-5.1363,-5.1386,-5.1406,-5.1406,-5.1406,-5.1405,-5.1405,-5.1403,-5.1281,-5.0513,-4.9685,-4.897,-4.8902,-4.8272,-4.7548,-4.7432,-4.6717,-4.5982,-4.5969,-4.58,-4.562,-4.5594,-4.5594,-4.5594,-4.5594,-4.5594,-4.5594,-4.5594,-4.4998,-4.4432,-4.4316,-4.3085,-4.2058,-4.1827,-4.1162,-4.0627,-4.051,-4.0167,-3.9721,-3.9272,-3.9137,-3.9007,-3.878,-3.8723,-3.8707,-3.8707,-3.8707,-3.8707,-3.8707,-3.8707,-3.8707,-3.8707,-3.8707,-3.8707,-3.8707,-3.8352,-3.8152,-3.8085,-3.7738,-3.7248,-4.3968,-4.4005,-4.4005,-4.4005,-4.4005,-4.3838,-4.315,-4.289,0.0,-4.1943,-4.1813,-4.1813,-4.1813,-4.2463,-4.3058,-4.3206,-4.4395,-4.5621,-4.6587,-4.7274,-4.7999,0.0,-4.8909,-4.8909,-4.8909,-4.8909,0.0,0.0,-5.1377,-5.1963,-5.3085,-5.4159,-5.5029,-5.5684,-5.5894,-5.6012,-5.6012,-5.52,-5.4368,-5.3478,-5.2616,-5.1738,-5.0898,-5.0898,-5.0898,-5.0898,-5.0898,0.0,-5.1105,-5.1109,-5.1187,-5.1297,-5.1304,-5.1359,-5.1406,-5.1406,-5.1406,-5.1406,-5.1406,-5.1405,-5.1384,-5.1218,-5.0588,-4.9861,-4.9866,-4.9207,-4.8479,-4.8444,-4.7714,-4.6942,-4.6886,-4.6315,-4.5734,-4.5629,-4.5594,-4.5594,-4.5594,-4.5594,-4.5594,-4.5594,-4.5479,-4.5152,-4.4412,-4.4066,-4.3393,-4.2,-4.161,-4.1248,-4.0578,-4.0196,-3.9931,-3.9772,-3.9364,-3.9073,-3.9031,-3.8822,-3.8707,-3.8707,-3.8707,-3.8707,-3.8707,-3.8707,-3.8707,-3.8707,-3.8707,-3.8707,-3.8707,-3.8627,-3.8435,-3.8101,-3.8034,-3.7524,-4.4005,-4.4005,-4.4005,-4.4005,-4.4005,-4.3782,-4.2983,0.0,0.0,-4.1126,-4.0992,-4.0992,-4.0992,-4.1627,-4.2314,-4.2723,-4.3466,-4.4432,-4.5695,-4.6568,-4.7367,-4.8184,-4.902,-4.9355,-4.8946,-4.928,-5.006,-5.1305,-5.1398,-5.2027,-5.3435,-5.4305,-5.5037,-5.5635,-5.5885,-5.6012,-5.6012,-5.5625,-5.4774,-5.3478,-5.3072,-5.2182,-5.0898,-5.0898,-5.0898,-5.0898,-5.0898,-5.0944,-5.1004,-5.1075,-5.1132,-5.1207,-5.1277,-5.1327,-5.1341,-5.1386,-5.1406,-5.1406,-5.1406,-5.1406,-5.1405,-5.1402,-5.1122,-5.0782,-5.0772,-5.015,-4.9427,-4.9427,-4.8739,-4.7967,-4.7854,-4.7165,-4.6448,-4.6303,-4.5932,-4.5594,-4.5594,-4.5594,-4.5594,-4.5594,-4.5594,-4.5479,-4.5056,-4.4605,-4.4028,-4.322,-4.2338,-4.1602,-4.1182,-4.0619,-4.0177,-3.9941,-3.9667,-3.9395,-3.9129,-3.8993,-3.8851,-3.8707,-3.8707,-3.8707,-3.8707,-3.8707,-3.8707,-3.8707,-3.8707,-3.8707,-3.8707,-3.8707,-3.8611,-3.8417,-3.8417,-3.805,-4.3949,-4.4005,-4.4005,-4.4005,-4.3875,-4.3522,-4.2723,-4.1924,0.0,-4.029,-4.0118,-4.0118,-4.0118,-4.0791,-4.1609,-4.2407,-4.2686,-4.3392,-4.5045,-4.5992,-4.6791,-4.7608,-4.9132,0.0,-4.8983,-4.9633,0.0,-5.1323,-5.1714,-5.2475,-5.3795,-5.4452,-5.4964,-5.5373,-5.572,-5.5902,-5.5968,-5.5995,-5.5161,-5.3498,-5.3498,-5.2589,-5.0898,-5.0898,-5.0898,-5.0898,-5.0898,-5.0898,-5.0914,-5.1017,-5.1075,-5.1103,-5.1222,-5.1279,-5.1301,-5.1362,-5.1386,-5.1406,-5.1406,-5.1406,-5.1406,-5.1405,-5.1401,-5.1393,-5.1402,-5.093,-5.0381,-5.0379,-4.9708,-4.8973,-4.8842,-4.7971,-4.7033,-4.6696,-4.6105,-4.5594,-4.5594,-4.5594,-4.5594,-4.5594,-4.5594,-4.5594,-4.5594,-4.5037,-4.4509,-4.4335,-4.3181,-4.2184,-4.1775,-4.1163,-4.0571,-4.009,-3.995,-3.9732,-3.9305,-3.9165,-3.9003,-3.881,-3.8719,-3.8707,-3.8707,-3.8707,-3.8707,-3.8707,-3.8707,-3.8707,-3.8707,-3.8707,-3.8707,-3.8707,-3.8707,-3.8483,-4.3801,-4.4005,-4.4005,-4.4005,-4.3448,-4.2705,-4.1887,0.0,-4.0253,-3.9398,-3.9212,-3.9212,-3.9212,-3.9918,-4.0769,-4.1571,-4.2314,-4.3392,-4.5045,-4.5992,-4.6791,-4.7608,0.0,0.0,-4.8983,-4.9633,-5.0469,-5.1323,-5.2754,-5.3721,-5.4054,-5.4313,-5.4601,-5.4928,-5.5349,-5.5626,-5.5817,-5.595,-5.5161,-5.3498,-5.3498,-5.2589,-5.0898,-5.0898,-5.0898,-5.0898,-5.0898,-5.0898,0.0,-5.0914,-5.099,-5.1105,-5.1109,-5.1191,-5.1297,-5.1301,-5.1358,-5.1406,-5.1406,-5.1406,-5.1406,-5.1405,-5.1404,-5.1402,-5.1393,-5.1349,-5.1289,-5.1279,-5.0649,-4.9952,-4.9873,-4.8521,-4.6938,-4.5949,-4.5671,-4.5594,-4.5594,-4.5594,-4.5594,-4.5594,-4.5594,-4.5594,-4.5594,-4.5537,-4.521,-4.4412,-4.4162,-4.3528,-4.2,-4.166,-4.13,-4.0526,-4.0129,-3.987,-3.9827,-3.9377,-3.9087,-3.9059,-3.8837,-3.8707,-3.8707,-3.8707,-3.8707,-3.8707,-3.8707,-3.8707,-3.8707,-3.8707,-3.8707,-3.8707,-3.8707,-3.8483,-4.3058,-4.2927,-4.2667,-4.315,-4.2667,-4.1869,-4.1051,0.0,-4.0155,-3.9287,-3.9101,-3.9101,-3.9101,-3.938,-3.9881,-4.0736,-4.1553,0.0,-4.3633,-4.5361,-4.6624,-4.694,-4.9299,-5.0562,0.0,0.0,-5.1026,-5.1361,-5.2902,-5.3832,-5.3926,-5.4228,-5.4458,-5.4585,-5.5075,-5.542,-5.5624,-5.5778,-5.5073,-5.3498,-5.3453,-5.2545,-5.0898,-5.0893,-5.0893,-5.0898,-5.0898,-5.0898,0.0,-5.0898,-5.0937,-5.0983,-5.1069,-5.1122,-5.1187,-5.1274,-5.1325,-5.1358,-5.1386,-5.1406,-5.1406,-5.1406,-5.1406,-5.1405,-5.1398,-5.1395,-5.1394,-5.1407,-5.115,-5.0865,-5.0741,-4.9367,-4.7724,-4.6738,-4.6105,-4.57,-4.562,-4.5594,-4.5594,-4.5594,-4.5594,-4.5594,-4.5594,-4.5594,-4.5479,-4.5133,-4.4643,-4.4066,-4.3393,-4.2396,-4.1638,-4.133,-4.0621,-4.0139,-3.9963,-3.9571,-3.9268,-3.9109,-3.8862,-3.8707,-3.8707,-3.8707,-3.8707,-3.8707,-3.8707,-3.8707,-3.8707,-3.8707,-3.8707,-3.8707,-3.9203,-3.9342,-4.2222,-4.2017,-4.1739,-4.2296,-4.1832,-4.1089,0.0,0.0,-3.9844,-3.9231,-3.9101,-3.9101,-3.9101,-3.9101,-3.938,-4.0253,0.0,-4.1869,-4.2686,-4.4934,-4.6494,-4.6494,0.0,-5.1063,-5.019,-5.1101,-5.1658,-5.1416,-5.2902,-5.3813,-5.3813,-5.4071,-5.4245,-5.4313,-5.4735,-5.5088,-5.5324,-5.5572,-5.494,-5.3383,-5.3383,-5.2511,-5.0866,-5.0888,-5.0897,-5.0901,-5.0898,-5.0898,0.0,-5.0898,-5.0898,-5.0914,-5.1004,-5.1069,-5.1103,-5.1211,-5.1272,-5.1301,-5.1341,-5.1386,-5.1406,-5.1406,-5.1406,-5.1406,-5.1404,-5.1402,-5.14,-5.1394,-5.1391,-5.1302,-5.0936,-4.9891,-4.8641,-4.7391,-4.6626,-4.6073,-4.5667,-4.5594,-4.5594,-4.5594,-4.5594,-4.5594,-4.5594,-4.5594,-4.5594,-4.5594,-4.5075,-4.4586,-4.4335,-4.3278,-4.245,-4.222,-4.1355,-4.0602,-4.0071,-3.975,-3.9445,-3.9163,-3.8873,-3.8719,-3.8707,-3.8707,-3.8707,-3.8707,-3.8707,-3.8817,-3.9056,-3.9056,-3.9184,-3.9423,-3.9992,-4.0249,-4.1386,-4.1609,-4.159,-4.1609,-4.101,-4.0416,0.0,-3.9733,-3.9101,-3.9101,-3.9101,-3.9101,-3.9101,-3.9101,-3.938,-4.0253,-4.107,0.0,-4.2686,-4.4934,-4.6494,0.0,-4.9392,-5.1063,-5.019,-5.1621,-5.2271,-5.1454,-5.2902,0.0,-5.3813,-5.3794,-5.3889,-5.4091,-5.4296,-5.4569,-5.4905,-5.5293,-5.4696,-5.3106,-5.33,-5.2477,-5.0801,-5.0863,-5.0899,-5.0899,-5.0901,-5.0898,0.0,-5.0898,-5.0898,-5.0898,-5.0898,-5.0983,-5.1105,-5.1105,-5.1183,-5.1297,-5.1297,-5.1338,-5.1406,-5.1406,-5.1406,-5.1406,-5.1406,-5.1406,-5.1404,-5.14,-5.1394,-5.1185,-5.0241,-5.0002,-4.9491,-4.7553,-4.7091,-4.6815,-4.583,-4.5594,-4.5594,-4.5594,-4.5594,-4.5594,-4.5594,-4.5594,-4.5594,-4.5594,-4.5594,-4.5267,-4.4412,-4.4278,-4.397,-4.3162,-4.2316,-4.134,-4.0196,-3.9854,-3.9563,-3.9224,-3.895,-3.8762,-3.8707,-3.8707,-3.8707,-3.8707,-3.8707,-3.9093,-3.9882,-3.9882,-4.0304,-4.1077,-4.1077,-4.1077,-4.0564,-4.0346,-4.003,-4.0624,-4.0141,-3.951,-3.951,-3.9305,-3.9101,-3.9101,-3.9101,-3.9101,-3.9101,-3.9101,-3.9194,-3.9472,-4.068,0.0,0.0,0.0,0.0,-4.6494,-4.9392,-5.1063,0.0,0.0,-5.2865,-5.1491,-5.2902,-5.3813,-5.3813,-5.3813,-5.3832,-5.3889,-5.409,-5.4315,-5.4572,-5.422,-5.3684,-5.296,-5.2417,-5.1693,-5.0801,-5.0775,-5.0801,-5.0899,-5.0897,-5.0893,-5.0898,-5.0898,-5.0898,-5.0898,-5.0898,-5.0929,-5.0969,-5.1069,-5.1157,-5.1239,-5.1239,-5.132,-5.1386,-5.1358,-5.1363,-5.1406,-5.1406,-5.1406,-5.1406,-5.1404,-5.14,-5.1334,-5.1023,-5.0508,-4.9903,-4.9234,-4.8091,-4.7081,-4.6699,-4.6092,-4.5594,-4.5594,-4.5594,-4.5594,-4.5594,-4.5594,-4.5594,-4.5594,-4.5594,-4.5498,-4.5229,-4.4662,-4.4201,-4.3951,-4.3181,-4.2302,-4.1332,-4.0295,-3.9648,-3.9555,-3.9082,-3.8807,-3.8837,-3.875,-3.898,-3.9574,-3.9546,-3.9918,-4.0726,-4.0726,-4.113,-4.1919,-4.1919,-4.2213,-3.9751,-3.951,-3.9231,-3.977,-3.9491,-3.9101,-3.9101,-3.9101,-3.9101,-3.9101,-3.9101,-3.9101,-3.9101,-3.9101,-3.9101,-3.9101,-4.0513,-4.159,0.0,0.0,0.0,-4.7757,-4.967,0.0,0.0,-5.2085,-5.281,-5.1491,-5.2902,-5.3813,-5.3813,-5.3813,-5.3664,-5.3367,-5.3758,-5.3941,-5.3829,-5.3512,-5.2935,-5.2139,-5.1636,-5.1132,-5.0567,-5.0557,-5.0644,-5.0829,-5.0846,-5.088,0.0,-5.0901,-5.0909,-5.0898,-5.0898,-5.0898,-5.0914,-5.099,-5.1072,-5.1171,-5.1171,-5.1258,-5.1361,-5.1304,-5.1357,-5.1406,-5.1406,-5.1406,-5.1406,-5.1405,-5.1403,-5.14,-5.1395,-5.1001,-5.0482,-5.0092,-4.8857,-4.764,-4.7197,-4.6352,-4.5651,-4.5603,-4.5594,-4.5594,-4.5594,-4.5594,-4.5594,-4.5594,-4.5594,-4.5594,-4.5594,-4.5133,-4.4778,-4.4778,-4.4047,-4.3335,-4.2797,-4.1491,-4.0632,-4.0532,-4.0081,-3.9819,-3.9834,-3.9761,-3.9955,-4.0433,-4.042,-4.0777,-4.1535,-4.1864,-4.2268,-4.2745,-4.2745,-4.302,0.0,-3.9101,-3.9101,-3.9101,-3.9101,-3.9101,-3.9101,-3.9101,0.0,-3.9101,-3.9101,-3.9101,-3.9101,-3.9101,-3.9101,-3.9101,-4.0513,-4.159,0.0,-4.4432,0.0,0.0,-5.0079,0.0,-5.0098,-5.1565,-5.2178,-5.1361,-5.2754,-5.3627,-5.3627,-5.3627,-5.3292,-5.2549,-5.3237,-5.3368,-5.2802,-5.2928,-5.2281,-5.0881,-5.0945,-5.0691,-5.0171,-5.0264,-5.0436,0.0,-5.0766,-5.0838,-5.0899,-5.0899,-5.0897,-5.0898,-5.0898,-5.0898,-5.0898,-5.0898,-5.0983,-5.1099,-5.1093,-5.1174,-5.1293,-5.1295,-5.1357,-5.1406,-5.1406,-5.1406,-5.1406,-5.1405,-5.1405,-5.1404,-5.14,-5.1395,-5.1189,-5.0308,-4.938,-4.8424,-4.7424,-4.6459,-4.5764,-4.5629,-4.5594,-4.5594,-4.5594,-4.5594,-4.5594,-4.5594,-4.5594,-4.5594,-4.5594,-4.5594,-4.5594,-4.5594,-4.4874,-4.4393,-4.4393,-4.3115,-4.2212,-4.1954,-4.1673,-4.1489,-4.1416,-4.1416,-4.1369,-4.1312,-4.1351,-4.1707,-4.2396,-4.313,-4.3515,-4.3515,-4.3515,-4.3515,-3.9101,0.0,-3.9101,-3.9101,-3.9101,-3.9101,0.0,-3.9101,-3.9101,-3.9101,-3.9101,-3.9101,-3.9101,-3.9101,-3.9101,-3.9101,-4.0513,-4.159,-4.159,-4.4432,0.0,-4.8964,-4.9745,-4.9875,-4.9262,-5.0711,-5.1323,-5.0469,-5.1379,-5.1955,-5.1955,-5.1955,-5.1881,-5.1695,-5.1881,-5.1899,-5.1749,-5.1188,-5.0819,-5.0664,-5.0067,-4.9825,-4.9891,-5.0116,-5.0286,-5.0415,-5.0625,-5.0766,-5.0819,-5.0819,-5.0855,-5.0897,-5.0897,-5.0893,-5.0898,-5.0898,-5.0983,-5.1087,-5.0983,-5.1064,-5.1239,-5.1284,-5.1357,-5.1406,-5.1406,-5.1406,-5.1406,-5.1406,-5.1406,-5.1406,-5.1404,-5.1403,-5.1342,-5.1118,-4.9859,-4.859,-4.8253,-4.6918,-4.5754,-4.5637,-4.5594,-4.5594,-4.5594,-4.5594,-4.5594,-4.5594,-4.5594,-4.5594,-4.5594,-4.5594,-4.5594,-4.5594,-4.5421,-4.5287,-4.5287,-4.3647,-4.2485,-4.2224,-4.1961,-4.1726,-4.1564,-4.1443,-4.1693,-4.2334,-4.2816,-4.3105,-4.3222,-4.3423,-4.3515,-4.3515,-4.3515,-4.3515,-3.9101,-3.9101,-3.9101,-3.9101,-3.9101,-3.9101,-3.9101,-3.9101,-3.9101,-3.9101,-3.9101,-3.9101,-3.9101,-3.9101,-3.9231,-3.9621,-4.0773,0.0,0.0,0.0,-4.7107,-4.8723,-4.928,-4.9392,0.0,-5.006,-5.0618,-5.0153,-5.0915,-5.1398,-5.1398,-5.1398,-5.1212,-5.0822,-5.0803,-5.0803,-5.0803,-5.0376,-5.0037,-4.9812,-4.9382,-4.9334,-4.9627,-4.9762,-5.0,-5.0264,-5.0404,-5.0586,-5.0747,-5.0747,-5.0793,-5.0855,-5.0891,-5.0897,-5.0893,-5.089,-5.0959,-5.0997,-5.0929,-5.1018,-5.1161,-5.1274,-5.133,-5.1362,-5.1386,-5.1406,-5.1406,-5.1406,-5.1406,-5.1406,-5.1406,-5.1405,-5.1404,-5.1402,-5.0062,-4.8764,-4.8619,-4.715,-4.5828,-4.5703,-4.5643,-4.5594,-4.5594,-4.5594,-4.5594,-4.5594,-4.5594,-4.5594,-4.5594,-4.5594,-4.5594,-4.5594,-4.5594,-4.5594,-4.5594,-4.4641,-4.3914,-4.3656,-4.3259,-4.2992,-4.2884,-4.2686,-4.2804,-4.3249,-4.3529,-4.3634,-4.3566,-4.3566,-4.3513,-4.3515,-4.3515,-4.3515,-3.9101,-3.9101,-3.9101,-3.9101,-3.9101,-3.9101,-3.9101,-3.9101,-3.9101,-3.9101,-3.9101,-3.9101,-3.9101,-3.9212,-3.9547,-4.0285,-4.1181,0.0,-4.6048,-4.6494,-4.7107,-4.8723,-4.8909,0.0,-4.8909,-4.9522,-4.993,-4.993,-5.0599,-5.1026,-5.1026,-5.1026,-5.0673,-4.9949,-4.993,-4.993,-4.993,-4.993,-4.9577,-4.8909,-4.8909,-4.9044,-4.9337,-4.9384,-4.967,-5.0147,0.0,0.0,-5.0711,-5.0711,-5.072,-5.0793,-5.0846,-5.0891,-5.0908,-5.0901,-5.0898,-5.0898,-5.0898,-5.0983,-5.112,-5.1232,-5.1291,-5.1304,-5.1385,-5.1406,-5.1406,-5.1406,-5.1406,-5.1406,-5.1406,-5.1406,-5.1405,-5.1405,-5.0114,-4.8855,-4.8721,-4.7232,-4.5901,-4.5821,-4.5715,-4.5637,-4.5631,-4.5614,-4.5594,-4.5594,-4.5594,-4.5594,-4.5594,-4.5594,-4.5594,-4.5594,-4.5594,-4.5594,-4.5594,-4.5594,-4.5504,-4.5282,-4.48,-4.4479,-4.4397,-4.4151,-4.3958,-4.3897,-4.3835,-4.3753,-4.3634,-4.3599,-4.3565,-4.3532,-4.3496,-4.3515,-3.9101,-3.9101,-3.9101,-3.9101,-3.9101,-3.9101,-3.9101,-3.9101,-3.9101,-3.9101,-3.9101,-3.9101,-3.9101,-3.9695,-4.0248,-4.0378,-4.1646,-4.3522,0.0,0.0,-4.7107,-4.8723,0.0,-4.8909,-4.8909,-4.902,-4.9076,-4.9076,-4.9206,-4.928,-4.928,-4.928,-4.9224,-4.9094,-4.9076,-4.9076,-4.9076,-4.9076,-4.902,-4.8909,-4.8909,-4.8926,-4.8995,-4.9273,-4.9573,-4.9865,0.0,-5.0391,-5.0702,-5.0702,-5.0712,-5.071,-5.0739,-5.0793,-5.0899,-5.0908,-5.0893,-5.0898,-5.0898,-5.0983,-5.1109,-5.1191,-5.1241,-5.1304,-5.1385,-5.1406,-5.1406,-5.1406,-5.1406,-5.1406,-5.1406,-5.1406,-5.1406,-5.1406,-5.0117,-4.8865,-4.8736,-4.7311,-4.6014,-4.5836,-4.5777,-4.5759,-4.5698,-4.564,-4.5594,-4.5594,-4.5594,-4.5594,-4.5594,-4.5594,-4.5594,-4.5594,-4.5594,-4.5594,-4.5594,-4.5594,-4.5577,-4.5531,-4.5243,-4.4872,-4.4411,-4.4151,-4.3958,-4.3897,-4.3899,-4.3851,-4.3771,-4.3651,-4.3582,-4.3582,-4.3532,-4.3515,-3.9101,-3.9101,-3.9101,-3.9101,-3.9101,-3.9101,-3.9101,-3.9101,-3.9101,-3.9101,-3.9101,-3.9101,-3.9101,-3.9807,-4.0694,-4.1553,-4.3076,-4.4692,-4.6271,-4.6865,-4.7571,0.0,0.0,-4.8909,-4.8909,-4.8909,-4.8909,-4.8909,-4.8909,-4.8909,-4.8909,-4.8909,-4.8909,-4.8909,-4.8909,-4.8909,-4.8909,-4.8909,-4.8909,-4.8909,-4.8909,-4.8909,-4.8909,-4.9061,-4.9302,-4.9598,0.0,-5.0147,-5.0442,-5.0624,-5.0702,-5.0702,-5.0711,-5.0748,-5.0793,-5.0863,-5.0905,-5.0898,-5.0898,-5.0952,-5.1017,-5.1106,-5.1191,-5.1263,-5.133,-5.1365,-5.1308,-5.0879,-5.1055,-5.1406,-5.1406,-5.1074,-5.0742,-5.0742,-4.9433,-4.8183,-4.8118,-4.7047,-4.6075,-4.5986,-4.5861,-4.579,-4.5761,-4.57,-4.5648,-4.5648,-4.5631,-4.5594,-4.5594,-4.5594,-4.5594,-4.5594,-4.5594,-4.5594,-4.5594,-4.5594,-4.555,-4.54,-4.5282,-4.4954,-4.4411,-4.4275,-4.4136,-4.3961,-4.3942,-4.3913,-4.3851,-4.3783,-4.3751,-4.3719,-4.36,-4.3548,-3.9101,-3.9101,-3.9101,-3.9101,-3.9101,-3.9101,-3.9101,-3.9101,-3.9101,-3.9101,-3.9101,-3.9143,-3.9272,-4.0148,-4.133,-4.2758,-4.4289,-4.5549,-4.6281,-4.7131,-4.7964,-4.8692,-4.8838,-4.8909,-4.8909,-4.8909,-4.8909,-4.8909,-4.8909,-4.8909,-4.8909,-4.8909,-4.8909,-4.8909,-4.8909,-4.8909,-4.8909,-4.8909,-4.8909,-4.8909,-4.8909,-4.8909,-4.8909,-4.8909,-4.9077,-4.9411,-4.9679,-4.9943,-5.0237,-5.0565,-5.0712,-5.0693,-5.0712,-5.0711,-5.071,-5.0838,-5.0888,-5.0874,-5.0882,-5.0909,-5.0914,-5.1056,-5.101,-5.0879,-5.0967,-5.0906,-5.0663,-5.0058,-5.0332,-5.0801,-5.0801,-5.0351,-4.9902,-4.9902,-4.8711,-4.7598,-4.7598,-4.6829,-4.6144,-4.6134,-4.5983,-4.585,-4.5832,-4.5761,-4.5719,-4.5698,-4.5657,-4.5631,-4.5631,-4.5622,-4.5594,-4.5594,-4.5594,-4.5594,-4.5594,-4.5594,-4.5513,-4.5312,-4.5232,-4.503,-4.4612,-4.4465,-4.4303,-4.4109,-4.4033,-4.3974,-4.3929,-4.3897,-4.3883,-4.382,-4.3701,-4.3651,-3.9101,-3.9101,-3.9101,-3.9101,-3.9101,-3.9101,-3.9101,-3.9101,-3.9101,-3.9101,-3.9101,-3.9254,-3.974,-4.1164,-4.2544,-4.3391,-4.4529,-4.5467,-4.5971,0.0,-4.7877,-4.8384,-4.8695,-4.8909,-4.8909,-4.8909,-4.8909,-4.8909,-4.8909,-4.8909,-4.8909,-4.8909,-4.8909,-4.8909,-4.8909,-4.8909,-4.8909,-4.8909,-4.8909,-4.8909,-4.8909,-4.8909,-4.8909,-4.8909,-4.9077,-4.9411,-4.9679,-4.9943,-5.0237,-5.0565,-5.0712,-5.0712,-5.0693,-5.0702,-5.071,-5.0784,-5.081,-5.0819,-5.0872,-5.0908,-5.0921,-5.1069,-5.0567,-4.9916,-5.0057,-4.9581,-4.8987,-4.8984,-4.9043,-4.9082,-4.9082,-4.9043,-4.8984,-4.8984,-4.8281,-4.7598,-4.7598,-4.6914,-4.6267,-4.6209,-4.613,-4.6044,-4.5914,-4.584,-4.577,-4.5704,-4.5706,-4.5693,-4.5693,-4.564,-4.5594,-4.5594,-4.5594,-4.5594,-4.5594,-4.5594,-4.5586,-4.5577,-4.5332,-4.5191,-4.514,-4.4644,-4.4402,-4.4374,-4.4121,-4.4005,-4.3989,-4.3929,-4.3915,-4.3899,-4.3818,-4.3788,-3.9036,-3.9059,-3.9101,-3.9101,-3.9101,-3.9101,-3.9101,-3.9101,-3.9101,-3.9101,-3.9363,-4.0056,-4.16,-4.258,-4.3344,-4.3942,-4.5421,-4.6302,-4.5828,-4.6984,-4.7957,-4.8135,-4.8249,-4.8402,-4.8569,-4.8587,-4.8678,-4.8873,-4.8909,-4.8909,-4.8909,-4.8909,-4.8909,-4.8909,-4.8909,-4.8909,-4.8909,-4.8909,-4.8909,-4.8909,-4.8909,-4.8909,-4.8909,-4.8909,-4.8959,-4.911,-4.9408,-4.9693,-4.9968,-5.026,-5.0504,-5.0712,-5.0712,-5.0702,-5.0701,-5.072,-5.0756,-5.0801,-5.0838,-5.0516,-5.0104,-5.0143,-4.9627,-4.9006,-4.909,-4.8972,-4.8691,-4.8222,-4.8086,-4.8223,-4.8769,-4.8496,-4.8086,-4.8086,-4.7422,-4.6797,-4.6797,-4.6523,-4.6289,-4.6267,-4.6215,-4.6138,-4.6041,-4.5929,-4.5835,-4.5769,-4.5727,-4.5703,-4.5703,-4.5687,-4.5662,-4.5657,-4.5631,-4.5594,-4.5594,-4.5594,-4.5594,-4.5594,-4.5504,-4.5362,-4.5211,-4.5019,-4.4751,-4.4416,-4.4289,-4.4181,-4.4005,-4.3974,-4.3958,-4.3958,-4.3881,-4.3867,-3.8964,-3.9021,-3.9059,-3.9031,-3.9045,-3.9059,-3.9059,-3.9087,-3.9175,-3.9454,-4.0265,-4.1417,-4.305,-4.3743,-4.4181,0.0,-4.5954,-4.6762,-4.5942,-4.7075,-4.7972,-4.785,-4.7931,-4.8073,-4.8268,-4.8345,-4.8495,-4.8713,-4.8838,-4.8909,-4.8909,-4.8909,-4.8909,-4.8909,-4.8909,-4.8909,-4.8909,-4.8909,-4.8909,-4.8909,-4.8909,-4.8909,-4.8909,-4.8909,-4.8909,-4.8926,-4.9239,-4.9558,-4.9798,-5.0012,-5.0249,-5.0554,-5.0663,-5.0712,-5.0702,-5.0702,-5.072,-5.0738,-5.0477,-5.0021,-4.9525,-4.9272,-4.8672,-4.8074,-4.8142,-4.8061,-4.7834,-4.7317,-4.7167,-4.7324,-4.793,-4.7637,-4.7187,-4.7187,-4.6738,-4.6308,-4.6308,-4.6308,-4.6308,-4.6308,-4.6265,-4.6209,-4.6142,-4.6041,-4.5947,-4.588,-4.5783,-4.5723,-4.5723,-4.5715,-4.5711,-4.5701,-4.5657,-4.5631,-4.5594,-4.5594,-4.5594,-4.5594,-4.5594,-4.5513,-4.5332,-4.5243,-4.503,-4.4663,-4.4479,-4.4303,-4.4121,-4.4033,-4.4005,-4.4005,-4.3942,-4.3929,-3.891,-3.8954,-3.8979,-3.8925,-3.8935,-3.8993,-3.8993,-3.9064,-3.9361,-4.0253,-4.1856,-4.3268,-4.3832,-4.4568,0.0,-4.5111,-4.6007,-4.6595,-4.6338,-4.7277,-4.787,-4.7533,-4.7788,-4.7992,-4.7992,-4.8249,-4.8402,-4.8402,-4.8695,-4.8891,-4.8891,-4.8891,-4.8909,-4.8909,-4.8909,-4.8909,-4.8909,-4.8909,-4.8909,-4.8909,-4.8909,-4.8909,-4.8909,-4.8909,-4.8909,-4.8926,-4.9257,-4.9558,-4.9803,-4.9803,-4.9974,-5.023,-5.0565,-5.0712,-5.0712,-5.0693,-5.0693,-5.0558,-4.9777,-4.9488,-4.9342,-4.8546,-4.7739,-4.7112,-4.7172,-4.6688,-4.6115,-4.6171,-4.6242,-4.6308,-4.6308,-4.6308,-4.6308,-4.6308,-4.6308,-4.6308,-4.6308,-4.6308,-4.6308,-4.6308,-4.6308,-4.6288,-4.6209,-4.6145,-4.6072,-4.6017,-4.5887,-4.5807,-4.5807,-4.5731,-4.5692,-4.5709,-4.5701,-4.5665,-4.5614,-4.5594,-4.5594,-4.5594,-4.5594,-4.5594,-4.5594,-4.5342,-4.5201,-4.5201,-4.4688,-4.4416,-4.4397,-4.4136,-4.4005,-4.4005,-4.4005,-4.4005,-3.8837,-3.8881,-3.8921,-3.8892,-3.8906,-3.8921,-3.8921,-3.9257,-4.006,-4.1666,-4.2596,-4.3539,-4.4985,-4.5144,0.0,-4.5552,-4.6059,-4.6308,-4.6,-4.6725,-4.7254,-4.716,-4.7249,-4.7385,-4.7639,-4.7726,-4.7872,-4.8093,-4.821,-4.8267,-4.8267,-4.8458,-4.855,-4.855,-4.8785,-4.8909,-4.8909,-4.8909,-4.8909,-4.8909,-4.8909,-4.8909,-4.8909,-4.8909,-4.8909,-4.8909,-4.901,-4.9222,-4.9529,-4.9721,-4.9974,-5.0206,-5.0306,-5.0493,-5.0635,-5.001,-4.9779,-4.9663,-4.8817,-4.8142,-4.7638,-4.7377,-4.6764,-4.6148,-4.626,-4.6122,-4.5983,-4.614,-4.621,-4.624,-4.6289,-4.6308,-4.6308,-4.6308,-4.6308,-4.6308,-4.6308,-4.6308,-4.6308,-4.6308,-4.6308,-4.6288,-4.6209,-4.6173,-4.6134,-4.6027,-4.5964,-4.5899,-4.58,-4.5776,-4.5765,-4.577,-4.5727,-4.5687,-4.5665,-4.5665,-4.5648,-4.5594,-4.5594,-4.5594,-4.5594,-4.5522,-4.54,-4.5201,-4.5052,-4.4788,-4.4397,-4.4318,-4.4177,-4.4005,-4.4005,-4.4005,-3.8765,-3.8807,-3.8848,-3.8822,-3.8837,-3.8862,-3.8928,-3.9974,-4.1311,-4.2595,-4.3758,-4.4898,-4.6056,-4.5781,0.0,-4.6186,-4.6175,-4.6155,-4.6253,-4.6676,-4.6957,-4.6865,-4.6952,-4.7048,-4.7143,-4.7363,-4.7536,-4.7645,-4.7752,-4.7793,-4.7692,-4.7838,-4.8,-4.8212,-4.8458,-4.8678,-4.8856,-4.8891,-4.8909,-4.8909,-4.8909,-4.8909,-4.8909,-4.8909,-4.8909,-4.8909,-4.9044,-4.9144,-4.9222,-4.9637,-4.991,-5.0024,-4.9816,-4.9912,-5.0067,-4.9202,-4.8875,-4.8759,-4.7932,-4.7316,-4.6833,-4.6487,-4.6067,-4.5727,-4.5807,-4.5848,-4.5908,-4.6076,-4.6145,-4.6186,-4.6288,-4.6308,-4.6308,-4.6308,-4.6308,-4.6308,-4.6308,-4.6308,-4.6308,-4.6308,-4.6308,-4.6289,-4.6242,-4.6212,-4.6167,-4.6091,-4.6036,-4.5958,-4.5821,-4.5805,-4.5803,-4.5807,-4.5765,-4.5735,-4.5687,-4.5706,-4.569,-4.564,-4.564,-4.5631,-4.5594,-4.5594,-4.5522,-4.5352,-4.5253,-4.5041,-4.4726,-4.4506,-4.4318,-4.4166,-4.4048,-4.4005,-3.8487,-3.8584,-3.8666,-3.8612,-3.8695,-3.8805,-3.8921,-4.0854,-4.2721,-4.3069,-4.5016,-4.6731,-4.6999,-4.6315,-4.5989,-4.6766,-4.6221,-4.5985,-4.6761,-4.6898,-4.6842,-4.659,-4.6795,-4.6842,-4.659,-4.7075,-4.7298,-4.7039,-4.7291,-4.7381,-4.7128,-4.715,-4.7367,-4.784,-4.7999,-4.8326,-4.8787,-4.8839,-4.8855,-4.8855,-4.8891,-4.8891,-4.8855,-4.8891,-4.8909,-4.8926,-4.9225,-4.9155,-4.883,-4.9378,-4.9592,-4.9527,-4.9034,-4.9028,-4.9183,-4.8317,-4.799,-4.7875,-4.7067,-4.6778,-4.6644,-4.5864,-4.564,-4.5693,-4.5701,-4.5737,-4.582,-4.5944,-4.6034,-4.6115,-4.6247,-4.6289,-4.6308,-4.6308,-4.6308,-4.6308,-4.6308,-4.6308,-4.6308,-4.6308,-4.6308,-4.6308,-4.6308,-4.6243,-4.6207,-4.6204,-4.6084,-4.5964,-4.5822,-4.5814,-4.5793,-4.5795,-4.5795,-4.5773,-4.5715,-4.5708,-4.5711,-4.5709,-4.5709,-4.5665,-4.5603,-4.5594,-4.5594,-4.5594,-4.5352,-4.5222,-4.5201,-4.4714,-4.4452,-4.4383,-4.4151,-4.4017,-3.6817,-3.729,-3.7783,-3.7749,-3.8245,-3.8664,-3.8434,-4.0247,-4.2286,-4.3287,-4.5028,-4.6592,-4.7284,-4.6189,-4.5364,-4.5949,-4.5574,-4.5294,-4.568,-4.6106,-4.6357,-4.6284,-4.6332,-4.6357,-4.6284,-4.6405,-4.6453,-4.6405,-4.6459,-4.6465,-4.6418,-4.6642,-4.7013,-4.7491,-4.78,-4.8174,-4.8642,-4.866,-4.866,-4.8678,-4.8768,-4.8768,-4.866,-4.882,-4.8909,-4.8909,-4.8995,-4.8606,-4.7978,-4.8091,-4.8022,-4.7832,-4.7707,-4.7968,-4.8279,-4.7471,-4.7154,-4.7048,-4.6182,-4.5874,-4.5845,-4.5671,-4.5622,-4.5631,-4.5693,-4.5714,-4.5734,-4.582,-4.5935,-4.6034,-4.6115,-4.6223,-4.6308,-4.6308,-4.6308,-4.6308,-4.6308,-4.6308,-4.6308,-4.6308,-4.6308,-4.6308,-4.6308,-4.6289,-4.6265,-4.6207,-4.6084,-4.5991,-4.5964,-4.5874,-4.58,-4.5793,-4.5793,-4.5798,-4.5781,-4.5773,-4.5758,-4.5692,-4.5692,-4.5692,-4.5676,-4.5629,-4.5594,-4.5594,-4.5531,-4.541,-4.5201,-4.5085,-4.4812,-4.4402,-4.4346,-4.4192,-3.6303,-3.6905,-3.7584,-3.7988,-3.8395,-3.8593,-3.8251,-3.9779,-4.1506,-4.2304,-4.4324,-4.6143,-4.6761,-4.5847,-4.5099,-4.5398,-4.4918,-4.4671,-4.5182,-4.5492,-4.5758,-4.5985,-4.6112,-4.6161,-4.6013,-4.6137,-4.6137,-4.6013,-4.6013,-4.5938,-4.5829,-4.597,-4.6321,-4.6804,-4.7237,-4.77,-4.8212,-4.8476,-4.8605,-4.8605,-4.866,-4.8475,-4.8033,-4.8212,-4.8282,-4.8245,-4.7907,-4.7516,-4.7125,-4.7125,-4.7115,-4.7078,-4.6783,-4.6957,-4.7251,-4.653,-4.6278,-4.6201,-4.5768,-4.5594,-4.5594,-4.5594,-4.5594,-4.5614,-4.564,-4.5648,-4.5679,-4.5776,-4.5869,-4.5963,-4.6064,-4.6195,-4.6308,-4.6308,-4.6308,-4.6308,-4.6308,-4.6308,-4.6308,-4.6308,-4.6308,-4.6308,-4.6308,-4.6308,-4.6288,-4.6207,-4.6115,-4.6036,-4.6007,-4.5873,-4.5807,-4.5807,-4.5807,-4.58,-4.5798,-4.5798,-4.5795,-4.5758,-4.5758,-4.5723,-4.5708,-4.566,-4.5646,-4.5648,-4.5622,-4.5522,-4.54,-4.5253,-4.5063,-4.4788,-4.465,-4.4457,-3.5848,-3.656,-3.7492,-3.8285,-3.8597,-3.8596,-3.8203,-3.931,-4.0581,-4.1078,-4.3283,-4.5278,-4.5793,-4.5231,-4.4703,-4.47,-4.419,-4.3985,-4.4541,-4.471,-4.4928,-4.5308,-4.5658,-4.5795,-4.5569,-4.5868,-4.5963,-4.5735,-4.5727,-4.5624,-4.5423,-4.5397,-4.5641,-4.6186,-4.6624,-4.715,-4.7754,-4.8065,-4.8255,-4.8347,-4.82,-4.7794,-4.7166,-4.7143,-4.7215,-4.7306,-4.6741,-4.6385,-4.6255,-4.629,-4.6368,-4.6421,-4.5908,-4.5953,-4.6207,-4.5716,-4.5568,-4.5594,-4.5594,-4.5594,-4.5594,-4.5594,-4.5594,-4.5594,-4.5594,-4.5594,-4.561,-4.5725,-4.582,-4.5906,-4.6031,-4.6158,-4.6264,-4.6287,-4.6308,-4.6308,-4.6308,-4.6308,-4.6308,-4.6308,-4.6308,-4.6308,-4.6308,-4.6308,-4.6288,-4.6234,-4.6158,-4.6098,-4.6046,-4.5922,-4.5822,-4.5822,-4.5801,-4.5807,-4.5807,-4.5807,-4.5793,-4.5803,-4.5795,-4.5781,-4.5731,-4.5723,-4.5719,-4.5726,-4.5648,-4.5622,-4.5622,-4.5371,-4.5243,-4.5201,-4.4985,-4.4726,-3.4027,-3.5233,-3.6652,-3.7456,-3.8175,-3.8596,-3.8203,-3.8772,-3.9716,0.0,-4.2221,-4.3541,-4.4476,-4.3985,-4.3367,-4.3138,-4.3199,-4.3155,-4.2799,-4.3159,-4.3479,-4.3533,-4.4128,-4.4551,-4.45,-4.5105,-4.5485,-4.5476,-4.5432,-4.545,-4.5397,-4.5397,-4.5641,-4.6186,-4.6266,-4.673,-4.7611,-4.7003,-4.6896,-4.7279,-4.6581,-4.6268,-4.6265,-4.551,-4.5636,-4.6387,-4.6343,-4.5933,-4.5284,-4.5403,-4.5173,-4.4735,-4.465,-4.4934,-4.5364,-4.527,-4.541,-4.5594,-4.5594,-4.5594,-4.5594,-4.5594,-4.5594,-4.5594,-4.5594,-4.5594,-4.5603,-4.561,-4.573,-4.584,-4.5901,-4.6027,-4.6154,-4.6265,-4.6307,-4.6307,-4.6308,-4.6308,-4.6308,-4.6308,-4.6308,-4.6308,-4.6308,-4.6308,-4.6308,-4.6289,-4.6237,-4.6173,-4.6167,-4.6056,-4.5975,-4.5975,-4.588,-4.5807,-4.5807,-4.5807,-4.58,-4.58,-4.58,-4.5793,-4.5793,-4.5795,-4.5792,-4.5792,-4.5714,-4.5693,-4.5693,-4.5586,-4.5429,-4.5201,-4.515,-4.5007,-3.4233,-3.493,-3.5819,-3.7165,-3.7768,-3.8108,-3.8373,-3.8525,-3.8848,-3.9787,-4.0255,-4.1236,-4.3633,-4.3602,-4.3005,-4.2426,-4.2455,-4.2437,-4.2213,-4.2383,-4.2689,-4.3138,-4.3483,-4.3672,-4.3672,-4.4363,-4.4785,-4.4785,-4.5156,-4.5397,-4.5397,-4.5397,-4.5321,-4.5152,-4.5373,-4.5628,-4.586,-4.5823,-4.5998,-4.6434,-4.5387,-4.504,-4.5276,-4.4448,-4.4574,-4.5416,-4.5058,-4.4704,-4.4387,-4.4469,-4.4355,-4.4136,-4.4332,-4.4637,-4.4977,-4.514,-4.5362,-4.5594,-4.5594,-4.5594,-4.5594,-4.5594,-4.5594,-4.5594,-4.5594,-4.5594,-4.5594,-4.5594,-4.5696,-4.5822,-4.5869,-4.601,-4.6133,-4.6276,-4.6302,-4.6305,-4.6307,-4.6308,-4.6308,-4.6308,-4.6308,-4.6308,-4.6308,-4.6308,-4.6308,-4.6308,-4.6241,-4.6202,-4.6202,-4.6115,-4.6046,-4.6007,-4.5953,-4.5873,-4.5814,-4.5807,-4.5807,-4.5807,-4.5807,-4.5807,-4.5807,-4.5812,-4.5798,-4.5798,-4.5723,-4.5706,-4.5701,-4.5665,-4.5577,-4.5419,-4.5419,-4.5292,-3.4373,-3.4713,-3.518,-3.6483,-3.7121,-3.7579,-3.8187,0.0,-3.8421,0.0,-3.9031,-3.9611,-4.243,-4.269,-4.2323,-4.1942,-4.1795,-4.1723,-4.1723,-4.1723,-4.1947,-4.2534,-4.2775,-4.2896,-4.2896,-4.3586,-4.4018,-4.4018,-4.4527,-4.4854,-4.4854,-4.4854,-4.4596,-4.4035,-4.4366,-4.4484,-4.4343,-4.4674,-4.4917,-4.5132,-4.4231,-4.3997,-4.4378,-4.3754,-4.3844,-4.4446,-4.3961,-4.3736,-4.3753,-4.3835,-4.3883,-4.3897,-4.4181,-4.4443,-4.4701,-4.4977,-4.5282,-4.5504,-4.5577,-4.5594,-4.5594,-4.5594,-4.5594,-4.5594,-4.5594,-4.5594,-4.5594,-4.5594,-4.5668,-4.5759,-4.5846,-4.5954,-4.6073,-4.6212,-4.6272,-4.6301,-4.6306,-4.6308,-4.6308,-4.6308,-4.6308,-4.6308,-4.6308,-4.6308,-4.6308,-4.6308,-4.6265,-4.6234,-4.6234,-4.6162,-4.6098,-4.6032,-4.6017,-4.5953,-4.5821,-4.5807,-4.5807,-4.5807,-4.5807,-4.5807,-4.5807,-4.5807,-4.5807,-4.5807,-4.5749,-4.5735,-4.5734,-4.5706,-4.5662,-4.5629,-4.5629,-4.5522,-3.356,-3.4182,-3.4838,-3.4911,-3.6082,-3.7215,0.0,0.0,-3.8716,-3.9593,-3.9452,-3.9462,-4.0402,-4.0522,-4.0692,-4.1415,-4.121,-4.0963,-4.0963,-4.0963,-4.0981,-4.1015,-4.1654,-4.2068,-4.2068,-4.2792,-4.3258,-4.3258,-4.3293,-4.331,-4.331,-4.331,-4.3293,-4.3258,-4.3283,-4.3485,-4.3921,-4.3636,-4.336,-4.3047,-4.2992,-4.3178,-4.3552,-4.3533,-4.3533,-4.357,-4.36,-4.3599,-4.3615,-4.3753,-4.3804,-4.382,-4.3881,-4.4094,-4.4374,-4.4701,-4.4996,-4.5253,-4.5513,-4.5594,-4.5594,-4.5594,-4.5594,-4.5594,-4.5594,-4.5594,-4.5594,-4.5594,-4.5622,-4.5646,-4.5778,-4.5859,-4.5945,-4.6073,-4.621,-4.6296,-4.6306,-4.6308,-4.6308,-4.6308,-4.6308,-4.6308,-4.6308,-4.6308,-4.6308,-4.6308,-4.6308,-4.6289,-4.6289,-4.6239,-4.6162,-4.6102,-4.6041,-4.5953,-4.5821,-4.5807,-4.5807,-4.5807,-4.5807,-4.5807,-4.5807,-4.5807,-4.5807,-4.5807,-4.58,-4.5778,-4.5781,-4.5723,-4.57,-4.57,-4.57,-4.5695,-3.3495,-3.3738,-3.4095,-3.4663,-3.5224,-3.5921,-3.696,-3.7432,-3.7901,-3.8723,-3.8787,-3.894,-3.974,-4.0358,-4.0742,-4.0727,-4.1024,-4.1192,-4.0942,-4.0912,-4.0912,-4.0912,-4.1136,-4.1291,-4.1291,-4.1981,-4.243,-4.243,-4.2913,-4.3189,-4.3189,-4.3189,-4.2965,-4.2447,-4.243,-4.2413,-4.2359,-4.2238,-4.2403,-4.29,-4.2577,-4.2808,-4.3515,-4.3515,-4.3515,-4.3515,-4.3532,-4.3549,-4.3531,-4.3634,-4.3667,-4.3684,-4.3786,-4.4036,-4.4332,-4.4624,-4.4812,-4.5007,-4.5438,-4.5495,-4.5362,-4.5531,-4.5594,-4.5594,-4.5594,-4.5594,-4.5594,-4.5594,-4.5594,-4.5637,-4.5764,-4.5822,-4.5877,-4.6061,-4.6201,-4.6294,-4.6299,-4.6305,-4.6308,-4.6308,-4.6308,-4.6308,-4.6308,-4.6308,-4.6308,-4.6308,-4.6308,-4.6308,-4.6308,-4.6288,-4.6239,-4.6165,-4.6105,-4.6036,-4.5947,-4.5861,-4.5807,-4.5807,-4.5807,-4.5807,-4.5807,-4.5807,-4.5807,-4.5807,-4.5807,-4.5805,-4.5807,-4.5773,-4.5731,-4.5708,-4.5708,-4.57,-3.3452,-3.3466,-3.3608,-3.4189,-3.4517,-3.5008,-3.6066,-3.6552,-3.6986,-3.7804,-3.7965,-3.8237,-3.9039,-3.9931,-4.048,-4.0291,-4.0471,-4.0625,-4.0603,-4.0491,-4.05,-4.0806,-4.084,-4.0864,-4.0912,-4.1343,-4.1636,-4.1636,-4.2137,0.0,-4.243,-4.243,-4.2189,-4.1654,-4.1636,-4.152,-4.1305,-4.1305,-4.1774,-4.2653,-4.2358,-4.2674,-4.3515,-4.3515,-4.3515,-4.3515,-4.3515,-4.3515,-4.3496,-4.3566,-4.3565,-4.3583,-4.3703,-4.3878,-4.4099,-4.443,-4.4572,-4.4688,-4.514,-4.5253,-4.5232,-4.541,-4.5522,-4.5594,-4.5594,-4.5594,-4.5594,-4.5594,-4.5594,-4.562,-4.5715,-4.5764,-4.5854,-4.6041,-4.6162,-4.6255,-4.6287,-4.63,-4.6305,-4.6305,-4.6307,-4.6308,-4.6308,-4.6308,-4.6308,-4.6308,-4.6308,-4.6308,-4.6308,-4.6308,-4.6268,-4.6207,-4.6158,-4.6109,-4.6041,-4.5933,-4.5874,-4.5874,-4.5815,-4.5807,-4.5807,-4.5807,-4.5807,-4.5807,-4.5807,-4.5793,-4.581,-4.581,-4.5776,-4.5727,-4.5727,-4.5719,0.0,0.0,0.0,-3.3393,-3.3991,-3.4555,-3.4591,-3.5248,-3.6105,-3.689,-3.7116,-3.74,-3.82,-3.9002,-3.9652,-4.0076,-3.9464,-3.9151,-3.9877,-3.9612,-3.9686,-4.0518,-4.0628,-4.0676,-4.0802,-4.086,-4.0877,-4.086,-4.0894,-4.0912,-4.0912,-4.0912,-4.0912,-4.0912,-4.0912,-4.0912,-4.0912,-4.0912,-4.1346,-4.2177,-4.2177,-4.2655,-4.3479,-4.3479,-4.3497,-4.3515,-4.3515,-4.3515,-4.3515,-4.3515,-4.3515,-4.3515,-4.3565,-4.3599,-4.3649,-4.406,-4.4217,-4.428,-4.4561,-4.4839,-4.5104,-4.5125,-4.5304,-4.5528,-4.5556,-4.5556,-4.5575,-4.5594,-4.5594,-4.5594,-4.5594,-4.5708,-4.5854,-4.6037,-4.6098,-4.6138,-4.6271,-4.6293,-4.6301,-4.6301,-4.6301,-4.6303,-4.6306,-4.6307,-4.6307,-4.6308,-4.6308,-4.6308,-4.6308,-4.6308,-4.6287,-4.6207,-4.6204,-4.6167,-4.6109,-4.6046,-4.6002,-4.6002,-4.5886,-4.5807,-4.5807,-4.5807,-4.5807,-4.5807,-4.5807,-4.5807,-4.5807,-4.5807,-4.5807,-4.5807,-4.5807,-4.5805,-3.3393,0.0,0.0,0.0,0.0,0.0,-3.448,-3.4785,-3.5181,-3.5996,-3.6175,-3.6427,-3.7241,-3.7568,-3.7952,-3.8648,-3.9072,-3.929,-3.9229,-3.8854,-3.8698,-3.895,-3.8967,-3.8996,-3.9084,-3.9623,-3.9973,0.0,-4.0584,-4.0912,-4.0912,-4.0912,-4.0912,-4.0912,-4.0912,-4.0912,-4.0912,-4.0912,-4.1163,-4.1692,-4.1692,-4.2177,-4.3068,-4.3068,-4.3214,-4.3515,-4.3515,-4.3515,-4.3515,-4.3515,-4.3515,-4.3496,-4.3513,-4.3548,-4.3649,-4.3927,-4.3639,-4.3144,-4.3538,-4.3291,-4.2875,-4.3202,-4.3397,-4.3647,-4.4416,-4.4662,-4.4778,-4.5421,-4.5594,-4.5594,-4.5594,-4.5708,-4.5808,-4.5866,-4.5988,-4.6105,-4.6144,-4.6225,-4.6309,-4.6295,-4.63,-4.6302,-4.6303,-4.6303,-4.6305,-4.6307,-4.6307,-4.6308,-4.6308,-4.6308,-4.6289,-4.6268,-4.6235,-4.6199,-4.6167,-4.6112,-4.6059,-4.6007,-4.5969,-4.5892,-4.5807,-4.5807,-4.5807,-4.5807,-4.5807,-4.5807,-4.5807,-4.5807,-4.5807,-4.5807,-4.5807,-4.58,-3.3393,-3.3393,-3.3393,-3.3393,0.0,0.0,-3.3991,-3.4099,-3.4335,-3.5116,-3.5297,-3.5548,-3.6345,-3.649,-3.6653,-3.7123,-3.7613,-3.8051,-3.8468,-3.8023,-3.7808,-3.8161,-3.8212,-3.8241,-3.8345,-3.878,-3.9077,-3.9112,-3.9542,-3.9937,-4.0246,-4.0621,-4.0793,-4.0728,-4.0793,-4.0817,-4.0817,-4.0864,-4.1094,-4.1494,-4.1494,-4.199,-4.2901,-4.252,-4.2596,-4.2983,-4.2635,-4.2506,-4.2506,-4.2506,-4.269,-4.2965,-4.2635,-4.2522,-4.2572,-4.2728,-4.2467,-4.2065,-4.2327,-4.2151,-4.1884,-4.2291,-4.2548,-4.2804,-4.3564,-4.3797,-4.3912,-4.4412,-4.4806,-4.5152,-4.5518,-4.5651,-4.5727,-4.5793,-4.5891,-4.5993,-4.6087,-4.615,-4.6223,-4.6285,-4.6291,-4.6295,-4.6297,-4.6299,-4.6301,-4.6305,-4.6305,-4.6306,-4.6308,-4.6308,-4.6308,-4.6308,-4.6266,-4.6241,-4.6241,-4.6171,-4.6125,-4.6084,-4.6032,-4.595,-4.5899,-4.5834,-4.5807,-4.5807,-4.5807,-4.5807,-4.5807,-4.5807,-4.5807,-4.5807,-4.5807,-4.5807,-3.3393,-3.3393,-3.3393,-3.3393,-3.3393,0.0,-3.3393,-3.3393,-3.361,-3.4317,-3.448,-3.47,-3.5514,-3.5659,-3.5695,-3.5786,-3.5669,-3.6089,-3.7547,-3.7123,-3.6937,-3.7715,-3.7823,-3.7887,-3.8002,-3.8111,-3.8162,-3.8162,-3.8253,-3.8595,-3.9245,-4.0007,-4.0419,-4.039,-4.0487,-4.0552,-4.0552,-4.0655,-4.0868,-4.1138,-4.116,-4.1619,-4.2442,-4.172,-4.1651,-4.207,-4.139,-4.1095,-4.1095,-4.1003,-4.1425,-4.2103,-4.137,-4.1095,-4.1095,-4.1095,-4.1071,-4.1059,-4.1059,-4.1193,-4.1431,-4.1745,-4.2049,-4.2362,-4.2771,-4.2926,-4.2962,-4.3066,-4.3624,-4.4374,-4.5229,-4.546,-4.5522,-4.573,-4.5793,-4.5854,-4.602,-4.6087,-4.6138,-4.6247,-4.6298,-4.6303,-4.6291,-4.6291,-4.6294,-4.63,-4.6301,-4.6302,-4.6306,-4.6306,-4.6307,-4.6308,-4.6308,-4.6308,-4.6308,-4.6242,-4.6207,-4.6202,-4.6087,-4.6027,-4.6002,-4.5893,-4.5821,-4.5807,-4.5807,-4.5807,-4.5807,-4.5807,-4.5807,-4.5807,-4.5807,-4.5807,-3.3393,-3.3393,-3.3393,-3.3393,-3.3393,0.0,-3.3393,-3.3393,-3.3447,-3.361,-3.3628,-3.3882,-3.4682,-3.4826,-3.5044,-3.5695,-3.5242,-3.5125,-3.6019,-3.5985,-3.591,-3.6068,-3.6084,-3.613,-3.6259,-3.6882,-3.7285,-3.7319,-3.7923,-3.8373,-3.851,-3.8687,-3.9029,-3.9604,-3.9645,-3.9645,-3.9645,-3.9669,-3.9431,-3.8923,-3.8963,-3.9308,-3.9844,-4.0052,-4.0418,-4.0851,-4.1034,-4.1095,-4.104,-4.0396,-4.0616,-4.1315,-4.115,-4.1095,-4.1095,-4.1095,-4.0689,-4.0152,-4.0152,-3.982,-3.939,-3.9624,-3.9964,-4.0449,-4.1369,-4.1807,-4.214,-4.2885,-4.3201,-4.3528,-4.4335,-4.4547,-4.4737,-4.5464,-4.5712,-4.5801,-4.5854,-4.5998,-4.6105,-4.6138,-4.6238,-4.6302,-4.6303,-4.6303,-4.6306,-4.6294,-4.6295,-4.6297,-4.6302,-4.6303,-4.6305,-4.6307,-4.6307,-4.6308,-4.6308,-4.6289,-4.6265,-4.6204,-4.6186,-4.6112,-4.6007,-4.598,-4.5917,-4.5807,-4.5807,-4.5807,-4.5807,-4.5807,-4.5807,-4.5807,-4.5807,-4.5807,-3.3382,-3.3241,-3.3241,-3.3241,-3.3304,0.0,0.0,-3.3382,-3.3396,-3.3352,-3.3352,-3.3445,-3.3797,-3.3918,-3.4093,-3.4491,-3.4247,-3.4125,-3.4493,-3.483,-3.5064,-3.5064,-3.538,-3.5622,-3.5689,-3.6084,-3.6327,-3.6339,-3.7161,-3.7626,-3.7557,-3.7961,-3.8336,-3.8639,-3.871,-3.8758,-3.8758,-3.8805,-3.8681,-3.8305,-3.8317,-3.8577,-3.901,-3.8901,-3.9082,-3.9517,-3.9563,-3.9604,-3.9584,-3.9397,-3.9551,-3.9884,-3.9884,-3.9884,-3.9884,-3.9884,-3.9662,-3.9294,-3.9294,-3.9068,-3.8792,-3.9022,-3.9249,-3.957,-4.0397,-4.0863,-4.1278,-4.2168,-4.2434,-4.2643,-4.3489,-4.3989,-4.4412,-4.4855,-4.5335,-4.5731,-4.5786,-4.5879,-4.5974,-4.6084,-4.6147,-4.6216,-4.6298,-4.63,-4.6302,-4.6306,-4.6306,-4.629,-4.6297,-4.6297,-4.63,-4.6305,-4.6305,-4.6305,-4.6307,-4.6308,-4.6289,-4.6247,-4.6215,-4.6165,-4.6102,-4.606,-4.5988,-4.5892,-4.5822,-4.5807,-4.5807,-4.5807,-4.5807,-4.5807,-4.5807,-4.5807,-3.3566,-3.3335,-3.3299,-3.3137,-3.3165,-3.3262,0.0,0.0,0.0,-3.3277,0.0,0.0,0.0,0.0,0.0,-3.3079,0.0,0.0,0.0,-3.3554,0.0,-3.4269,-3.4827,-3.5228,-3.5363,-3.5515,-3.56,-3.56,-3.6305,-3.6684,-3.6575,-3.7244,-3.7634,-3.7686,-3.7804,-3.7857,-3.7857,-3.7967,-3.7945,-3.7769,-3.7809,-3.8007,-3.83,-3.7861,-3.783,-3.8133,-3.8078,-3.805,-3.8083,-3.8515,-3.8707,-3.8707,-3.8707,-3.8707,-3.8707,-3.8707,-3.8707,-3.8707,-3.8707,-3.8707,-3.8735,-3.8961,-3.9085,-3.9276,-3.9819,-4.0205,-4.0628,-4.127,-4.1506,-4.1742,-4.2624,-4.3335,-4.3893,-4.422,-4.4836,-4.5417,-4.5696,-4.5786,-4.5854,-4.6002,-4.608,-4.6141,-4.6275,-4.63,-4.63,-4.63,-4.63,-4.6303,-4.6309,-4.6291,-4.6294,-4.63,-4.6301,-4.6301,-4.6301,-4.6305,-4.6306,-4.6306,-4.6246,-4.6212,-4.6206,-4.6137,-4.6068,-4.6013,-4.5898,-4.5848,-4.5848,-4.5821,-4.5807,-4.5807,-4.5807,-4.5807,-3.4377,0.0,0.0,0.0,-3.3101,-3.3117,-3.3117,0.0,-3.3132,-3.3117,0.0,0.0,0.0,0.0,0.0,0.0,0.0,0.0,-3.1203,-3.1822,-3.266,-3.3419,-3.3609,-3.3914,-3.4556,-3.5211,-3.56,-3.56,-3.5707,-3.5757,-3.5735,-3.5825,-3.6197,-3.6914,-3.6931,-3.6954,-3.6954,-3.6954,-3.6598,-3.5898,-3.6027,-3.6117,-3.6166,-3.6565,-3.6763,-3.6864,-3.7596,-3.7929,-3.7963,-3.8481,-3.8707,-3.8707,-3.8707,-3.8707,-3.8707,-3.8707,-3.8707,-3.8707,-3.8707,-3.8707,-3.8707,-3.8735,-3.9078,-3.9505,-3.9827,-4.0148,-4.0443,-4.0589,-4.0644,-4.0844,-4.1723,-4.2019,-4.247,-4.3951,-4.4374,-4.4652,-4.5447,-4.5723,-4.5814,-4.5828,-4.5974,-4.6141,-4.6275,-4.63,-4.63,-4.63,-4.63,-4.6302,-4.6302,-4.6302,-4.6305,-4.6294,-4.6294,-4.6296,-4.6301,-4.6302,-4.6302,-4.6302,-4.6287,-4.6269,-4.6195,-4.6142,-4.6095,-4.6087,-4.6018,-4.598,-4.598,-4.5867,-4.5807,-4.5807,-4.5807,-4.5807,0.0,0.0,0.0,0.0,0.0,0.0,-3.2635,0.0,-3.2436,0.0,0.0,0.0,0.0,0.0,0.0,0.0,-3.2106,0.0,0.0,0.0,-3.1715,-3.2559,0.0,0.0,-3.3829,-3.415,-3.4506,-3.4928,-3.4962,-3.5165,-3.5583,-3.56,-3.5752,-3.6096,-3.6096,-3.6096,-3.6096,-3.6096,-3.5943,-3.56,-3.5667,-3.5689,-3.5689,-3.6002,-3.6152,-3.6178,-3.6845,-3.7285,-3.7524,-3.8032,-3.8364,-3.859,-3.8658,-3.8707,-3.8707,-3.8707,-3.8707,-3.8707,-3.8707,-3.8707,-3.8707,-3.8707,-3.896,-3.9326,-3.9585,-3.9867,-4.0148,-4.0325,-4.0405,-4.0545,-4.0941,-4.1391,-4.2052,-4.3308,-4.3951,-4.4528,-4.5421,-4.5635,-4.5715,-4.5786,-4.586,-4.5988,-4.6144,-4.6245,-4.63,-4.63,-4.63,-4.63,-4.63,-4.63,-4.6302,-4.6305,-4.6306,-4.6308,-4.6291,-4.6295,-4.6297,-4.6297,-4.6302,-4.6287,-4.6269,-4.6196,-4.6154,-4.6167,-4.6089,-4.606,-4.6067,-4.6008,-4.5969,-4.5964,-4.5841,-4.5807,-3.542,0.0,0.0,0.0,0.0,0.0,0.0,0.0,0.0,0.0,0.0,0.0,0.0,0.0,0.0,0.0,0.0,-3.1572,0.0,-3.0923,0.0,0.0,0.0,0.0,0.0,-3.3288,-3.3626,-3.415,-3.4201,-3.4523,-3.5267,-3.5295,-3.538,-3.5583,-3.56,-3.56,-3.56,-3.56,-3.56,-3.56,-3.56,-3.56,-3.56,-3.5689,-3.5751,-3.5795,-3.6308,-3.6764,-3.7173,-3.7667,-3.8115,-3.851,-3.8609,-3.8658,-3.8707,-3.8707,-3.8707,-3.8707,-3.8707,-3.8707,-3.8707,-3.8707,-3.8881,-3.9142,-3.9337,-3.9621,-3.9931,-4.0139,-4.0289,-4.0379,-4.0449,-4.0907,-4.1569,-4.2503,-4.3338,-4.4173,-4.5066,-4.5441,-4.5629,-4.5739,-4.5778,-4.5854,-4.5988,-4.6138,-4.6269,-4.6298,-4.63,-4.63,-4.63,-4.63,-4.63,-4.63,-4.63,-4.63,-4.63,-4.6306,-4.6291,-4.6293,-4.6297,-4.6301,-4.6301,-4.625,-4.6228,-4.6226,-4.616,-4.6131,-4.6134,-4.6115,-4.6105,-4.6098,-4.5931,-4.5841,0.0,0.0,0.0,-3.4088,0.0,0.0,0.0,0.0,-3.2557,0.0,0.0,0.0,0.0,0.0,0.0,0.0,0.0,0.0,0.0,0.0,0.0,0.0,0.0,0.0,0.0,-3.2983,-3.3423,0.0,-3.344,-3.3761,-3.4489,-3.4523,-3.4861,-3.5583,-3.56,-3.56,-3.56,-3.56,-3.56,-3.56,-3.56,-3.56,-3.56,-3.56,-3.56,-3.5644,-3.6182,-3.6623,-3.7039,-3.7596,-3.8082,-3.851,-3.8491,-3.8593,-3.8707,-3.8707,-3.8707,-3.8707,-3.8707,-3.8707,-3.8707,-3.8707,-3.8881,-3.9101,-3.9115,-3.9471,-3.9895,-3.991,-4.0101,-4.0316,-4.0398,-4.0426,-4.0654,-4.153,-4.2411,-4.3274,-4.4154,-4.4998,-4.5594,-4.5603,-4.5704,-4.5807,-4.5821,-4.5969,-4.6147,-4.6275,-4.63,-4.63,-4.63,-4.63,-4.63,-4.63,-4.63,-4.63,-4.63,-4.63,-4.6305,-4.6293,-4.6293,-4.6296,-4.6301,-4.6302,-4.6302,-4.6302,-4.6229,-4.62,-4.6194,-4.6133,-4.6096,-4.6098,-4.6027,-4.5997,0.0,0.0,-3.4699,-3.4696,0.0,0.0,0.0,0.0,0.0,0.0,0.0,0.0,0.0,0.0,0.0,0.0,0.0,0.0,0.0,0.0,0.0,0.0,0.0,0.0,0.0,0.0,0.0,0.0,-3.2662,0.0,-3.3728,-3.3778,-3.4117,-3.4844,-3.4878,-3.5115,-3.56,-3.56,-3.56,-3.56,-3.56,-3.56,-3.56,-3.56,-3.56,-3.5622,-3.5805,-3.6118,-3.656,-3.7076,-3.7542,-3.8,-3.83,-3.8496,-3.8575,-3.8658,-3.8707,-3.8707,-3.8707,-3.8707,-3.8707,-3.8707,-3.8765,-3.8866,-3.9045,-3.9219,-3.9433,-3.9799,-3.9969,-4.009,-4.028,-4.0325,-4.0553,-4.1487,-4.2321,-4.3183,-4.4091,-4.4946,-4.555,-4.5586,-4.5646,-4.57,-4.5786,-4.5867,-4.5949,-4.6138,-4.6243,-4.63,-4.63,-4.63,-4.63,-4.63,-4.63,-4.63,-4.63,-4.63,-4.6302,-4.6305,-4.6305,-4.6306,-4.6309,-4.6309,-4.6291,-4.6296,-4.6284,-4.6268,-4.6269,-4.6249,-4.6227,-4.6222,-4.6152,-4.6102,-3.5759,-3.5211,0.0,-3.4965,-3.4259,0.0,-3.3488,0.0,-3.2878,0.0,0.0,0.0,0.0,0.0,0.0,0.0,0.0,0.0,0.0,-3.0506,0.0,-3.063,-3.0733,-3.0855,0.0,0.0,0.0,0.0,0.0,0.0,0.0,-3.3,-3.3355,-3.4083,-3.4353,-3.4726,-3.5194,-3.5464,-3.56,-3.56,-3.56,-3.56,-3.56,-3.56,-3.56,-3.56,-3.56,-3.5871,-3.6326,-3.6781,-3.7152,-3.7505,-3.8136,-3.8318,-3.8281,-3.8528,-3.8658,-3.8707,-3.8707,-3.8707,-3.8707,-3.8707,-3.8707,-3.8719,-3.891,-3.9017,-3.9165,-3.9526,-3.9751,-3.9946,-4.0119,-4.0225,-4.0442,-4.1051,-4.2037,-4.3033,-4.3682,-4.4698,-4.5513,-4.5559,-4.5577,-4.5629,-4.5704,-4.5771,-4.586,-4.6076,-4.6176,-4.6245,-4.6298,-4.63,-4.63,-4.63,-4.63,-4.63,-4.63,-4.63,-4.63,-4.63,-4.63,-4.63,-4.63,-4.63,-4.6303,-4.6308,-4.6308,-4.6293,-4.6299,-4.6299,-4.6301,-4.6306,-4.6269,-4.6219]},{"header":{"parameterUnit":"m.s-1","parameterCategory":1,"la1":30.6,"la2":29.2853,"lo1":-89.7004,"lo2":-87.6739,"dy":0.0162,"dx":0.0183,"nx":112,"ny":82,"refTime":"2024-04-15T06:00:00:Z","depth":0,"parameterNumber":3,"parameterNumberName":"V-component_of_WINDS"},"data":[0.0,0.0,0.0,0.0,0.0,0.0,0.0,0.0,0.0,0.0,0.0,0.0,0.0,0.0,0.0,0.0,0.0,0.0,0.0,0.0,0.0,0.0,0.0,0.0,0.0,0.0,0.0,0.0,0.0,0.0,0.0,0.0,0.0,0.0,0.0,0.0,0.0,0.0,0.0,0.0,0.0,0.0,0.0,0.0,0.0,0.0,0.0,0.0,0.0,0.0,0.0,0.0,0.0,0.0,0.0,0.0,0.0,0.0,0.0,0.0,0.0,0.0,0.0,0.0,0.0,0.0,0.0,0.0,0.0,0.0,0.0,0.0,0.0,0.0,0.0,0.0,0.0,0.0,0.0,0.0,0.0,0.0,0.0,0.0,0.0,0.0,0.0,0.0,0.0,0.0,-1.4088,-1.4088,-1.4088,-1.4088,-1.4088,-1.4124,-1.4166,-1.4166,0.0,0.0,0.0,0.0,0.0,0.0,0.0,0.0,0.0,0.0,0.0,0.0,0.0,0.0,0.0,0.0,0.0,0.0,0.0,0.0,0.0,0.0,0.0,0.0,0.0,0.0,0.0,0.0,0.0,0.0,0.0,0.0,0.0,0.0,0.0,0.0,0.0,0.0,0.0,0.0,0.0,0.0,0.0,0.0,0.0,0.0,0.0,0.0,0.0,0.0,0.0,0.0,0.0,0.0,0.0,0.0,0.0,0.0,0.0,0.0,0.0,0.0,0.0,0.0,0.0,0.0,0.0,0.0,0.0,0.0,0.0,0.0,0.0,0.0,0.0,0.0,0.0,0.0,0.0,0.0,0.0,0.0,0.0,0.0,0.0,0.0,0.0,0.0,0.0,0.0,0.0,0.0,0.0,0.0,0.0,0.0,0.0,0.0,0.0,0.0,0.0,0.0,0.0,0.0,-1.4088,-1.4088,-1.4088,-1.4088,-1.4088,-1.4243,-1.4356,-1.4356,0.0,0.0,0.0,0.0,0.0,0.0,0.0,0.0,0.0,0.0,0.0,0.0,0.0,0.0,0.0,0.0,0.0,0.0,0.0,0.0,0.0,0.0,0.0,0.0,0.0,0.0,0.0,0.0,0.0,0.0,0.0,0.0,0.0,0.0,0.0,0.0,0.0,0.0,0.0,0.0,0.0,0.0,0.0,0.0,0.0,0.0,0.0,0.0,0.0,0.0,0.0,0.0,0.0,0.0,0.0,0.0,0.0,0.0,0.0,0.0,0.0,0.0,0.0,0.0,0.0,0.0,0.0,0.0,0.0,0.0,0.0,0.0,0.0,0.0,0.0,0.0,0.0,0.0,0.0,0.0,0.0,0.0,0.0,0.0,0.0,0.0,0.0,0.0,0.0,0.0,0.0,0.0,0.0,0.0,0.0,0.0,0.0,0.0,0.0,0.0,0.0,0.0,0.0,-1.4243,-1.4201,-1.413,-1.4088,-1.4088,-1.4088,-1.4159,-1.4279,-1.4391,-1.4608,0.0,0.0,0.0,0.0,0.0,0.0,0.0,0.0,0.0,0.0,0.0,0.0,0.0,0.0,0.0,0.0,0.0,0.0,0.0,0.0,0.0,0.0,0.0,0.0,0.0,0.0,0.0,0.0,0.0,0.0,0.0,0.0,0.0,0.0,0.0,0.0,0.0,0.0,0.0,0.0,0.0,0.0,0.0,0.0,0.0,0.0,0.0,0.0,0.0,0.0,0.0,0.0,0.0,0.0,0.0,0.0,0.0,0.0,0.0,0.0,0.0,0.0,0.0,0.0,0.0,0.0,0.0,0.0,0.0,0.0,0.0,0.0,0.0,0.0,0.0,0.0,0.0,0.0,0.0,0.0,0.0,0.0,0.0,0.0,0.0,0.0,0.0,0.0,0.0,0.0,0.0,0.0,0.0,0.0,0.0,0.0,0.0,0.0,0.0,0.0,0.0,0.0,-1.4237,-1.4286,-1.413,-1.4088,-1.413,-1.4166,-1.4166,-1.4321,-1.4768,-1.4977,0.0,0.0,0.0,0.0,0.0,0.0,0.0,0.0,0.0,0.0,0.0,0.0,0.0,0.0,0.0,0.0,0.0,0.0,0.0,0.0,0.0,0.0,0.0,0.0,0.0,0.0,0.0,0.0,0.0,0.0,0.0,0.0,0.0,0.0,0.0,0.0,0.0,0.0,0.0,0.0,0.0,0.0,0.0,0.0,0.0,0.0,0.0,0.0,0.0,0.0,0.0,0.0,0.0,0.0,0.0,0.0,0.0,0.0,0.0,0.0,0.0,0.0,0.0,0.0,0.0,0.0,0.0,0.0,0.0,0.0,0.0,0.0,0.0,0.0,0.0,0.0,0.0,0.0,0.0,0.0,0.0,0.0,0.0,0.0,0.0,0.0,0.0,0.0,0.0,0.0,0.0,0.0,0.0,0.0,0.0,0.0,0.0,0.0,0.0,0.0,0.0,0.0,-1.4243,-1.413,-1.4088,-1.4088,-1.4166,-1.4356,-1.4398,-1.4803,-1.5835,-1.6139,0.0,0.0,0.0,0.0,0.0,0.0,0.0,0.0,0.0,0.0,0.0,0.0,0.0,0.0,0.0,0.0,0.0,0.0,0.0,0.0,0.0,0.0,0.0,0.0,0.0,0.0,0.0,0.0,0.0,0.0,0.0,0.0,0.0,0.0,0.0,0.0,0.0,0.0,0.0,0.0,0.0,0.0,0.0,0.0,0.0,0.0,0.0,0.0,0.0,0.0,0.0,0.0,0.0,0.0,0.0,0.0,0.0,0.0,0.0,0.0,0.0,0.0,0.0,0.0,0.0,0.0,0.0,0.0,0.0,0.0,0.0,0.0,0.0,0.0,0.0,0.0,0.0,0.0,0.0,0.0,0.0,0.0,0.0,0.0,0.0,0.0,0.0,0.0,0.0,0.0,0.0,0.0,0.0,0.0,0.0,0.0,0.0,0.0,0.0,0.0,0.0,0.0,-1.4314,-1.4279,-1.4279,-1.4279,-1.4321,-1.4391,-1.4398,-1.4845,-1.5918,0.0,0.0,0.0,0.0,0.0,0.0,0.0,0.0,0.0,0.0,0.0,0.0,0.0,0.0,0.0,0.0,0.0,0.0,0.0,0.0,0.0,0.0,0.0,0.0,0.0,0.0,0.0,0.0,0.0,0.0,0.0,0.0,0.0,0.0,0.0,0.0,0.0,0.0,0.0,0.0,0.0,0.0,0.0,0.0,0.0,0.0,0.0,0.0,0.0,0.0,0.0,0.0,0.0,0.0,0.0,0.0,0.0,0.0,0.0,0.0,0.0,0.0,0.0,0.0,0.0,0.0,0.0,0.0,0.0,0.0,0.0,0.0,0.0,0.0,0.0,0.0,0.0,0.0,0.0,0.0,0.0,0.0,0.0,0.0,0.0,0.0,0.0,0.0,0.0,0.0,0.0,0.0,0.0,0.0,0.0,0.0,0.0,0.0,0.0,0.0,0.0,0.0,-1.4482,-1.4398,-1.4321,-1.4321,-1.4356,-1.4398,-1.4398,-1.4398,-1.5012,-1.6445,0.0,0.0,0.0,0.0,0.0,0.0,0.0,0.0,0.0,0.0,0.0,0.0,0.0,0.0,0.0,0.0,0.0,0.0,0.0,0.0,0.0,0.0,0.0,0.0,0.0,0.0,0.0,0.0,0.0,0.0,0.0,0.0,0.0,0.0,0.0,0.0,0.0,0.0,0.0,0.0,0.0,0.0,0.0,0.0,0.0,0.0,0.0,0.0,0.0,0.0,0.0,0.0,0.0,0.0,0.0,0.0,0.0,0.0,0.0,0.0,0.0,0.0,0.0,0.0,0.0,0.0,0.0,0.0,0.0,0.0,0.0,0.0,0.0,0.0,0.0,0.0,0.0,0.0,0.0,0.0,0.0,0.0,0.0,0.0,0.0,0.0,0.0,0.0,0.0,0.0,0.0,0.0,0.0,0.0,0.0,0.0,0.0,0.0,0.0,0.0,0.0,0.0,-1.465,-1.4334,-1.4088,-1.4088,-1.4279,-1.4398,-1.4398,-1.4398,-1.5338,0.0,0.0,0.0,0.0,0.0,0.0,0.0,0.0,0.0,0.0,0.0,0.0,0.0,0.0,0.0,0.0,0.0,0.0,0.0,0.0,0.0,0.0,0.0,0.0,0.0,0.0,0.0,0.0,0.0,0.0,0.0,0.0,0.0,0.0,0.0,0.0,0.0,0.0,0.0,0.0,0.0,0.0,0.0,0.0,0.0,0.0,0.0,0.0,0.0,0.0,0.0,0.0,0.0,0.0,0.0,0.0,0.0,0.0,0.0,0.0,0.0,0.0,0.0,0.0,0.0,0.0,0.0,0.0,0.0,0.0,0.0,0.0,0.0,0.0,0.0,0.0,0.0,0.0,0.0,0.0,0.0,0.0,0.0,0.0,0.0,0.0,0.0,0.0,0.0,0.0,0.0,0.0,0.0,0.0,0.0,0.0,0.0,0.0,0.0,0.0,0.0,0.0,0.0,-1.4482,-1.4243,-1.4166,-1.4279,-1.4356,-1.4482,-1.4608,-1.4608,-1.5504,-1.7577,0.0,0.0,0.0,0.0,0.0,0.0,0.0,0.0,0.0,0.0,0.0,0.0,0.0,0.0,0.0,0.0,0.0,0.0,0.0,0.0,0.0,0.0,0.0,0.0,0.0,0.0,0.0,0.0,0.0,0.0,0.0,0.0,0.0,0.0,0.0,0.0,0.0,0.0,0.0,0.0,0.0,0.0,0.0,0.0,0.0,0.0,0.0,0.0,0.0,0.0,0.0,0.0,0.0,0.0,0.0,0.0,0.0,0.0,0.0,0.0,0.0,0.0,0.0,0.0,0.0,0.0,0.0,0.0,0.0,0.0,0.0,0.0,0.0,0.0,0.0,0.0,0.0,0.0,0.0,0.0,0.0,0.0,0.0,0.0,0.0,0.0,0.0,0.0,0.0,0.0,0.0,0.0,0.0,0.0,0.0,0.0,0.0,0.0,0.0,0.0,0.0,0.0,-1.4398,-1.4201,-1.4166,-1.4286,-1.4356,-1.4398,-1.4454,-1.4615,-1.5345,-1.6927,0.0,0.0,0.0,0.0,0.0,0.0,0.0,0.0,0.0,0.0,0.0,0.0,0.0,0.0,0.0,0.0,0.0,0.0,0.0,0.0,0.0,0.0,0.0,0.0,0.0,0.0,0.0,0.0,0.0,0.0,0.0,0.0,0.0,0.0,0.0,0.0,0.0,0.0,0.0,0.0,0.0,0.0,0.0,0.0,0.0,0.0,0.0,0.0,0.0,0.0,0.0,0.0,0.0,0.0,0.0,0.0,0.0,0.0,0.0,0.0,0.0,0.0,0.0,0.0,0.0,0.0,0.0,0.0,0.0,0.0,0.0,0.0,0.0,0.0,0.0,0.0,0.0,0.0,0.0,0.0,0.0,0.0,0.0,0.0,0.0,0.0,0.0,0.0,0.0,0.0,0.0,0.0,0.0,0.0,0.0,0.0,0.0,0.0,0.0,0.0,0.0,0.0,-1.4433,-1.4201,-1.4088,-1.4088,-1.4237,-1.4321,-1.4124,-1.4447,-1.5061,-1.5959,0.0,0.0,0.0,0.0,0.0,0.0,0.0,0.0,0.0,0.0,0.0,0.0,0.0,0.0,0.0,0.0,0.0,0.0,0.0,0.0,0.0,0.0,0.0,0.0,0.0,0.0,0.0,0.0,0.0,0.0,0.0,0.0,0.0,0.0,0.0,0.0,0.0,0.0,0.0,0.0,0.0,0.0,0.0,0.0,0.0,0.0,0.0,0.0,0.0,0.0,0.0,0.0,0.0,0.0,0.0,0.0,0.0,0.0,0.0,0.0,-0.1121,0.0,0.0,0.0,0.0,0.0,0.0,0.0,0.0,0.0,0.0,0.0,0.0,0.0,0.0,0.0,0.0,0.0,0.0,0.0,0.0,0.0,0.0,0.0,0.0,0.0,0.0,0.0,0.0,0.0,0.0,0.0,0.0,0.0,0.0,0.0,0.0,0.0,0.0,0.0,0.0,0.0,-1.4398,-1.4201,-1.4088,-1.4088,-1.4124,-1.4201,-1.4321,-1.4398,-1.4977,-1.6221,-1.6984,0.0,0.0,0.0,0.0,0.0,0.0,0.0,0.0,0.0,0.0,0.0,0.0,0.0,0.0,0.0,0.0,0.0,0.0,0.0,0.0,0.0,0.0,0.0,0.0,0.0,0.0,0.0,0.0,0.0,0.0,0.0,0.0,0.0,0.0,0.0,0.0,0.0,0.0,0.0,0.0,0.0,0.0,0.0,0.0,0.0,0.0,0.0,0.0,0.0,0.0,0.0,0.0,0.0,0.0,0.0,0.0,0.0,0.0,0.0,0.0,-0.1524,0.0,0.0,0.0,0.0,0.0,0.0,0.0,0.0,0.0,0.0,0.0,0.0,0.0,0.0,0.0,0.0,0.0,0.0,0.0,0.0,0.0,0.0,0.0,0.0,0.0,0.0,0.0,0.0,0.0,0.0,0.0,0.0,0.0,0.0,0.0,0.0,0.0,0.0,0.0,0.0,-1.4398,-1.4201,-1.4088,-1.4088,-1.4088,-1.4124,-1.4243,-1.4356,-1.4894,-1.5982,-1.6944,0.0,0.0,0.0,0.0,0.0,0.0,0.0,0.0,0.0,0.0,0.0,0.0,0.0,0.0,0.0,0.0,0.0,0.0,0.0,0.0,0.0,0.0,0.0,0.0,0.0,0.0,0.0,0.0,0.0,0.0,0.0,0.0,0.0,0.0,0.0,0.0,0.0,0.0,0.0,0.0,0.0,0.0,0.0,0.0,0.0,0.0,0.0,0.0,0.0,0.0,0.0,0.0,0.0,0.0629,0.018,0.0,0.0,-0.0045,-0.009,-0.0493,-0.1255,-0.2284,-0.3532,0.0,0.0,0.0,0.0,0.0,0.0,0.0,0.0,0.0,0.0,0.0,0.0,0.0,0.0,0.0,0.0,0.0,0.0,0.0,0.0,0.0,0.0,0.0,0.0,-1.2571,-1.2966,-1.3913,0.0,0.0,0.0,0.0,0.0,0.0,0.0,0.0,0.0,0.0,0.0,-1.4398,-1.4201,-1.4088,-1.4088,-1.4088,-1.4088,-1.4088,-1.4243,-1.4734,-1.565,-1.6895,-1.7948,0.0,0.0,0.0,0.0,0.0,0.0,0.0,0.0,0.0,0.0,0.0,0.0,0.0,0.0,0.0,0.0,0.0,0.0,0.0,0.0,0.0,0.0,0.0,0.0,0.0,0.0,0.0,0.0,0.0,0.0,0.0,0.0,1.0009,0.9749,0.0,0.0,0.0,0.0,0.0,0.0,0.0,0.0,0.0,0.0,0.0,0.0,0.0,0.4253,0.4119,0.3179,0.2285,0.1391,0.1256,0.0808,0.0,0.0,-0.0135,-0.0359,-0.0403,0.0,-0.1031,-0.2508,0.0,0.0,0.0,0.0,0.0,0.0,0.0,0.0,0.0,0.0,0.0,0.0,0.0,0.0,0.0,0.0,0.0,0.0,0.0,0.0,0.0,0.0,-1.0463,-1.1278,-1.21,-1.2966,0.0,-1.4088,-1.4088,-1.4088,-1.4088,0.0,0.0,0.0,0.0,0.0,0.0,0.0,-1.4398,-1.4201,-1.4088,-1.4088,-1.4088,-1.4088,-1.4088,-1.4124,-1.458,-1.5609,-1.6568,-1.7649,-1.8917,-1.9311,0.0,0.0,0.0,0.0,0.0,0.0,0.0,0.0,0.0,0.0,0.0,0.0,0.0,0.0,0.0,0.0,0.0,0.0,0.0,0.0,0.0,0.0,0.0,0.0,0.0,0.0,0.0,0.0,0.0,1.0837,0.9879,0.9879,0.8532,0.7529,0.0,0.0,0.0,0.0,0.0,0.0,0.0,0.0,0.0,0.5825,0.5418,0.5218,0.5327,0.44,0.3706,0.3244,0.2086,0.1299,0.0882,0.0279,-0.0046,-0.0186,-0.0511,-0.0646,-0.0821,-0.2116,-0.2999,-0.3667,0.0,0.0,0.0,0.0,-0.7095,-0.7095,-0.7095,-0.7095,-0.7139,-0.7231,0.0,0.0,0.0,0.0,0.0,0.0,0.0,0.0,0.0,0.0,-1.0669,-1.1192,-1.2015,-1.2966,-1.3913,-1.4088,-1.4088,0.0,-1.4088,-1.4088,-1.4088,0.0,0.0,0.0,0.0,-1.4166,-1.4356,-1.4201,-1.4088,-1.4088,-1.4088,-1.4088,-1.4088,-1.4538,-1.5155,-1.5871,-1.6837,-1.7774,-1.8623,-1.8939,-1.919,0.0,0.0,0.0,0.0,0.0,0.0,0.0,0.0,0.0,0.0,0.0,0.0,0.0,0.0,0.0,0.0,0.0,0.0,0.0,0.0,0.0,0.0,0.0,0.0,0.0,0.0,0.0,0.0,1.1483,1.0529,1.0274,0.8794,0.7665,0.0,0.0,0.0,0.0,0.0,0.0,0.5822,0.5822,0.586,0.5947,0.595,0.5994,0.6083,0.5419,0.4942,0.4658,0.2852,0.1855,0.157,0.0476,0.0,0.0,-0.0429,-0.0662,-0.0791,-0.1822,-0.2521,-0.3045,-0.4427,-0.5275,-0.5764,-0.6476,-0.6874,-0.7095,-0.7095,-0.7095,-0.7095,-0.7095,-0.7143,-0.7187,-0.7187,0.0,0.0,0.0,0.0,-0.9879,-0.9362,-1.0144,-1.1095,-1.1278,-1.2186,-1.3264,-1.3955,-1.4088,-1.4088,0.0,-1.4088,-1.4088,-1.4088,0.0,0.0,0.0,0.0,-1.4166,-1.4321,-1.4208,-1.4088,-1.4088,-1.4021,-1.3975,-1.3975,-1.451,-1.5091,-1.5637,-1.6665,-1.7435,-1.7803,-1.8285,-1.8531,-1.8504,0.0,0.0,0.0,0.0,0.0,0.0,0.0,0.0,0.0,0.0,0.0,0.0,0.0,0.0,0.0,0.0,0.0,0.0,0.0,0.0,0.0,0.0,0.0,0.0,0.0,0.0,0.0,0.0,0.0,1.1322,1.0361,0.0,0.0,0.0,0.0,0.6572,0.6402,0.6227,0.6109,0.6067,0.607,0.6075,0.6075,0.6081,0.6086,0.6039,0.5561,0.4705,0.3517,0.2473,0.157,0.0476,0.0,0.0,-0.0048,-0.0333,-0.0856,-0.1351,-0.2099,-0.2911,-0.3001,-0.4115,-0.5719,-0.5764,-0.634,-0.7095,-0.7095,-0.7095,-0.7095,-0.7095,-0.7279,-0.7462,-0.7462,-0.768,0.0,0.0,-0.8157,-0.8328,-0.8285,-0.9763,-1.1278,-1.1284,-1.2705,-1.4046,-1.4088,-1.4088,-1.4088,0.0,-1.4088,-1.4088,-1.4088,0.0,-1.4088,-1.413,-1.413,-1.4088,-1.413,-1.413,-1.4088,-1.4088,-1.3834,-1.3626,-1.3626,-1.3414,-1.3669,-1.4535,-1.5528,-1.6125,-1.6206,-1.7451,-1.781,-1.7108,-1.753,0.0,0.0,0.0,0.0,0.0,0.0,0.0,0.0,0.0,0.0,0.0,0.0,0.0,0.0,0.0,0.0,0.0,0.0,0.0,0.0,0.0,0.0,0.0,0.0,0.0,0.0,0.0,0.0,1.1575,1.017,0.0,0.8968,0.7795,0.6947,0.6765,0.6534,0.6321,0.6131,0.6086,0.6121,0.6248,0.6251,0.6238,0.6309,0.6312,0.6153,0.5924,0.4818,0.3765,0.2711,0.166,0.075,0.0,-0.0198,-0.0442,-0.0825,-0.1158,-0.1568,-0.2052,-0.2704,-0.3696,-0.4879,-0.5516,-0.6326,-0.7095,-0.7095,-0.7095,-0.7095,-0.7095,-0.7187,-0.7231,-0.7231,-0.7319,-0.7408,-0.7408,-0.7452,-0.7584,-0.7896,-0.9414,-1.0923,-1.1235,-1.2747,-1.4088,-1.4088,-1.4088,-1.4088,-1.4088,-1.4088,-1.4028,-1.3834,-1.376,-1.3734,-1.3547,-1.3527,-1.3587,-1.3774,-1.376,-1.376,-1.376,-1.3666,-1.3527,-1.334,-1.3768,-1.4076,-1.4128,-1.4985,-1.5444,-1.532,-1.5652,-1.6085,-1.6555,-1.6727,-1.7113,0.0,0.0,0.0,0.0,0.0,0.0,0.0,0.0,0.0,0.0,0.0,0.0,0.0,0.0,0.0,0.0,0.0,0.0,0.0,0.0,0.0,0.0,0.0,0.0,0.0,1.2276,1.1888,1.1852,1.0388,0.9354,0.9211,0.8056,0.7237,0.7,0.6813,0.661,0.6409,0.6314,0.6323,0.6445,0.6448,0.6486,0.6559,0.6559,0.66,0.6681,0.5582,0.4484,0.3338,0.2299,0.1144,0.0,-0.0309,-0.0562,-0.0859,-0.1111,-0.1349,-0.1617,-0.2258,-0.3069,-0.4009,-0.5032,-0.5953,-0.6789,-0.7156,-0.7261,-0.7217,-0.7217,-0.7139,-0.7095,-0.7095,-0.7095,-0.7095,-0.7095,-0.7187,-0.7319,-0.7768,-0.9323,-1.0832,-1.1192,-1.2747,-1.4088,-1.4088,-1.4088,-1.4088,-1.4088,-1.4088,-1.4021,-1.3828,-1.3753,-1.3728,-1.3534,-1.3507,-1.3574,-1.3768,-1.3753,-1.3713,-1.3613,-1.3513,-1.338,-1.308,-1.3757,-1.3935,-1.3381,-1.4407,-1.471,-1.4049,-1.4716,-1.5313,-1.5816,-1.6446,-1.7113,-1.7784,0.0,0.0,0.0,0.0,0.0,0.0,0.0,0.0,0.0,0.0,0.0,0.0,0.0,0.0,0.0,0.0,0.0,0.0,0.0,0.0,0.0,0.0,0.0,1.3083,1.3133,1.2868,1.2233,1.1247,1.0288,0.9376,0.8308,0.7628,0.7479,0.7201,0.7026,0.7032,0.6781,0.6679,0.6798,0.6801,0.6801,0.6801,0.6801,0.6804,0.6806,0.5741,0.4623,0.3402,0.234,0.1224,0.0053,-0.0267,-0.0587,-0.0907,-0.1172,-0.1477,-0.1706,-0.1565,-0.2102,-0.3146,-0.4188,-0.5178,-0.6167,-0.7218,-0.7502,-0.7426,-0.7426,-0.7278,-0.7109,-0.7109,-0.7105,-0.7102,-0.7102,-0.7282,-0.7551,-0.7812,-0.941,-1.1004,-1.1235,-1.2705,-1.4046,-1.4088,-1.4088,-1.4088,-1.4088,-1.4088,-1.4082,-1.4075,-1.4075,-1.4068,-1.4062,-1.4062,0.0,-1.4075,-1.4075,-1.3961,-1.362,-1.334,-1.308,-1.2797,-1.3202,-1.3135,-1.2342,-1.3702,-1.3846,-1.2372,-1.4601,-1.5578,-1.4939,-1.6724,-1.7784,-1.8008,0.0,0.0,0.0,0.0,0.0,0.0,0.0,0.0,0.0,0.0,0.0,0.0,0.0,0.0,0.0,0.0,0.0,0.0,0.0,0.0,0.0,1.3029,1.3083,1.3083,1.329,1.3411,1.3385,1.2472,1.1827,1.1753,1.0088,0.9,0.8861,0.8083,0.7508,0.716,0.7064,0.6973,0.6801,0.6801,0.6801,0.6801,0.6801,0.6847,0.6934,0.6662,0.5903,0.4818,0.3627,0.2421,0.1223,0.0107,-0.0587,-0.0907,-0.1172,-0.1434,-0.1688,-0.1643,-0.2195,-0.3012,-0.335,-0.4518,-0.6167,-0.7218,-0.757,-0.7536,-0.7536,-0.7509,-0.7475,-0.7475,-0.7394,-0.7309,-0.7309,-0.7272,-0.7279,-0.7547,-0.8632,-0.9923,-1.0875,-1.2095,-1.3264,-1.3955,-1.4088,-1.4088,-1.4088,-1.4088,-1.4015,-1.376,-1.3726,-1.3653,-1.3487,-1.3454,0.0,-1.3693,-1.3726,-1.3613,-1.332,-1.326,-1.2999,-1.2465,-1.2566,-1.2556,-1.2298,-1.2703,-1.2732,-1.2335,-1.2952,-1.3882,-1.51,-1.6733,-1.7701,0.0,0.0,0.0,0.0,0.0,0.0,0.0,0.0,0.0,0.0,0.0,0.0,0.0,0.0,0.0,0.0,0.0,0.0,0.0,0.0,0.0,0.0,1.3308,1.3453,1.3453,1.3586,1.3773,1.4039,1.3194,1.2678,1.2861,1.0929,0.9673,0.9563,0.8343,0.7528,0.7292,0.7194,0.7059,0.6948,0.695,0.695,0.695,0.695,0.6986,0.7111,0.7111,0.6503,0.5347,0.4134,0.2961,0.1739,0.0218,-0.0599,-0.0926,-0.1198,-0.1463,0.0,0.0,0.0,0.0,0.0,-0.4763,-0.6321,-0.7392,-0.7743,-0.7689,-0.7689,-0.7648,-0.76,-0.76,-0.7539,-0.7465,-0.7465,-0.7404,-0.7378,-0.7608,-0.8491,-0.9535,-1.0319,-1.1646,-1.2833,-1.3398,-1.3828,-1.4088,-1.4088,-1.4088,0.0,-1.3854,-1.3828,-1.3774,-1.3607,-1.3581,-1.3634,-1.3808,-1.3828,-1.3633,-1.3253,-1.3213,-1.2966,-1.2351,-1.2629,0.0,0.0,0.0,-1.2989,-1.339,-1.339,0.0,0.0,0.0,-1.7725,-1.8008,-1.8008,0.0,0.0,-1.8008,-1.8008,0.0,0.0,0.0,0.0,0.0,0.0,0.0,0.0,0.0,0.0,0.0,0.0,0.0,0.0,0.0,0.0,1.3604,1.3918,1.3948,1.3978,1.4093,1.4358,1.3741,1.328,1.3152,1.1256,0.9963,0.9754,0.8236,0.7351,0.7428,0.0,0.0,0.0,0.0,0.721,0.721,0.721,0.721,0.721,0.721,0.6652,0.5539,0.4195,0.3022,0.1903,0.028,-0.0617,-0.0897,-0.1177,-0.1501,-0.1806,-0.1718,-0.1687,-0.1917,-0.3911,-0.5288,-0.6384,-0.7437,0.0,0.0,-0.7838,-0.775,-0.7648,-0.7648,-0.7638,-0.7624,-0.7624,-0.7611,-0.7647,-0.7828,-0.8598,-0.9375,-0.9669,-1.1071,-1.2349,-1.2491,-1.3258,-1.3913,-1.3955,-1.4046,-1.4088,-1.4088,-1.4088,-1.4088,-1.4088,-1.4088,-1.4088,-1.4088,-1.4088,-1.3874,-1.332,0.0,0.0,-1.2398,-1.2973,-1.3062,-1.2342,-1.2952,-1.3781,-1.4681,-1.4832,-1.571,-1.7467,-1.7604,-1.775,-1.7974,-1.7974,-1.7974,-1.8008,-1.8008,-1.8008,0.0,0.0,0.0,0.0,0.0,0.0,0.0,0.0,0.0,0.0,0.0,0.0,0.0,0.0,0.0,1.3719,1.3839,1.3978,1.4189,1.4419,1.466,1.492,1.4791,1.4333,1.3372,1.2326,1.1089,0.9598,0.8605,0.7922,0.7564,0.7514,0.7412,0.721,0.721,0.721,0.721,0.721,0.721,0.721,0.0,0.0,0.6763,0.4585,0.3469,0.3134,0.0672,-0.0617,-0.0897,-0.1177,-0.1512,-0.178,-0.1725,-0.1687,-0.1869,-0.3147,-0.4229,-0.5277,-0.6334,-0.727,-0.7944,-0.7944,-0.7928,-0.7904,-0.7904,-0.7868,0.0,-0.777,-0.7689,-0.76,-0.7644,-0.7948,-0.8394,-0.9059,-0.9669,-1.0362,-1.1132,-1.2035,-1.2723,-1.2918,-1.3568,-1.4088,-1.4088,-1.4088,-1.4088,-1.4088,-1.4088,-1.4088,-1.4088,-1.4088,-1.3948,-1.3553,-1.3313,-1.306,-1.273,-1.2587,-1.2482,-1.2305,-1.2445,-1.2915,-1.3753,-1.435,-1.5171,-1.6324,-1.695,-1.7442,-1.775,-1.775,-1.7852,-1.8008,-1.8008,-1.8008,0.0,0.0,0.0,0.0,0.0,0.0,0.0,0.0,0.0,0.0,0.0,1.332,1.332,0.0,1.3755,1.3882,1.4014,1.4195,1.4467,1.463,1.4769,1.4896,1.5143,1.5039,1.4468,1.2825,1.1433,1.0521,0.875,0.7648,0.7432,0.7379,0.7324,0.721,0.721,0.724,0.7244,0.724,0.724,0.7244,0.724,0.721,0.7099,0.4697,0.358,0.3469,0.0896,-0.0393,-0.0673,-0.1121,-0.1514,-0.1792,-0.1761,-0.1722,-0.1839,-0.2912,-0.3937,-0.4974,-0.6032,-0.7086,-0.7988,-0.7988,-0.7988,-0.7988,-0.7988,-0.7938,-0.7877,-0.7877,-0.7875,-0.7821,-0.7821,-0.7907,-0.816,-0.8543,-0.9079,-0.9638,-1.0151,-1.0865,-1.1515,-1.1783,-1.2559,-1.3252,-1.3392,-1.3786,-1.4088,-1.4088,-1.4088,-1.4088,-1.4088,-1.4088,-1.3975,-1.3633,-1.3473,-1.324,-1.2824,-1.2472,-1.2305,-1.2305,-1.2305,-1.2666,-1.3462,-1.4214,-1.5037,-1.5974,-1.6777,-1.7373,-1.7706,-1.7706,-1.7784,-1.8018,-1.8223,-1.8286,0.0,0.0,0.0,0.0,0.0,0.0,0.0,0.0,1.4626,1.4107,1.3758,1.3592,1.3592,1.3803,1.3978,1.3978,1.4208,1.4461,1.4684,1.4805,1.4871,1.4871,1.5288,1.5491,1.527,1.3337,1.1837,1.1143,0.8961,0.754,0.721,0.7232,0.7245,0.7245,0.727,0.7271,0.7315,0.7249,0.7239,0.7277,0.7214,0.721,0.7099,0.492,0.3804,0.3469,0.1008,-0.0224,-0.0449,-0.1065,-0.1458,-0.1683,-0.1795,-0.1761,-0.1816,-0.2674,-0.3651,-0.4647,-0.5739,-0.6786,-0.7736,-0.7939,-0.7988,-0.7988,-0.7988,-0.7988,-0.7988,-0.7988,-0.7988,-0.7988,-0.7988,-0.8101,-0.815,-0.8118,-0.8663,-0.9171,-0.9141,-0.9753,-1.04,-1.0621,-1.1338,-1.2029,-1.2308,-1.313,-1.3822,-1.4046,-1.4088,-1.4088,-1.4088,-1.4088,-1.3995,-1.3713,-1.3633,-1.34,-1.2837,-1.2563,-1.2365,-1.2305,-1.2305,-1.2666,-1.3462,-1.407,-1.4887,-1.5939,-1.6603,-1.7157,-1.7647,-1.7724,-1.7909,-1.8144,-1.8529,-1.8685,1.6771,1.6319,1.5816,1.5816,1.5021,1.4282,0.0,0.0,1.3646,1.3601,1.3722,1.3863,1.3863,1.4075,1.4256,1.4256,1.4485,1.4684,1.4714,1.5119,1.5409,1.5409,1.5668,1.5451,1.4352,1.4235,1.2937,0.9786,0.9515,0.8806,0.7265,0.7255,0.7315,0.7315,0.7421,0.7486,0.7497,0.7377,0.7266,0.7277,0.7214,0.721,0.7154,0.5817,0.4587,0.3469,0.0784,-0.0393,-0.0449,-0.1065,-0.1346,-0.1402,-0.1683,-0.1774,-0.1795,-0.187,-0.257,-0.3604,-0.4651,-0.5679,-0.6736,-0.769,-0.7988,-0.7988,-0.7988,-0.7988,-0.7988,-0.7988,-0.7988,-0.7988,-0.7988,-0.8028,-0.798,-0.7893,-0.7931,-0.797,-0.7925,-0.8607,-0.9295,-0.9397,-1.0139,-1.0869,-1.1133,-1.1901,-1.2851,-1.3955,-1.4088,-1.4088,-1.4088,-1.4088,-1.4075,-1.4041,-1.376,-1.34,-1.2837,-1.2757,-1.2623,-1.2318,-1.2305,-1.2666,-1.3462,-1.3564,-1.4322,-1.5798,-1.5903,-1.6473,-1.7539,-1.7865,-1.8213,-1.8539,-1.9014,-1.9014,1.6237,1.5609,1.5153,1.529,1.4711,1.4156,1.4319,1.4308,1.4191,1.3789,1.3954,1.4135,1.4135,1.422,1.4352,0.0,1.4642,1.4823,1.5125,1.536,1.5553,1.5704,1.5825,1.5714,1.5221,1.4516,1.3479,1.1959,1.0382,0.922,0.8588,0.7757,0.7312,0.744,0.7491,0.7551,0.7625,0.7432,0.7315,0.744,0.7247,0.721,0.7154,0.5929,0.4364,0.2463,0.0616,-0.028,-0.0393,-0.0673,-0.1009,-0.129,-0.1458,-0.162,-0.1772,-0.1742,-0.2389,-0.3362,-0.3795,-0.5025,-0.6487,-0.6936,-0.7487,-0.7988,-0.7988,-0.7988,-0.7988,-0.7988,-0.7988,-0.7988,-0.7988,-0.7988,-0.7975,-0.7911,-0.7875,-0.7777,-0.7746,-0.7948,-0.8155,-0.8308,-0.9002,-0.9666,-0.9923,-1.0697,-1.1729,-1.2899,-1.3646,-1.4088,-1.4088,-1.4088,-1.4088,-1.4088,-1.378,-1.35,-1.3287,-1.2985,-1.273,-1.2603,-1.2398,-1.2445,-1.2776,-1.3244,-1.3781,-1.443,-1.5574,-1.6402,-1.699,-1.7967,-1.8581,-1.8853,-1.938,-1.9551,1.5637,1.5028,1.4597,1.4847,1.4507,1.4091,1.4294,1.4549,1.4612,1.4102,1.4165,1.4298,1.4298,1.4298,1.4364,1.457,1.4727,1.4956,1.5342,1.5517,1.568,1.5867,1.5891,1.5891,1.5891,1.4959,1.4083,1.3485,1.1252,0.9743,0.9296,0.8046,0.7442,0.7565,0.76,0.7657,0.7747,0.754,0.7464,0.7516,0.7307,0.7243,0.7154,0.5929,0.425,0.2239,0.1008,0.0224,-0.028,-0.0393,-0.0673,-0.1065,-0.1234,-0.1458,-0.168,-0.177,-0.2261,-0.292,-0.3217,-0.4294,-0.5582,-0.5882,-0.6684,-0.754,-0.754,-0.7789,-0.7988,-0.7988,-0.7988,-0.7988,-0.7988,-0.7988,-0.7988,-0.7988,-0.7907,-0.7862,-0.7821,-0.7645,-0.7514,-0.7612,-0.8084,-0.8557,-0.8679,-0.9492,-1.0438,-1.1295,-1.2687,-1.373,-1.4046,-1.4088,-1.4088,-1.4088,-1.3895,-1.3693,-1.3613,-1.3247,-1.2998,-1.2918,-1.2592,-1.2465,-1.2552,-1.3024,-1.3454,-1.3718,-1.5096,-1.6124,-1.6722,-1.786,-1.8667,-1.9187,-1.9752,-2.006,1.5055,1.4619,1.4169,1.4449,1.4187,1.3928,1.394,1.414,1.4334,1.4286,1.4292,1.4298,1.4298,1.4298,1.4298,1.431,1.4751,1.5101,1.5119,1.5559,1.5879,1.5891,1.5891,1.5891,0.0,1.5838,1.5018,1.296,1.1964,1.0622,0.8804,0.7968,0.757,0.7693,0.7804,0.7861,0.7867,0.775,0.7633,0.7516,0.7391,0.7269,0.7154,0.5929,0.47,0.3469,0.2295,0.1064,-0.0056,-0.028,-0.0393,-0.0505,-0.1065,-0.129,-0.1346,-0.1682,-0.1755,-0.1911,-0.2919,-0.3275,-0.3473,-0.4524,-0.5579,-0.6437,-0.6437,-0.7188,-0.7988,-0.7988,-0.7988,-0.7988,-0.7988,-0.7988,-0.7988,-0.7988,-0.7985,-0.7941,-0.7841,-0.7804,-0.7712,-0.7473,-0.7412,-0.7455,-0.7531,-0.8328,-0.9021,-0.9274,-1.1037,-1.2766,-1.3955,-1.4088,-1.4088,-1.4088,-1.4082,-1.3955,-1.3626,-1.3586,-1.3453,-1.3213,-1.2945,-1.2904,-1.3173,-1.2931,-1.3275,-1.4253,-1.4345,-1.5281,-1.7093,-1.7504,-1.8391,-1.9573,-2.0082,-2.0401,1.4512,1.4379,1.4327,1.416,1.4019,1.3954,1.4123,1.4238,1.4298,1.4298,1.4298,1.4298,1.4298,1.4298,1.4358,1.4545,1.4871,1.5167,1.5342,1.5668,1.5891,1.5891,1.5891,0.0,0.0,0.0,0.0,1.4911,1.3466,1.2089,1.0874,0.9432,0.8402,0.787,0.785,0.7872,0.7872,0.7758,0.7641,0.7516,0.7312,0.7248,0.7154,0.5929,0.5202,0.4698,0.2686,0.1567,0.112,0.0224,-0.0224,-0.0393,-0.0617,-0.0841,-0.1065,-0.1346,-0.1437,-0.1513,-0.2071,-0.2711,-0.3328,-0.3639,-0.4929,-0.6387,-0.6387,-0.7138,-0.7988,-0.7988,-0.7988,-0.7988,-0.7988,-0.7988,-0.7988,-0.7988,-0.7988,-0.7975,-0.7924,-0.7882,-0.778,-0.7682,-0.7506,-0.7402,-0.7441,-0.7563,-0.8017,-0.889,-1.0864,-1.2723,-1.3955,-1.4088,-1.4088,-1.4088,-1.4088,-1.4048,-1.3948,-1.372,-1.356,-1.346,-1.322,-1.31,-1.3206,-1.3113,-1.3217,-1.3541,-1.4324,-1.5014,-1.5646,-1.7288,-1.8395,-1.8964,-1.9875,-2.042,1.4097,1.4147,1.4258,1.4072,1.4045,1.4087,1.4256,1.4298,1.4298,1.4298,1.4298,1.4298,1.4298,1.4298,1.4389,1.4672,1.4938,1.5197,1.5463,1.5722,1.5891,1.5891,1.5891,1.5891,0.0,0.0,0.0,1.5571,1.3871,1.2637,1.2157,1.0032,0.8711,0.8416,0.8055,0.7872,0.7872,0.7799,0.7682,0.7516,0.7271,0.721,0.7154,0.6374,0.5817,0.5314,0.3748,0.2574,0.1735,0.0953,0.028,-0.028,-0.0336,-0.0505,-0.0729,-0.1065,-0.1226,-0.1321,-0.1623,-0.217,-0.2742,-0.2659,-0.3848,-0.5331,-0.5732,-0.6584,-0.7487,-0.7889,-0.7988,-0.7988,-0.7988,-0.7988,-0.7988,-0.7988,-0.7988,-0.7988,-0.7988,-0.7914,-0.7875,-0.7821,-0.7658,-0.7495,-0.7436,-0.7244,-0.7489,-0.8715,-1.0139,-1.1643,-1.3252,-1.3561,-1.3743,-1.4046,-1.4088,-1.4088,-1.4088,-1.3915,-1.376,-1.376,-1.3487,-1.3414,-1.352,-1.342,-1.3414,-1.352,-1.4219,-1.476,-1.5079,-1.6855,-1.798,-1.851,-1.9578,-2.0225,1.3773,1.3918,1.3984,1.4238,1.4298,1.4298,1.4298,1.4298,1.4298,1.4298,1.4298,1.4298,0.0,0.0,1.4383,1.4654,1.4932,1.5197,1.5445,1.5716,1.5891,0.0,0.0,0.0,0.0,0.0,0.0,1.5112,0.0,1.2421,1.2452,0.9866,0.866,0.9211,0.8358,0.7872,0.7872,0.7858,0.7739,0.7516,0.7271,0.721,0.721,0.721,0.6596,0.5483,0.5427,0.4083,0.1903,0.1847,0.1064,0.0,-0.028,-0.0393,-0.0393,-0.0729,-0.1009,-0.1287,-0.1651,-0.1714,-0.1719,-0.1717,-0.2359,-0.3379,-0.4431,-0.5532,-0.6637,-0.764,-0.7942,-0.7988,-0.7988,-0.7988,-0.7988,-0.7988,-0.7988,-0.7988,-0.7988,-0.7988,-0.7948,-0.7851,-0.7818,-0.7719,-0.7467,-0.7248,-0.7499,-0.8632,-0.8846,-0.9666,-1.1938,-1.2473,-1.3003,-1.3913,-1.4046,-1.4088,-1.4088,-1.4088,-1.4088,-1.4088,-1.378,-1.3753,-1.4075,-1.3773,-1.3801,-1.4082,-1.4088,-1.4496,-1.5352,-1.6214,-1.718,-1.8252,-1.9134,-1.9794,1.387,1.4051,1.4214,1.428,1.4298,1.4298,1.4298,1.4298,1.4298,1.4298,1.4298,1.4298,1.4298,1.4298,1.4322,1.4395,1.4799,0.0,1.5197,1.5602,0.0,1.5891,0.0,1.5891,1.5891,1.5891,0.0,0.0,1.5249,1.3994,1.2166,1.126,1.0006,0.8297,0.8052,0.7872,0.7872,0.7695,0.7578,0.7516,0.7271,0.721,0.721,0.721,0.7043,0.671,0.5817,0.4531,0.3078,0.2183,0.1064,0.0,-0.0056,-0.0112,-0.0112,-0.0449,-0.0561,-0.0672,-0.1004,-0.1428,-0.1778,-0.1701,-0.2403,-0.3342,-0.3598,-0.4934,-0.6437,-0.6736,-0.7388,-0.7988,-0.7988,-0.7988,-0.7988,-0.7988,-0.7988,-0.7988,-0.7988,-0.7988,-0.7978,-0.7938,-0.7889,-0.7719,-0.7467,-0.7339,-0.7361,-0.7554,-0.7893,-0.8851,-1.0783,-1.1815,-1.2504,-1.2723,-1.3555,-1.4088,-1.4088,-1.4088,-1.4088,-1.4088,-1.4015,-1.4008,-1.4082,-1.4015,-1.4008,-1.4088,-1.4088,-1.4208,-1.4419,-1.5311,-1.6281,-1.7366,-1.8221,-1.9244,1.4045,1.4183,1.4298,1.4298,1.4298,1.4298,1.4298,1.4208,1.4123,1.4123,1.4123,1.4123,1.4123,1.422,1.434,0.0,0.0,0.0,1.5246,1.5529,1.5759,0.0,1.5891,0.0,1.5891,1.5891,1.6,0.0,1.5685,1.485,1.3796,1.2171,1.077,0.9623,0.8477,0.7872,0.7872,0.769,0.7573,0.7516,0.7326,0.7206,0.721,0.721,0.721,0.7154,0.6485,0.5481,0.4308,0.3078,0.1903,0.0728,0.0224,0.0,0.0,-0.0168,-0.028,-0.0449,-0.0617,-0.1003,-0.1433,-0.1517,-0.2023,-0.2674,-0.3145,-0.4136,-0.5143,-0.5597,-0.6475,-0.7288,-0.7288,-0.7637,-0.7988,-0.7988,-0.7988,-0.7988,-0.7988,-0.7988,-0.7988,-0.7988,-0.7916,-0.7756,-0.7594,-0.7458,-0.7343,-0.7255,-0.7409,-0.7977,-0.9104,-1.0399,-1.1563,-1.2382,-1.3088,-1.3652,-1.4046,-1.4088,-1.4088,-1.4088,-1.4088,-1.4088,-1.4088,-1.4088,-1.4088,-1.4088,-1.4088,-1.4088,-1.4088,-1.4985,-1.5718,-1.6322,-1.7172,-1.8261,1.4238,1.4298,1.4298,1.4298,1.4298,1.4286,1.4256,1.4069,1.3894,1.3857,1.3851,1.3851,1.3851,1.4069,1.4322,1.457,0.0,1.4883,1.5378,1.5475,1.5596,1.5855,1.5891,1.5891,1.5891,1.5891,1.6012,1.6314,1.5546,1.5324,1.5861,1.2944,1.1249,1.1374,0.914,0.7872,0.7872,0.7758,0.7641,0.7516,0.7336,0.7271,0.721,0.721,0.721,0.721,0.721,0.6541,0.5314,0.425,0.3022,0.168,0.0672,0.0168,0.0,0.0,-0.0168,-0.0336,-0.0336,-0.0561,-0.0895,-0.1212,-0.1464,-0.1817,-0.283,-0.3217,-0.3481,-0.4411,-0.5426,-0.6258,-0.6358,-0.7101,-0.7839,-0.7988,-0.7988,-0.7988,-0.7988,-0.7988,-0.7988,-0.7988,-0.7884,-0.7834,-0.7814,-0.7597,-0.7463,-0.7422,-0.7258,-0.7255,-0.7462,-0.8859,-1.0458,-1.21,-1.2528,-1.3052,-1.3828,-1.4046,-1.4088,-1.4088,-1.4088,-1.4088,-1.4088,-1.4088,-1.4088,-1.4088,-1.4088,-1.4088,-1.4088,-1.4866,-1.5269,-1.5436,-1.6165,-1.7172,1.4286,1.4298,1.4298,1.4298,1.4298,1.4244,1.402,1.3936,0.0,1.3628,1.3586,1.3586,1.3586,1.3797,1.399,1.4039,1.4425,1.4823,1.5137,1.536,1.5596,0.0,1.5891,1.5891,1.5891,1.5891,0.0,0.0,1.6446,1.5949,1.4972,1.407,1.2389,0.9819,0.8541,0.7872,0.7872,0.7758,0.7641,0.7516,0.7336,0.7271,0.721,0.721,0.721,0.721,0.721,0.0,0.5371,0.5146,0.3804,0.1791,0.1567,0.0896,0.0,0.0,-0.0056,-0.0056,-0.0056,-0.028,-0.0561,-0.1118,-0.1325,-0.1469,-0.1905,-0.2633,-0.3337,-0.3547,-0.4332,-0.5348,-0.6277,-0.6561,-0.6886,-0.7789,-0.7988,-0.7988,-0.7988,-0.7988,-0.7988,-0.7988,-0.7968,-0.7911,-0.7831,-0.777,-0.7651,-0.7453,-0.7524,-0.7552,-0.7521,-0.8544,-0.954,-1.0101,-1.166,-1.279,-1.2918,-1.3652,-1.4088,-1.4088,-1.4088,-1.4088,-1.4088,-1.4088,-1.4088,-1.4088,-1.4088,-1.4088,-1.4088,-1.425,-1.4706,-1.5394,-1.556,-1.6609,1.4298,1.4298,1.4298,1.4298,1.4298,1.4226,1.3966,0.0,0.0,1.3363,1.327,1.327,1.327,1.3525,1.3749,1.3882,1.4123,1.4437,1.4847,1.5131,1.539,1.5656,1.5928,1.6036,1.5903,1.6012,1.6266,1.667,1.67,1.6529,1.6209,1.4361,1.2264,0.9872,0.8601,0.7872,0.7872,0.7818,0.7698,0.7516,0.7459,0.7334,0.721,0.721,0.721,0.721,0.721,0.6877,0.6262,0.565,0.4698,0.3525,0.2295,0.1456,0.084,0.0224,0.0,0.0,0.0,-0.0112,-0.028,-0.0673,-0.106,-0.1385,-0.1718,-0.2135,-0.2536,-0.2536,-0.3248,-0.4355,-0.5452,-0.6105,-0.6735,-0.7904,-0.8099,-0.7988,-0.7988,-0.7988,-0.7988,-0.7988,-0.7988,-0.7968,-0.7894,-0.7865,-0.7763,-0.7621,-0.7561,-0.757,-0.7586,-0.8034,-0.8632,-0.9497,-1.0582,-1.1623,-1.2619,-1.3094,-1.3568,-1.4088,-1.4088,-1.4088,-1.4088,-1.4088,-1.4088,-1.4088,-1.4088,-1.4088,-1.4088,-1.4088,-1.4292,-1.4699,-1.4699,-1.547,1.428,1.4298,1.4298,1.4298,1.4256,1.4141,1.3882,1.3622,0.0,1.3091,1.2987,1.2987,1.2987,1.3254,1.3519,1.3779,1.387,1.4099,1.4636,1.4944,1.5203,1.5469,1.5964,0.0,1.5916,1.6127,0.0,1.6676,1.6803,1.6987,1.7285,1.4718,1.25,1.0952,0.9262,0.8355,0.8177,0.7994,0.7752,0.7519,0.7519,0.7391,0.721,0.721,0.721,0.721,0.721,0.721,0.7099,0.6151,0.565,0.5202,0.3301,0.2239,0.1679,0.0728,0.0224,0.0,0.0,0.0,-0.0056,-0.0336,-0.0729,-0.1177,-0.157,-0.1667,-0.1704,-0.1759,-0.2388,-0.3264,-0.4434,-0.5466,-0.6505,-0.7919,-0.813,-0.7988,-0.7988,-0.7988,-0.7988,-0.7988,-0.7988,-0.7988,-0.7988,-0.7891,-0.7848,-0.7818,-0.7614,-0.7533,-0.7601,-0.7583,-0.7978,-0.9026,-0.9545,-1.0414,-1.1923,-1.2443,-1.3003,-1.3743,-1.3997,-1.4088,-1.4088,-1.4088,-1.4088,-1.4088,-1.4088,-1.4088,-1.4088,-1.4088,-1.4088,-1.4088,-1.4088,-1.458,1.4232,1.4298,1.4298,1.4298,1.4117,1.3876,1.361,0.0,1.3079,1.2801,1.2741,1.2741,1.2741,1.297,1.3197,1.3507,1.3749,1.4099,1.4636,1.4944,1.5203,1.5469,0.0,0.0,1.5916,1.6127,1.6398,1.6676,1.7141,1.7196,1.6591,1.551,1.4312,1.2997,1.1072,0.9808,0.9153,0.8299,0.7752,0.7519,0.7519,0.7391,0.721,0.721,0.721,0.721,0.721,0.721,0.0,0.7099,0.6374,0.5371,0.5146,0.3748,0.1791,0.1679,0.0953,0.0,0.0,0.0,-0.0056,-0.0336,-0.0449,-0.0617,-0.1177,-0.1345,-0.1399,-0.1735,-0.1879,-0.2181,-0.3269,-0.4298,-0.5555,-0.7535,-0.8002,-0.7988,-0.7988,-0.7988,-0.7988,-0.7988,-0.7988,-0.7988,-0.7988,-0.7978,-0.7921,-0.7831,-0.7787,-0.7675,-0.7453,-0.758,-0.7701,-0.7694,-0.8851,-0.971,-0.9884,-1.1617,-1.2747,-1.2833,-1.361,-1.4088,-1.4088,-1.4088,-1.4088,-1.4088,-1.4088,-1.4088,-1.4088,-1.4088,-1.4088,-1.4088,-1.4088,-1.458,1.399,1.3948,1.3863,1.402,1.3863,1.3604,1.3338,0.0,1.2999,1.2765,1.2705,1.2705,1.2705,1.2795,1.2958,1.3236,1.3501,0.0,1.4177,1.4739,1.5149,1.5252,1.6018,1.6429,0.0,0.0,1.6579,1.6688,1.7189,1.7361,1.7132,1.5806,1.4847,1.4371,1.2273,1.071,0.9933,0.9147,0.8354,0.7519,0.7691,0.756,0.721,0.7379,0.7379,0.721,0.721,0.721,0.0,0.721,0.6932,0.6429,0.5706,0.481,0.3804,0.2351,0.1512,0.0953,0.0224,0.0,0.0,-0.0112,-0.0168,-0.028,-0.0897,-0.1065,-0.1121,-0.1402,-0.1507,-0.1832,-0.3159,-0.4265,-0.5385,-0.6777,-0.7045,-0.7238,-0.7839,-0.7988,-0.7988,-0.7988,-0.7988,-0.7988,-0.7988,-0.7988,-0.7968,-0.7907,-0.7872,-0.777,-0.7651,-0.7571,-0.7482,-0.7427,-0.8126,-0.8807,-0.9318,-1.0788,-1.1912,-1.2425,-1.3476,-1.4088,-1.4088,-1.4088,-1.4088,-1.4088,-1.4088,-1.4088,-1.4088,-1.4088,-1.4088,-1.4088,-1.4269,-1.4514,1.3719,1.3652,1.3562,1.3743,1.3592,1.335,0.0,0.0,1.2946,1.2747,1.2705,1.2705,1.2705,1.2705,1.2795,1.3079,0.0,1.3604,1.387,1.46,1.5107,1.5107,0.0,1.6592,1.6308,1.6604,1.6785,1.6706,1.7189,1.7485,1.7485,1.6402,1.5747,1.551,1.371,1.2213,1.1193,1.0112,0.9071,0.8038,0.8038,0.7789,0.7432,0.7549,0.7493,0.7324,0.721,0.721,0.0,0.721,0.721,0.7099,0.6262,0.5706,0.5202,0.3469,0.2407,0.1679,0.084,0.028,0.0,0.0,0.0,-0.0056,-0.0505,-0.0673,-0.0785,-0.1121,-0.1234,-0.1623,-0.3171,-0.4091,-0.4898,-0.6187,-0.6449,-0.6732,-0.7796,-0.7988,-0.7988,-0.7988,-0.7988,-0.7988,-0.7988,-0.7988,-0.7988,-0.7988,-0.7897,-0.7862,-0.7818,-0.7631,-0.7485,-0.7444,-0.7618,-0.8122,-0.9021,-1.0188,-1.1311,-1.2254,-1.3385,-1.3997,-1.4088,-1.4088,-1.4088,-1.4088,-1.4088,-1.4128,-1.4215,-1.4215,-1.4262,-1.4349,-1.4556,-1.4649,1.3447,1.3519,1.3513,1.3519,1.3276,1.3083,0.0,1.291,1.2705,1.2705,1.2705,1.2705,1.2705,1.2705,1.2795,1.3079,1.3344,0.0,1.387,1.46,1.5107,0.0,1.6048,1.6592,1.6308,1.6773,1.6984,1.6718,1.7189,0.0,1.7485,1.7479,1.7185,1.6537,1.5569,1.4431,1.3181,1.1249,1.0014,0.9364,0.8442,0.8018,0.7989,0.7715,0.7607,0.7607,0.7324,0.721,0.0,0.721,0.721,0.721,0.721,0.6429,0.5371,0.5371,0.386,0.1791,0.1791,0.1008,0.0,0.0,0.0,0.0,0.0,-0.0168,-0.0449,-0.0785,-0.1121,-0.162,-0.3018,-0.3387,-0.3949,-0.5997,-0.6513,-0.6788,-0.7772,-0.7988,-0.7988,-0.7988,-0.7988,-0.7988,-0.7988,-0.7988,-0.7988,-0.7988,-0.7988,-0.7931,-0.7831,-0.7807,-0.7753,-0.7611,-0.7461,-0.7802,-0.8819,-0.9937,-1.1111,-1.232,-1.3222,-1.3822,-1.4088,-1.4088,-1.4088,-1.4088,-1.4088,-1.4229,-1.4516,-1.4516,-1.4669,-1.5001,-1.5001,-1.5001,1.3131,1.3109,1.3006,1.32,1.3043,1.2837,1.2837,1.2771,1.2705,1.2705,1.2705,1.2705,1.2705,1.2705,1.2735,1.2825,1.3218,0.0,0.0,0.0,0.0,1.5107,1.6048,1.6592,0.0,0.0,1.7177,1.673,1.7189,1.7485,1.7485,1.7485,1.7426,1.7185,1.6473,1.5575,1.4495,1.3268,1.1779,1.0055,0.9774,0.9057,0.7989,0.8156,0.7989,0.7607,0.7493,0.7379,0.721,0.721,0.721,0.721,0.721,0.6988,0.6541,0.5706,0.4419,0.3022,0.3022,0.168,0.0112,0.0953,0.0672,0.0,0.0,-0.0056,-0.0168,-0.0505,-0.0785,-0.1176,-0.1782,-0.1984,-0.2397,-0.3983,-0.4896,-0.5677,-0.6771,-0.7507,-0.7988,-0.7988,-0.7988,-0.7988,-0.7988,-0.7988,-0.7988,-0.7988,-0.7988,-0.7971,-0.7924,-0.7875,-0.7794,-0.775,-0.7614,-0.7649,-0.7847,-0.9442,-1.0577,-1.0923,-1.2699,-1.3695,-1.361,-1.3913,-1.4139,-1.416,-1.4296,-1.4529,-1.4823,-1.4823,-1.497,-1.5257,-1.5257,-1.5364,1.2916,1.2837,1.2747,1.2922,1.2831,1.2705,1.2705,1.2705,1.2705,1.2705,1.2705,1.2705,1.2705,1.2705,1.2705,1.2705,1.3163,1.3513,0.0,0.0,0.0,1.5517,1.6139,0.0,0.0,1.6923,1.7159,1.673,1.7189,1.7485,1.7485,1.7485,1.7436,1.734,1.7014,1.6427,1.5499,1.4526,1.3259,1.1619,1.127,1.0345,0.903,0.9085,0.8702,0.7937,0.7826,0.7604,0.0,0.7324,0.7268,0.721,0.721,0.721,0.7099,0.6374,0.5312,0.4252,0.4252,0.2686,0.0784,0.1567,0.1009,0.0,0.0,0.0,-0.0056,-0.0336,-0.0561,-0.0785,-0.1065,-0.1224,-0.1597,-0.2899,-0.3792,-0.4692,-0.6161,-0.6979,-0.7537,-0.7939,-0.7988,-0.7988,-0.7988,-0.7988,-0.7988,-0.7988,-0.7988,-0.7988,-0.7988,-0.7907,-0.7896,-0.7896,-0.7767,-0.7641,-0.7546,-0.9293,-1.0603,-1.105,-1.2782,-1.3759,-1.3716,-1.3983,-1.4198,-1.4368,-1.4463,-1.4741,-1.5169,-1.5237,-1.5384,-1.5558,-1.5558,-1.5658,0.0,1.2705,1.2705,1.2705,1.2705,1.2705,1.2705,1.2705,0.0,1.2705,1.2705,1.2705,1.2705,1.2705,1.2705,1.2705,1.3163,1.3513,0.0,1.4437,0.0,0.0,1.6272,0.0,1.6278,1.6754,1.6954,1.6688,1.7141,1.7424,1.7424,1.7424,1.7316,1.7074,1.7298,1.7019,1.6143,1.5239,1.4437,1.3633,1.2761,1.1819,1.0836,1.0398,0.9633,0.0,0.8211,0.7881,0.7607,0.7607,0.7493,0.721,0.721,0.721,0.721,0.721,0.6429,0.5427,0.5483,0.3971,0.1903,0.1847,0.1009,0.0,0.0,0.0,-0.0056,-0.028,-0.0393,-0.0449,-0.0785,-0.1065,-0.1508,-0.2526,-0.302,-0.3811,-0.5928,-0.6374,-0.6686,-0.7789,-0.7988,-0.7988,-0.7988,-0.7988,-0.7988,-0.7988,-0.7988,-0.7988,-0.7988,-0.7988,-0.7988,-0.7988,-0.7913,-0.7828,-0.7828,-0.946,-1.0966,-1.2129,-1.319,-1.3882,-1.416,-1.416,-1.4295,-1.4579,-1.4643,-1.4923,-1.5431,-1.5698,-1.5784,-1.5784,-1.5784,-1.5784,1.2705,0.0,1.2705,1.2705,1.2705,1.2705,0.0,1.2705,1.2705,1.2705,1.2705,1.2705,1.2705,1.2705,1.2705,1.2705,1.3163,1.3513,1.3513,1.4437,0.0,1.591,1.6163,1.6205,1.6006,1.6477,1.6676,1.6398,1.6694,1.6881,1.6881,1.6881,1.6857,1.6797,1.6857,1.68,1.6565,1.6139,1.5416,1.4348,1.3944,1.3118,1.1978,1.0996,1.0288,0.9743,0.8813,0.8211,0.7878,0.7878,0.7771,0.7493,0.7493,0.7379,0.721,0.721,0.6429,0.5539,0.6429,0.5198,0.3022,0.2127,0.1009,0.0,0.0,0.0,0.0,-0.0056,-0.0112,-0.0168,-0.0449,-0.0561,-0.0728,-0.1227,-0.2068,-0.3132,-0.4646,-0.5553,-0.6481,-0.7739,-0.7988,-0.7988,-0.7988,-0.7988,-0.7988,-0.7988,-0.7988,-0.7988,-0.7988,-0.7988,-0.7988,-0.7988,-0.7958,-0.7934,-0.7934,-0.883,-0.9857,-1.092,-1.2032,-1.2956,-1.3656,-1.4018,-1.4254,-1.4371,-1.4952,-1.5423,-1.5732,-1.5751,-1.5784,-1.5784,-1.5784,-1.5784,1.2705,1.2705,1.2705,1.2705,1.2705,1.2705,1.2705,1.2705,1.2705,1.2705,1.2705,1.2705,1.2705,1.2705,1.2747,1.2874,1.3248,0.0,0.0,0.0,1.5306,1.5831,1.6012,1.6048,0.0,1.6266,1.6447,1.6296,1.6543,1.67,1.67,1.67,1.664,1.6513,1.6507,1.6507,1.6507,1.6368,1.5957,1.517,1.5039,1.4379,1.3181,1.258,1.1601,1.0398,0.9798,0.9034,0.8208,0.8208,0.8045,0.7771,0.7662,0.7493,0.7379,0.7265,0.6765,0.6318,0.6988,0.5982,0.4139,0.2351,0.1344,0.0728,0.0168,0.0,0.0,0.0,0.0,-0.0056,-0.0168,-0.028,-0.0449,-0.0617,-0.1256,-0.2076,-0.3293,-0.4488,-0.5627,-0.683,-0.7587,-0.7988,-0.7988,-0.7988,-0.7988,-0.7988,-0.7988,-0.7988,-0.7988,-0.7988,-0.7988,-0.7988,-0.7988,-0.7988,-0.7988,-0.8324,-0.8984,-1.0079,-1.1591,-1.2684,-1.3111,-1.387,-1.4322,-1.4471,-1.5041,-1.5452,-1.5642,-1.5642,-1.573,-1.5784,-1.5784,-1.5784,1.2705,1.2705,1.2705,1.2705,1.2705,1.2705,1.2705,1.2705,1.2705,1.2705,1.2705,1.2705,1.2705,1.2741,1.285,1.3041,1.3381,0.0,1.4962,1.5107,1.5306,1.5831,1.5891,0.0,1.5891,1.6091,1.6223,1.6223,1.6441,1.6579,1.6579,1.6579,1.6465,1.6229,1.6223,1.6223,1.6223,1.6223,1.6109,1.5891,1.5891,1.5405,1.4439,1.4277,1.3019,1.0945,0.0,0.0,0.8543,0.8543,0.8374,0.8045,0.7826,0.7662,0.7551,0.7324,0.721,0.721,0.721,0.6429,0.5035,0.2797,0.1959,0.1567,0.0392,0.0,0.0,0.0,0.0,0.0,0.0,-0.0168,-0.0336,-0.0336,-0.0547,-0.1066,-0.218,-0.3251,-0.442,-0.5677,-0.6883,-0.7739,-0.7892,-0.7992,-0.7988,-0.7988,-0.7988,-0.7988,-0.7988,-0.7988,-0.7988,-0.7988,-0.7988,-0.7988,-0.7988,-0.7988,-0.8382,-0.9316,-1.117,-1.2387,-1.2678,-1.3709,-1.4442,-1.4688,-1.4933,-1.5172,-1.5452,-1.5493,-1.5588,-1.5737,-1.5778,-1.5784,1.2705,1.2705,1.2705,1.2705,1.2705,1.2705,1.2705,1.2705,1.2705,1.2705,1.2705,1.2705,1.2705,1.2898,1.3029,1.3071,1.3532,1.4141,0.0,0.0,1.5306,1.5831,0.0,1.5891,1.5891,1.5928,1.5946,1.5946,1.5988,1.6012,1.6012,1.6012,1.5994,1.5952,1.5946,1.5946,1.5946,1.5946,1.5928,1.5891,1.5891,1.5838,1.5624,1.4654,1.3457,1.2087,0.0,0.9966,0.8826,0.8826,0.8657,0.8429,0.8377,0.8045,0.7607,0.7551,0.7379,0.721,0.721,0.6429,0.5146,0.3748,0.2629,0.1567,0.0392,0.0,0.0,0.0,0.0,0.0,0.0,-0.0056,-0.0056,-0.0056,-0.0109,-0.048,-0.1808,-0.2221,-0.3016,-0.5222,-0.6027,-0.6584,-0.7494,-0.7842,-0.7988,-0.7988,-0.7988,-0.7988,-0.7988,-0.7988,-0.7988,-0.7988,-0.7988,-0.7988,-0.7988,-0.7988,-0.8088,-0.8233,-0.941,-1.0877,-1.263,-1.3709,-1.4442,-1.4688,-1.4742,-1.4885,-1.5178,-1.5404,-1.554,-1.554,-1.5737,-1.5784,1.2705,1.2705,1.2705,1.2705,1.2705,1.2705,1.2705,1.2705,1.2705,1.2705,1.2705,1.2705,1.2705,1.2934,1.3173,1.3501,1.3996,1.4521,1.5034,1.5228,1.5457,0.0,0.0,1.5891,1.5891,1.5891,1.5891,1.5891,1.5891,1.5891,1.5891,1.5891,1.5891,1.5891,1.5891,1.5891,1.5891,1.5891,1.5891,1.5891,1.5891,1.5891,1.5891,1.5351,1.4487,1.329,0.0,1.0945,0.9805,0.9154,0.8826,0.8712,0.8543,0.8322,0.8045,0.7715,0.7438,0.721,0.721,0.6821,0.6151,0.4977,0.3748,0.2574,0.1344,0.0504,0.0,0.0,0.0,0.0,0.0,0.0,0.0,0.0,0.0,-0.0158,-0.0787,-0.1489,-0.2314,-0.3417,-0.482,-0.5927,-0.6431,-0.7238,-0.7793,-0.7793,-0.7892,-0.7988,-0.7988,-0.7988,-0.7988,-0.7988,-0.7988,-0.7988,-0.7988,-0.7988,-0.8237,-0.8825,-0.9316,-1.0534,-1.263,-1.3167,-1.3757,-1.4496,-1.449,-1.464,-1.4885,-1.5022,-1.5118,-1.5267,-1.5547,-1.5635,1.2705,1.2705,1.2705,1.2705,1.2705,1.2705,1.2705,1.2705,1.2705,1.2705,1.2705,1.2765,1.2998,1.3336,1.3679,1.4151,1.4497,1.4855,1.5317,1.5484,1.57,1.6174,1.6045,1.5891,1.5891,1.5891,1.5891,1.5891,1.5891,1.5891,1.5891,1.5891,1.5891,1.5891,1.5891,1.5891,1.5891,1.5891,1.5891,1.5891,1.5891,1.5891,1.5891,1.5891,1.5298,1.411,1.2906,1.176,1.0621,0.9372,0.8885,0.8881,0.8657,0.8543,0.8429,0.7881,0.7549,0.7376,0.7321,0.7268,0.7099,0.5817,0.4743,0.3725,0.2225,0.1111,0.0332,0.0055,0.0,0.0,0.0,0.0,0.0,0.0,0.0,0.0,0.0,-0.0817,-0.1611,-0.1863,-0.3468,-0.492,-0.5425,-0.6431,-0.7241,-0.7494,-0.7743,-0.7892,-0.7892,-0.7942,-0.7988,-0.7988,-0.7988,-0.7988,-0.7988,-0.7988,-0.8333,-0.9167,-0.946,-1.0293,-1.1901,-1.2436,-1.3071,-1.3908,-1.4148,-1.4394,-1.4592,-1.4688,-1.479,-1.5035,-1.5261,-1.5404,1.2705,1.2705,1.2705,1.2705,1.2705,1.2705,1.2705,1.2705,1.2705,1.2705,1.2705,1.2991,1.3926,1.4527,1.4961,1.5259,1.4953,1.5103,1.6166,0.0,1.5903,1.6956,1.6411,1.5891,1.5891,1.5891,1.5891,1.5891,1.5891,1.5891,1.5891,1.5891,1.5891,1.5891,1.5891,1.5891,1.5891,1.5891,1.5891,1.5891,1.5891,1.5891,1.5891,1.5891,1.5298,1.411,1.2906,1.176,1.0621,0.9372,0.8885,0.8885,0.8881,0.8712,0.8429,0.81,0.7934,0.7878,0.766,0.7551,0.7326,0.5875,0.5259,0.4696,0.2459,0.1677,0.1283,0.0267,0.0,0.0,0.0,0.0,0.0,0.0,0.0,0.0,0.0,-0.0051,-0.0454,-0.1412,-0.1964,-0.2867,-0.4876,-0.5527,-0.6077,-0.7086,-0.7444,-0.7646,-0.7646,-0.7842,-0.7988,-0.7988,-0.7988,-0.7988,-0.7988,-0.7988,-0.8038,-0.8088,-0.9069,-0.9657,-0.9801,-1.1702,-1.2732,-1.2829,-1.3806,-1.4298,-1.4346,-1.4592,-1.4694,-1.4742,-1.4981,-1.5131,1.2966,1.2833,1.2705,1.2705,1.2705,1.2705,1.2705,1.2705,1.2705,1.2705,1.3218,1.4086,1.5502,1.5498,1.5509,1.632,1.6196,1.6283,1.6964,1.7217,1.7455,1.7877,1.7681,1.7259,1.6783,1.673,1.6465,1.5939,1.5891,1.5891,1.5891,1.5891,1.5891,1.5891,1.5891,1.5891,1.5891,1.5891,1.5891,1.5891,1.5891,1.5891,1.5891,1.5891,1.5672,1.519,1.4051,1.2852,1.1651,1.0511,0.9588,0.8885,0.8885,0.8712,0.8484,0.8374,0.8152,0.7989,0.7881,0.7662,0.7376,0.6824,0.5929,0.4773,0.3271,0.2245,0.1381,0.0316,0.0,0.0,0.0,0.0,0.0,0.0,0.0,0.0,0.0,0.0,-0.0101,-0.0505,-0.121,-0.2216,-0.3725,-0.4726,-0.5729,-0.6789,-0.7191,-0.7341,-0.7341,-0.7441,-0.759,-0.7743,-0.7892,-0.7988,-0.7988,-0.7988,-0.7988,-0.7988,-0.8382,-0.892,-0.9558,-1.0342,-1.1365,-1.2684,-1.3119,-1.3613,-1.4298,-1.4394,-1.4442,-1.4442,-1.4736,-1.4838,1.3179,1.3009,1.2833,1.2918,1.2875,1.2833,1.2833,1.2747,1.2729,1.2819,1.3963,1.5434,1.6904,1.6791,1.6684,0.0,1.7353,1.7367,1.7981,1.8247,1.8475,1.8788,1.8579,1.8153,1.7628,1.7358,1.6935,1.6358,1.6045,1.5891,1.5891,1.5891,1.5891,1.5891,1.5891,1.5891,1.5891,1.5891,1.5891,1.5891,1.5891,1.5891,1.5891,1.5891,1.5891,1.5838,1.4702,1.3511,1.2358,1.1546,1.0566,0.9427,0.9047,0.8771,0.8598,0.8598,0.8488,0.8263,0.8164,0.7923,0.7678,0.7529,0.6624,0.5424,0.4371,0.315,0.1879,0.0826,0.0257,0.0,0.0,0.0,0.0,0.0,0.0,0.0,0.0,0.0,0.0,0.0,-0.0606,-0.1412,-0.2519,-0.3725,-0.4931,-0.5989,-0.6689,-0.7089,-0.7089,-0.7138,-0.7291,-0.7596,-0.7743,-0.7892,-0.7988,-0.7988,-0.7988,-0.7988,-0.7988,-0.8333,-0.9069,-0.941,-1.0293,-1.1707,-1.2387,-1.3071,-1.3806,-1.4148,-1.4298,-1.4298,-1.449,-1.4592,1.3398,1.327,1.3137,1.3355,1.3264,1.3094,1.3094,1.2881,1.2789,1.3079,1.5028,1.7044,1.81,1.8518,0.0,1.8686,1.8297,1.8296,1.9194,1.8802,1.8736,1.9628,1.8945,1.8422,1.8422,1.7681,1.7199,1.7199,1.6411,1.5945,1.5945,1.5945,1.5891,1.5891,1.5891,1.5891,1.5891,1.5891,1.5891,1.5891,1.5891,1.5891,1.5891,1.5891,1.5891,1.5838,1.4708,1.3511,1.2417,1.2417,1.171,1.0562,0.9372,0.8885,0.8885,0.8881,0.8881,0.8858,0.8442,0.8281,0.8202,0.7743,0.7348,0.6779,0.574,0.4393,0.2972,0.1915,0.0858,0.0,0.0,0.0,0.0,0.0,0.0,0.0,0.0,0.0,0.0,0.0,0.0,-0.0353,-0.1412,-0.2469,-0.3575,-0.4634,-0.5939,-0.6795,-0.6795,-0.7039,-0.7288,-0.7547,-0.7596,-0.7693,-0.7992,-0.7988,-0.7988,-0.7988,-0.7988,-0.7988,-0.7988,-0.9019,-0.9608,-0.9608,-1.1609,-1.2684,-1.2678,-1.3757,-1.4298,-1.4298,-1.4298,-1.4298,1.361,1.3483,1.3307,1.3392,1.3349,1.3307,1.3307,1.3709,1.4482,1.6098,1.6565,1.7315,1.9385,1.9163,0.0,1.9748,1.9255,1.9063,1.9942,2.0135,2.0241,2.0506,2.03,1.9931,1.9368,1.9101,1.8677,1.8101,1.7786,1.7687,1.7687,1.71,1.6836,1.6836,1.6205,1.5891,1.5891,1.5891,1.5891,1.5891,1.5891,1.5891,1.5891,1.5891,1.5891,1.5891,1.5512,1.4756,1.3619,1.2743,1.171,1.0672,1.0292,0.9644,0.8871,0.8818,0.8777,0.8757,0.8498,0.8272,0.7972,0.7875,0.7511,0.6897,0.5629,0.4949,0.4175,0.2166,0.1361,0.0958,0.0202,0.0,0.0,0.0,0.0,0.0,0.0,0.0,0.0,0.0,0.0,-0.0353,-0.1412,-0.1865,-0.267,-0.4533,-0.5135,-0.5687,-0.6437,-0.6739,-0.6942,-0.7045,-0.7191,-0.7441,-0.7693,-0.7693,-0.7793,-0.7988,-0.7988,-0.7988,-0.7988,-0.8283,-0.8825,-0.9608,-1.0194,-1.1219,-1.2678,-1.3022,-1.3559,-1.4298,-1.4298,-1.4298,1.387,1.3695,1.3519,1.3652,1.361,1.3714,1.4506,1.4549,1.4985,1.6993,1.7292,1.7913,2.0205,1.9906,0.0,2.0443,2.0078,1.983,2.0533,2.0782,2.0968,2.1173,2.1027,2.0763,2.0498,1.9983,1.9569,1.925,1.893,1.8826,1.9027,1.8603,1.8126,1.7667,1.7041,1.6524,1.6051,1.5945,1.5891,1.5891,1.5891,1.5891,1.5891,1.5891,1.5891,1.5891,1.5405,1.5083,1.4756,1.3068,1.1982,1.1319,1.0816,0.9872,0.8828,0.8676,0.8618,0.8598,0.8452,0.8237,0.8047,0.7988,0.7657,0.7191,0.6387,0.5782,0.4926,0.297,0.2065,0.1512,0.0303,0.0,0.0,0.0,0.0,0.0,0.0,0.0,0.0,0.0,0.0,-0.0202,-0.0858,-0.1311,-0.2016,-0.3324,-0.423,-0.5186,-0.6287,-0.6539,-0.6692,-0.6795,-0.6942,-0.7141,-0.7441,-0.7444,-0.7543,-0.7842,-0.7842,-0.7892,-0.7988,-0.7988,-0.8283,-0.897,-0.9361,-1.0243,-1.1463,-1.229,-1.3022,-1.3661,-1.41,-1.4298,1.4008,1.3853,1.374,1.4006,1.3893,1.422,1.6022,1.5377,1.4867,1.664,1.7562,1.8644,2.0436,2.0681,2.0596,2.0821,2.07,2.0654,2.088,2.1003,2.1224,2.1725,2.1326,2.1224,2.1725,2.0652,2.0138,2.0637,1.9952,1.9687,2.0187,2.0135,1.962,1.8544,1.8185,1.747,1.6324,1.6105,1.5992,1.5992,1.5945,1.5945,1.5992,1.5945,1.5891,1.5838,1.4815,1.4911,1.5689,1.3578,1.2537,1.2234,1.1095,0.9808,0.8672,0.852,0.8462,0.8442,0.8299,0.8248,0.8225,0.8035,0.7842,0.7646,0.7596,0.6734,0.5525,0.4171,0.3017,0.1862,0.0504,0.0101,0.0,0.0,0.0,0.0,0.0,0.0,0.0,0.0,0.0,0.0,0.0,-0.0807,-0.1462,-0.1563,-0.3425,-0.5135,-0.6134,-0.6337,-0.6487,-0.6742,-0.6742,-0.6892,-0.7138,-0.7188,-0.7291,-0.7547,-0.7547,-0.7693,-0.7939,-0.7988,-0.7988,-0.7988,-0.897,-0.9509,-0.9608,-1.1512,-1.2484,-1.2727,-1.3709,-1.4196,1.34,1.3527,1.3658,1.3693,1.3873,1.4264,1.514,1.5651,1.6391,1.7985,1.8479,1.8884,1.9767,2.0867,2.1395,2.0638,2.1131,2.1543,2.118,2.1745,2.2173,2.2325,2.2224,2.2173,2.2325,2.2072,2.1971,2.2072,2.1912,2.1853,2.1954,2.1379,2.0503,1.9369,1.8648,1.7772,1.663,1.6577,1.6518,1.6524,1.6318,1.6318,1.6518,1.6099,1.5891,1.5891,1.5624,1.5559,1.5531,1.5048,1.3713,1.1926,1.1619,1.0305,0.8513,0.837,0.8368,0.8296,0.8143,0.8089,0.8032,0.8002,0.7942,0.7892,0.7646,0.7394,0.6886,0.5525,0.4271,0.3017,0.1862,0.0807,0.0,0.0,0.0,0.0,0.0,0.0,0.0,0.0,0.0,0.0,0.0,-0.0202,-0.0606,-0.1462,-0.3425,-0.4885,-0.5135,-0.5887,-0.6437,-0.6487,-0.6487,-0.6589,-0.6842,-0.6892,-0.6992,-0.7288,-0.7288,-0.7288,-0.7388,-0.7789,-0.7988,-0.7988,-0.8233,-0.8775,-0.9608,-1.0047,-1.1121,-1.2732,-1.2926,-1.3511,1.3213,1.3387,1.3633,1.378,1.3975,1.4286,1.5019,1.5669,1.6507,1.7957,1.9043,2.0004,2.088,2.1562,2.1814,2.123,2.1425,2.1667,2.1551,2.1943,2.2379,2.2802,2.2677,2.2577,2.2878,2.2627,2.2627,2.2878,2.2878,2.3029,2.3288,2.292,2.2156,2.1022,1.993,1.885,1.7726,1.7047,1.6677,1.6677,1.6577,1.6514,1.648,1.6073,1.5921,1.5909,1.5624,1.5439,1.5312,1.5312,1.4236,1.2505,1.1936,1.0625,0.9024,0.8414,0.816,0.8147,0.8019,0.7988,0.7988,0.7988,0.7988,0.7992,0.7842,0.7793,0.749,0.6179,0.4922,0.3718,0.2515,0.121,0.0202,0.0202,0.0101,0.0,0.0,0.0,0.0,0.0,0.0,0.0,0.0,0.0,-0.0353,-0.1462,-0.2972,-0.423,-0.4734,-0.5734,-0.6387,-0.6387,-0.6387,-0.6437,-0.6589,-0.6589,-0.6742,-0.6992,-0.6992,-0.7089,-0.7188,-0.7487,-0.769,-0.7793,-0.7942,-0.8283,-0.8825,-0.9361,-1.0145,-1.1219,-1.1755,-1.2538,1.3092,1.3307,1.36,1.3935,1.4048,1.4334,1.5193,1.5633,1.6242,1.7595,1.9327,2.0933,2.1903,2.2122,2.2045,2.1741,2.1672,2.1691,2.1844,2.1988,2.2339,2.3148,2.2889,2.2833,2.3281,2.2994,2.2979,2.3429,2.3488,2.3687,2.4152,2.4202,2.3696,2.2526,2.1371,2.0135,1.8871,1.7673,1.697,1.6765,1.6714,1.6573,1.6298,1.6003,1.5912,1.5886,1.5356,1.5127,1.5085,1.504,1.4342,1.3201,1.2194,1.0979,0.9664,0.8628,0.8137,0.7988,0.7988,0.7988,0.7988,0.7988,0.7988,0.7988,0.7988,0.7988,0.7786,0.6681,0.5525,0.437,0.3067,0.1763,0.0707,0.0454,0.0253,0.0051,0.0,0.0,0.0,0.0,0.0,0.0,0.0,0.0,-0.0303,-0.1211,-0.2217,-0.3224,-0.413,-0.5334,-0.6134,-0.6134,-0.6284,-0.6387,-0.6387,-0.6387,-0.6487,-0.6692,-0.6742,-0.6842,-0.7039,-0.7089,-0.7241,-0.7447,-0.7793,-0.7942,-0.7942,-0.8871,-0.941,-0.9608,-1.0489,-1.1463,1.2722,1.2954,1.334,1.3586,1.3895,1.4334,1.5193,1.5714,1.64,0.0,1.9353,2.0361,2.0386,2.1691,2.2395,2.1156,2.1952,2.2465,2.1748,2.2288,2.2815,2.2964,2.3217,2.3378,2.3475,2.3794,2.3994,2.4053,2.4093,2.4102,2.4202,2.4202,2.3696,2.2526,2.2316,2.1234,1.9176,1.8752,1.8061,1.715,1.6839,1.6555,1.627,1.6004,1.5881,1.5859,1.5563,1.5313,1.5097,1.4862,1.3973,1.2775,1.2645,1.136,0.9591,0.9468,0.8775,0.7988,0.7988,0.7988,0.7988,0.7988,0.7988,0.7988,0.7988,0.7988,0.7939,0.7786,0.6783,0.5527,0.442,0.3118,0.1864,0.0656,0.0354,0.0303,0.0051,0.0,0.0,0.0,0.0,0.0,0.0,0.0,-0.0051,-0.0202,-0.111,-0.1865,-0.2016,-0.3776,-0.5035,-0.5035,-0.5837,-0.6387,-0.6387,-0.6387,-0.6437,-0.6437,-0.6437,-0.6487,-0.6487,-0.6742,-0.6895,-0.6895,-0.7394,-0.7646,-0.7646,-0.8038,-0.8676,-0.9608,-0.9752,-1.0391,1.2842,1.293,1.317,1.3527,1.37,1.3964,1.4538,1.5175,1.5943,1.6837,1.787,1.9065,2.0579,2.1977,2.2626,2.1792,2.216,2.2446,2.2033,2.2299,2.2638,2.2876,2.3059,2.316,2.316,2.3526,2.3813,2.3813,2.4073,2.4202,2.4202,2.4202,2.3845,2.3068,2.2498,2.1337,1.9525,1.8805,1.7946,1.6901,1.7196,1.6952,1.6312,1.5959,1.5839,1.586,1.546,1.5229,1.5067,1.4825,1.4358,1.3757,1.2974,1.1804,1.0435,0.9801,0.892,0.7988,0.7988,0.7988,0.7988,0.7988,0.7988,0.7988,0.7988,0.7988,0.7988,0.7988,0.7135,0.5982,0.4922,0.3621,0.2317,0.1111,0.0758,0.0556,0.0303,0.0101,0.0,0.0,0.0,0.0,0.0,0.0,0.0,0.0,-0.0908,-0.1613,-0.1613,-0.2972,-0.413,-0.4734,-0.5236,-0.5734,-0.6337,-0.6387,-0.6387,-0.6387,-0.6387,-0.6387,-0.6387,-0.6489,-0.6589,-0.6589,-0.7089,-0.7444,-0.7596,-0.7693,-0.8088,-0.8726,-0.8726,-0.9266,1.3023,1.3065,1.3153,1.3459,1.3649,1.3817,1.4088,0.0,1.528,0.0,1.6367,1.7636,1.9785,2.1226,2.2032,2.1834,2.1989,2.2126,2.2126,2.2126,2.2245,2.2556,2.2684,2.2748,2.2748,2.3114,2.3343,2.3343,2.3675,2.3849,2.3849,2.3849,2.3712,2.3352,2.2545,2.1516,2.0208,1.9021,1.792,1.6874,1.7423,1.7165,1.6152,1.5925,1.585,1.5848,1.5406,1.522,1.5172,1.4933,1.479,1.4688,1.3613,1.2587,1.156,1.0435,0.9316,0.8382,0.8088,0.7988,0.7988,0.7988,0.7988,0.7988,0.7988,0.7988,0.7988,0.7988,0.7437,0.6584,0.5477,0.4273,0.302,0.1866,0.1262,0.0808,0.0455,0.0202,0.0,0.0,0.0,0.0,0.0,0.0,0.0,0.0,-0.0656,-0.1211,-0.1211,-0.2116,-0.3224,-0.428,-0.4634,-0.5236,-0.6287,-0.6387,-0.6387,-0.6387,-0.6387,-0.6387,-0.6387,-0.6387,-0.6387,-0.6387,-0.6786,-0.7141,-0.7397,-0.7444,-0.759,-0.7789,-0.7789,-0.8283,1.3177,1.325,1.3286,1.3314,1.3805,1.4286,0.0,0.0,1.4572,1.4902,1.554,1.6195,1.658,1.8467,2.0067,2.0367,2.1167,2.1723,2.1723,2.1723,2.1733,2.1751,2.2089,2.2309,2.2309,2.2693,2.294,2.294,2.2959,2.2968,2.2968,2.2968,2.2959,2.294,2.2893,2.2336,2.1244,1.9828,1.8517,1.7283,1.7315,1.6791,1.5852,1.5791,1.5791,1.5804,1.5547,1.5493,1.5445,1.5172,1.5083,1.5035,1.4736,1.3956,1.2829,1.156,1.044,0.9361,0.8333,0.7988,0.7988,0.7988,0.7988,0.7988,0.7988,0.7988,0.7988,0.7988,0.7942,0.769,0.6587,0.5529,0.4373,0.302,0.1917,0.1061,0.0505,0.0202,0.0,0.0,0.0,0.0,0.0,0.0,0.0,0.0,-0.0051,-0.0101,-0.0101,-0.1009,-0.2116,-0.3173,-0.418,-0.5236,-0.6287,-0.6387,-0.6387,-0.6387,-0.6387,-0.6387,-0.6387,-0.6387,-0.6387,-0.6387,-0.6437,-0.6587,-0.6842,-0.7089,-0.7238,-0.7238,-0.7238,-0.7391,1.3236,1.3205,1.3259,1.3306,1.3477,1.3789,1.4188,1.4322,1.4407,1.4719,1.4986,1.5241,1.5554,1.7391,1.9107,1.9864,2.0454,2.0988,2.1597,2.1696,2.1696,2.1696,2.1815,2.1897,2.1897,2.2263,2.2501,2.2501,2.2757,2.2904,2.2904,2.2904,2.2785,2.251,2.2501,2.1903,2.066,2.0147,1.9046,1.7333,1.7963,1.7404,1.5784,1.5784,1.5784,1.5784,1.5737,1.5689,1.5683,1.5452,1.5356,1.5309,1.5077,1.4202,1.2974,1.1853,1.1121,1.0391,0.8627,0.8432,0.892,0.8233,0.7988,0.7988,0.7988,0.7988,0.7988,0.7988,0.7988,0.7739,0.6686,0.6134,0.5379,0.3473,0.2118,0.1162,0.096,0.0556,0.0253,0.0253,0.0101,0.0,0.0,0.0,0.0,0.0,0.0,0.0,0.0,-0.0353,-0.1009,-0.2066,-0.3123,-0.423,-0.5286,-0.5987,-0.6387,-0.6387,-0.6387,-0.6387,-0.6387,-0.6387,-0.6387,-0.6387,-0.6387,-0.6539,-0.6795,-0.6892,-0.7039,-0.7188,-0.7188,-0.7238,1.3346,1.3309,1.3323,1.3338,1.3466,1.3658,1.4116,1.4214,1.4337,1.4606,1.4621,1.4678,1.4986,1.6235,1.7601,1.8734,1.963,2.0421,2.1193,2.153,2.1762,2.1811,2.183,2.1785,2.1696,2.1925,2.208,2.208,2.2346,0.0,2.2501,2.2501,2.2373,2.2089,2.208,2.1672,2.0763,2.0763,1.9758,1.7831,1.8473,1.7731,1.5784,1.5784,1.5784,1.5784,1.5784,1.5784,1.5778,1.5642,1.5588,1.5594,1.5315,1.4682,1.3746,1.2635,1.2047,1.1609,0.9801,0.9361,0.946,0.8775,0.8283,0.7988,0.7988,0.7988,0.7988,0.7988,0.7988,0.7839,0.7138,0.6686,0.5884,0.3725,0.252,0.1767,0.1414,0.0909,0.0556,0.0556,0.0404,0.0253,0.0152,0.0152,0.0101,0.0,0.0,0.0,0.0,0.0,-0.0404,-0.1462,-0.2217,-0.3073,-0.418,-0.5233,-0.5887,-0.5887,-0.6184,-0.6387,-0.6387,-0.6387,-0.6387,-0.6387,-0.6387,-0.6487,-0.6642,-0.6642,-0.6739,-0.6936,-0.6936,-0.6986,0.0,0.0,0.0,1.3492,1.3733,1.4005,1.402,1.4062,1.4177,1.4531,1.4434,1.4403,1.4664,1.4972,1.5619,1.6857,1.8612,2.0002,2.0428,2.1228,2.1829,2.2057,2.2059,2.1971,2.1695,2.1668,2.1678,2.1668,2.1687,2.1696,2.1696,2.1696,2.1696,2.1696,2.1696,2.1696,2.1696,2.1696,2.0727,1.8834,1.8834,1.7777,1.5825,1.5825,1.5832,1.5784,1.5784,1.5784,1.5784,1.5784,1.5784,1.5784,1.5588,1.5493,1.535,1.3998,1.336,1.3011,1.194,1.0765,0.969,0.9592,0.8909,0.8028,0.7982,0.7982,0.7985,0.7988,0.7988,0.7988,0.7988,0.7188,0.5884,0.3775,0.3224,0.2923,0.1869,0.1212,0.0808,0.0808,0.0808,0.0707,0.0455,0.0404,0.0303,0.0051,0.0,0.0,0.0,0.0,-0.0404,-0.1462,-0.1563,-0.2016,-0.3073,-0.413,-0.4784,-0.4784,-0.5787,-0.6387,-0.6387,-0.6387,-0.6387,-0.6387,-0.6387,-0.6387,-0.6387,-0.6387,-0.6387,-0.6387,-0.6387,-0.6539,1.3492,0.0,0.0,0.0,0.0,0.0,1.3931,1.401,1.4125,1.4452,1.4478,1.4533,1.4811,1.4941,1.5189,1.5762,1.7549,1.911,1.9935,2.0822,2.1395,2.1424,2.1433,2.1339,2.1055,2.129,2.1422,0.0,2.1522,2.1696,2.1696,2.1696,2.1696,2.1696,2.1696,2.1696,2.1696,2.1696,2.1087,1.9886,1.9886,1.8834,1.6911,1.6911,1.648,1.5784,1.5784,1.5784,1.5784,1.5784,1.5784,1.5778,1.573,1.5635,1.535,1.422,1.3969,1.3914,1.2125,1.1549,1.1288,0.9875,0.9076,0.8632,0.8032,0.7875,0.7896,0.7958,0.7988,0.7988,0.7988,0.7188,0.6234,0.5632,0.4327,0.3123,0.2822,0.2018,0.1314,0.1111,0.0909,0.0758,0.0707,0.0707,0.0606,0.0354,0.0303,0.0202,0.0,0.0,-0.0101,-0.0404,-0.116,-0.1714,-0.2016,-0.3022,-0.3979,-0.4734,-0.5085,-0.5584,-0.6387,-0.6387,-0.6387,-0.6387,-0.6387,-0.6387,-0.6387,-0.6387,-0.6387,-0.6387,-0.6387,-0.6437,1.3492,1.3492,1.3492,1.3492,0.0,0.0,1.3733,1.3777,1.3872,1.4232,1.4306,1.4362,1.4684,1.4743,1.4809,1.4999,1.6697,1.8354,1.9232,2.043,2.1228,2.1316,2.1345,2.1252,2.0983,2.1165,2.1272,2.1126,2.1358,2.1571,2.1738,2.1826,2.1919,2.1998,2.1919,2.1874,2.1874,2.1785,2.1221,2.0294,2.0294,1.9247,1.7279,1.7179,1.6565,1.5645,1.5518,1.5471,1.5471,1.5471,1.5538,1.5638,1.5518,1.5372,1.5232,1.4608,1.4467,1.4433,1.3194,1.2636,1.2159,1.0495,0.9579,0.8952,0.8025,0.7723,0.7743,0.7831,0.785,0.7911,0.7975,0.7537,0.6936,0.6487,0.5432,0.4277,0.3374,0.2722,0.2069,0.1465,0.1263,0.1111,0.101,0.096,0.0859,0.0606,0.0556,0.0455,0.0202,0.0152,0.0101,0.0,-0.0555,-0.0908,-0.0908,-0.1915,-0.2821,-0.3425,-0.428,-0.5083,-0.5687,-0.6187,-0.6387,-0.6387,-0.6387,-0.6387,-0.6387,-0.6387,-0.6387,-0.6387,-0.6387,-0.6387,1.3492,1.3492,1.3492,1.3492,1.3492,0.0,1.3492,1.3492,1.3579,1.3865,1.3931,1.4064,1.4394,1.4452,1.4467,1.4504,1.6162,1.7699,1.8363,1.9999,2.1218,2.1392,2.1399,2.1326,2.1119,2.1125,2.1154,2.1154,2.115,2.1339,2.1698,2.1892,2.2117,2.2331,2.2155,2.2076,2.2076,2.1845,2.1275,2.0399,2.0354,1.9352,1.7526,1.7175,1.6459,1.5469,1.5167,1.5008,1.5008,1.4975,1.5129,1.5324,1.5109,1.5008,1.5008,1.5008,1.4847,1.459,1.459,1.3783,1.2519,1.143,1.0338,0.9246,0.812,0.7714,0.7624,0.7594,0.7692,0.7824,0.7924,0.7965,0.772,0.6783,0.6487,0.5884,0.3976,0.3374,0.2923,0.1969,0.1667,0.1516,0.1263,0.1263,0.1162,0.0909,0.0859,0.0758,0.0455,0.0455,0.0354,0.0051,0.0051,0.0051,0.0,-0.0858,-0.1462,-0.1613,-0.3374,-0.4533,-0.4784,-0.5737,-0.6287,-0.6387,-0.6387,-0.6387,-0.6387,-0.6387,-0.6387,-0.6387,-0.6387,-0.6387,1.3492,1.3492,1.3492,1.3492,1.3492,0.0,1.3492,1.3492,1.3514,1.3579,1.3587,1.3689,1.4056,1.4115,1.4203,1.4467,1.5922,1.7179,1.7665,1.9437,2.0732,2.0771,2.0781,2.0702,2.0514,2.0761,2.0881,2.074,2.1021,2.1216,2.1291,2.1334,2.1523,2.1896,2.1863,2.1863,2.1863,2.1819,2.1521,2.1024,2.0826,2.0082,1.8951,1.7989,1.7,1.6092,1.5342,1.5008,1.4988,1.4703,1.4783,1.5089,1.5028,1.5008,1.5008,1.5008,1.481,1.4515,1.4515,1.4052,1.3323,1.2351,1.1271,1.0132,0.9124,0.8269,0.7668,0.761,0.7617,0.7675,0.7818,0.7855,0.7788,0.771,0.7036,0.6284,0.5884,0.4429,0.3123,0.2923,0.217,0.1566,0.1516,0.1516,0.1415,0.1162,0.1111,0.101,0.0758,0.0707,0.0606,0.0354,0.0303,0.0253,0.0,-0.0202,-0.0656,-0.1563,-0.2017,-0.3022,-0.4734,-0.4985,-0.5536,-0.6387,-0.6387,-0.6387,-0.6387,-0.6387,-0.6387,-0.6387,-0.6387,-0.6387,1.3827,1.3811,1.3811,1.3811,1.371,0.0,0.0,1.3572,1.3535,1.3645,1.3645,1.3725,1.3999,1.3963,1.3948,1.4111,1.5562,1.6736,1.6917,1.8862,2.0244,2.0244,2.0478,2.0566,2.045,2.0624,2.071,2.0612,2.0864,2.1072,2.1195,2.1314,2.1524,2.1861,2.1734,2.165,2.165,2.1565,2.1386,2.1178,2.1076,2.0512,1.9503,1.8659,1.7811,1.6825,1.5684,1.5203,1.5145,1.4534,1.4396,1.4566,1.4566,1.4566,1.4566,1.4566,1.4436,1.4302,1.4302,1.4123,1.3737,1.2632,1.1906,1.116,0.9605,0.8407,0.7604,0.7625,0.7578,0.7519,0.7668,0.7756,0.7831,0.7909,0.7536,0.7039,0.6537,0.5532,0.4477,0.3425,0.2772,0.222,0.1667,0.1617,0.1566,0.1415,0.1415,0.1313,0.101,0.101,0.0909,0.0606,0.0606,0.0556,0.0404,0.0253,-0.005,-0.0555,-0.121,-0.2066,-0.3173,-0.3726,-0.4529,-0.5584,-0.6134,-0.6387,-0.6387,-0.6387,-0.6387,-0.6387,-0.6387,-0.6387,1.4248,1.4193,1.4177,1.4109,1.3992,1.3863,0.0,0.0,0.0,1.3826,0.0,0.0,0.0,0.0,0.0,1.3744,0.0,0.0,0.0,1.8266,0.0,1.9785,2.0107,2.039,2.0468,2.0556,2.0605,2.0605,2.075,2.0913,2.1064,2.1233,2.1455,2.1758,2.1552,2.1418,2.1418,2.1263,2.1142,2.1097,2.1066,2.0583,1.9779,1.9135,1.8451,1.763,1.6114,1.547,1.5387,1.4496,1.4088,1.4088,1.4088,1.4088,1.4088,1.4088,1.4088,1.4088,1.4088,1.4088,1.3955,1.2942,1.237,1.1681,0.9836,0.85,0.7576,0.7649,0.7552,0.7454,0.7516,0.7641,0.774,0.7797,0.7906,0.7753,0.688,0.6537,0.5884,0.4176,0.3475,0.2873,0.1768,0.1617,0.1617,0.1617,0.1617,0.1516,0.1314,0.1263,0.1162,0.0909,0.0859,0.0859,0.0808,0.0606,0.0455,0.0455,-0.0605,-0.1311,-0.1513,-0.262,-0.3626,-0.4481,-0.5534,-0.6087,-0.6087,-0.6287,-0.6387,-0.6387,-0.6387,-0.6387,1.4636,0.0,0.0,0.0,1.4093,1.4057,1.4057,0.0,1.4021,1.4057,0.0,0.0,0.0,0.0,0.0,0.0,0.0,0.0,1.5898,1.7685,1.9094,1.9343,1.9404,1.958,1.9951,2.038,2.0605,2.0605,2.0615,2.0644,2.0683,2.0684,2.0898,2.1259,2.1268,2.1228,2.1228,2.1228,2.1024,2.0674,2.0487,2.033,2.0202,1.9136,1.858,1.8379,1.6494,1.5662,1.5579,1.4531,1.4088,1.4088,1.4088,1.4088,1.4088,1.4088,1.4088,1.4088,1.4088,1.4088,1.4088,1.3955,1.265,1.0956,0.9884,0.8763,0.7816,0.7569,0.7487,0.7478,0.7451,0.7456,0.7489,0.775,0.7824,0.7823,0.7809,0.7089,0.6337,0.6084,0.4477,0.2873,0.1768,0.1617,0.1617,0.1617,0.1617,0.1566,0.1566,0.1566,0.1465,0.1162,0.1162,0.1061,0.0808,0.0758,0.0758,0.0758,0.0404,-0.0252,-0.121,-0.2519,-0.3274,-0.3374,-0.4431,-0.4985,-0.4985,-0.5937,-0.6387,-0.6387,-0.6387,-0.6387,0.0,0.0,0.0,0.0,0.0,0.0,1.5002,0.0,1.5428,0.0,0.0,0.0,0.0,0.0,0.0,0.0,1.5573,0.0,0.0,0.0,1.8775,1.9035,0.0,0.0,1.9531,1.9717,1.9922,2.0166,2.0185,2.0303,2.0595,2.0605,2.0693,2.084,2.084,2.084,2.084,2.084,2.0752,2.0605,2.0489,2.045,2.045,1.9854,1.9578,1.949,1.802,1.709,1.656,1.5462,1.4727,1.4237,1.4166,1.4088,1.4088,1.4088,1.4088,1.4088,1.4088,1.4088,1.4088,1.4088,1.313,1.1789,1.0885,0.9802,0.8763,0.8113,0.7808,0.7698,0.7496,0.7531,0.7604,0.7685,0.775,0.7851,0.7958,0.7637,0.7138,0.6537,0.5682,0.4529,0.2822,0.2019,0.1617,0.1617,0.1617,0.1617,0.1617,0.1617,0.1566,0.1465,0.1415,0.1364,0.1263,0.1111,0.101,0.101,0.0758,0.0454,0.0,-0.1159,-0.1864,-0.2016,-0.3071,-0.3726,-0.3879,-0.4329,-0.4528,-0.4578,-0.5832,-0.6387,1.6564,0.0,0.0,0.0,0.0,0.0,0.0,0.0,0.0,0.0,0.0,0.0,0.0,0.0,0.0,0.0,0.0,1.692,0.0,1.8079,0.0,0.0,0.0,0.0,0.0,1.9219,1.9414,1.9717,1.9746,1.9932,2.0361,2.0429,2.0478,2.0595,2.0605,2.0605,2.0605,2.0605,2.0605,2.0605,2.0605,2.0605,2.0605,2.045,2.0381,2.0303,1.9204,1.823,1.7334,1.6232,1.5255,1.4398,1.4243,1.4166,1.4088,1.4088,1.4088,1.4088,1.4088,1.4088,1.4088,1.4088,1.3483,1.2577,1.1886,1.0755,0.954,0.8807,0.8288,0.794,0.768,0.7674,0.7751,0.7638,0.7739,0.7839,0.7946,0.7961,0.7789,0.6989,0.6587,0.5884,0.4327,0.2923,0.1919,0.1667,0.1617,0.1617,0.1617,0.1617,0.1617,0.1617,0.1617,0.1617,0.1617,0.1415,0.1263,0.1212,0.101,0.0859,0.0808,0.005,-0.0454,-0.0656,-0.1713,-0.2367,-0.267,-0.2972,-0.3123,-0.3224,-0.5081,-0.5984,0.0,0.0,0.0,1.8221,0.0,0.0,0.0,0.0,1.7356,0.0,0.0,0.0,0.0,0.0,0.0,0.0,0.0,0.0,0.0,0.0,0.0,0.0,0.0,0.0,0.0,1.9043,1.9297,0.0,1.9307,1.9492,1.9912,1.9932,2.0127,2.0595,2.0605,2.0605,2.0605,2.0605,2.0605,2.0605,2.0605,2.0605,2.0605,2.0605,2.0605,2.0527,1.9441,1.851,1.7617,1.6445,1.5338,1.4398,1.4391,1.4286,1.4088,1.4088,1.4088,1.4088,1.4088,1.4088,1.4088,1.4088,1.3483,1.2705,1.2662,1.1365,0.9854,0.9628,0.889,0.8157,0.7944,0.7904,0.7856,0.7744,0.7813,0.7874,0.7835,0.7884,0.7988,0.7939,0.7086,0.6387,0.6287,0.4528,0.2772,0.1768,0.1617,0.1617,0.1617,0.1617,0.1617,0.1617,0.1617,0.1617,0.1617,0.1617,0.1465,0.1212,0.1212,0.1061,0.0808,0.0758,0.0758,0.0758,-0.0303,-0.1008,-0.126,-0.2317,-0.2971,-0.3224,-0.4331,-0.4834,0.0,0.0,1.9383,1.874,0.0,0.0,0.0,0.0,0.0,0.0,0.0,0.0,0.0,0.0,0.0,0.0,0.0,0.0,0.0,0.0,0.0,0.0,0.0,0.0,0.0,0.0,0.0,0.0,1.8857,0.0,1.9473,1.9502,1.9697,2.0117,2.0137,2.0273,2.0605,2.0605,2.0605,2.0605,2.0605,2.0605,2.0605,2.0605,2.0605,2.0566,2.0206,1.9559,1.8678,1.7585,1.6568,1.5643,1.4894,1.4489,1.4279,1.4166,1.4088,1.4088,1.4088,1.4088,1.4088,1.4088,1.387,1.3525,1.2875,1.2272,1.1494,1.0154,0.955,0.9117,0.8332,0.8113,0.8067,0.797,0.8083,0.815,0.8072,0.8178,0.8237,0.8038,0.769,0.7238,0.6537,0.5784,0.4728,0.2923,0.207,0.1617,0.1617,0.1617,0.1617,0.1617,0.1617,0.1617,0.1617,0.1617,0.1566,0.1465,0.1465,0.1415,0.1314,0.1314,0.1263,0.1061,0.0707,0.0404,0.0101,-0.0252,-0.0555,-0.0857,-0.1914,-0.287,2.0129,2.038,0.0,1.9984,2.0382,0.0,2.0072,0.0,2.0545,0.0,0.0,0.0,0.0,0.0,0.0,0.0,0.0,0.0,0.0,1.9108,0.0,1.8908,1.8741,1.8539,0.0,0.0,0.0,0.0,0.0,0.0,0.0,1.9053,1.9258,1.9678,1.9834,2.0049,2.037,2.0527,2.0605,2.0605,2.0605,2.0605,2.0605,2.0605,2.0605,2.0605,2.0605,2.0089,1.9213,1.8238,1.7423,1.6747,1.536,1.4901,1.4887,1.4405,1.4166,1.4088,1.4088,1.4088,1.4088,1.4088,1.4088,1.3997,1.3398,1.296,1.2443,1.1241,1.0419,0.9728,0.8986,0.8596,0.832,0.8166,0.8314,0.8413,0.8244,0.8335,0.8333,0.8187,0.8088,0.7789,0.7086,0.6637,0.5682,0.3525,0.2622,0.2019,0.1667,0.1617,0.1617,0.1617,0.1617,0.1617,0.1617,0.1617,0.1617,0.1617,0.1617,0.1617,0.1617,0.1617,0.1516,0.1364,0.1364,0.1212,0.096,0.096,0.0808,0.0505,-0.0151,-0.1009]}]]